[[{"header":{"parameterUnit":"m.s-1","parameterCategory":1,"la1":30.6,"la2":29.2853,"lo1":-89.7004,"lo2":-87.6739,"dy":0.0162,"dx":0.0183,"nx":112,"ny":82,"refTime":"2024-03-02T18:00:00:Z","depth":0,"parameterNumber":2,"parameterNumberName":"U-component_of_WINDS"},"data":[0.0,0.0,0.0,0.0,0.0,0.0,0.0,0.0,0.0,0.0,0.0,0.0,0.0,0.0,0.0,0.0,0.0,0.0,0.0,0.0,0.0,0.0,0.0,0.0,0.0,0.0,0.0,0.0,0.0,0.0,0.0,0.0,0.0,0.0,0.0,0.0,0.0,0.0,0.0,0.0,0.0,0.0,0.0,0.0,0.0,0.0,0.0,0.0,0.0,0.0,0.0,0.0,0.0,0.0,0.0,0.0,0.0,0.0,0.0,0.0,0.0,0.0,0.0,0.0,0.0,0.0,0.0,0.0,0.0,0.0,0.0,0.0,0.0,0.0,0.0,0.0,0.0,0.0,0.0,0.0,0.0,0.0,0.0,0.0,0.0,0.0,0.0,0.0,0.0,0.0,0.0,-0.2781,-0.3337,-0.3784,-0.3998,-0.3684,-0.3286,-0.2813,0.0,0.0,0.0,0.0,0.0,0.0,0.0,0.0,0.0,0.0,0.0,0.0,0.0,0.0,0.0,0.0,0.0,0.0,0.0,0.0,0.0,0.0,0.0,0.0,0.0,0.0,0.0,0.0,0.0,0.0,0.0,0.0,0.0,0.0,0.0,0.0,0.0,0.0,0.0,0.0,0.0,0.0,0.0,0.0,0.0,0.0,0.0,0.0,0.0,0.0,0.0,0.0,0.0,0.0,0.0,0.0,0.0,0.0,0.0,0.0,0.0,0.0,0.0,0.0,0.0,0.0,0.0,0.0,0.0,0.0,0.0,0.0,0.0,0.0,0.0,0.0,0.0,0.0,0.0,0.0,0.0,0.0,0.0,0.0,0.0,0.0,0.0,0.0,0.0,0.0,0.0,0.0,0.0,0.0,0.0,0.0,0.0,0.0,0.0,0.0,0.0,0.0,0.0,0.0,-0.2407,-0.2766,-0.3341,-0.369,-0.3685,-0.321,-0.2866,-0.2719,0.0,0.0,0.0,0.0,0.0,0.0,0.0,0.0,0.0,0.0,0.0,0.0,0.0,0.0,0.0,0.0,0.0,0.0,0.0,0.0,0.0,0.0,0.0,0.0,0.0,0.0,0.0,0.0,0.0,0.0,0.0,0.0,0.0,0.0,0.0,0.0,0.0,0.0,0.0,0.0,0.0,0.0,0.0,0.0,0.0,0.0,0.0,0.0,0.0,0.0,0.0,0.0,0.0,0.0,0.0,0.0,0.0,0.0,0.0,0.0,0.0,0.0,0.0,0.0,0.0,0.0,0.0,0.0,0.0,0.0,0.0,0.0,0.0,0.0,0.0,0.0,0.0,0.0,0.0,0.0,0.0,0.0,0.0,0.0,0.0,0.0,0.0,0.0,0.0,0.0,0.0,0.0,0.0,0.0,0.0,0.0,0.0,0.0,0.0,0.0,0.0,0.0,0.0,-0.1997,-0.214,-0.2396,-0.2535,-0.2662,-0.2775,-0.2427,-0.2225,-0.2257,-0.2288,0.0,0.0,0.0,0.0,0.0,0.0,0.0,0.0,0.0,0.0,0.0,0.0,0.0,0.0,0.0,0.0,0.0,0.0,0.0,0.0,0.0,0.0,0.0,0.0,0.0,0.0,0.0,0.0,0.0,0.0,0.0,0.0,0.0,0.0,0.0,0.0,0.0,0.0,0.0,0.0,0.0,0.0,0.0,0.0,0.0,0.0,0.0,0.0,0.0,0.0,0.0,0.0,0.0,0.0,0.0,0.0,0.0,0.0,0.0,0.0,0.0,0.0,0.0,0.0,0.0,0.0,0.0,0.0,0.0,0.0,0.0,0.0,0.0,0.0,0.0,0.0,0.0,0.0,0.0,0.0,0.0,0.0,0.0,0.0,0.0,0.0,0.0,0.0,0.0,0.0,0.0,0.0,0.0,0.0,0.0,0.0,0.0,0.0,0.0,0.0,0.0,0.0,-0.1837,-0.1824,-0.1941,-0.1775,-0.1744,-0.1979,-0.1816,-0.1751,-0.1872,-0.1894,0.0,0.0,0.0,0.0,0.0,0.0,0.0,0.0,0.0,0.0,0.0,0.0,0.0,0.0,0.0,0.0,0.0,0.0,0.0,0.0,0.0,0.0,0.0,0.0,0.0,0.0,0.0,0.0,0.0,0.0,0.0,0.0,0.0,0.0,0.0,0.0,0.0,0.0,0.0,0.0,0.0,0.0,0.0,0.0,0.0,0.0,0.0,0.0,0.0,0.0,0.0,0.0,0.0,0.0,0.0,0.0,0.0,0.0,0.0,0.0,0.0,0.0,0.0,0.0,0.0,0.0,0.0,0.0,0.0,0.0,0.0,0.0,0.0,0.0,0.0,0.0,0.0,0.0,0.0,0.0,0.0,0.0,0.0,0.0,0.0,0.0,0.0,0.0,0.0,0.0,0.0,0.0,0.0,0.0,0.0,0.0,0.0,0.0,0.0,0.0,0.0,0.0,-0.167,-0.1465,-0.1538,-0.1528,-0.1571,-0.1718,-0.1711,-0.1731,-0.1803,-0.1861,0.0,0.0,0.0,0.0,0.0,0.0,0.0,0.0,0.0,0.0,0.0,0.0,0.0,0.0,0.0,0.0,0.0,0.0,0.0,0.0,0.0,0.0,0.0,0.0,0.0,0.0,0.0,0.0,0.0,0.0,0.0,0.0,0.0,0.0,0.0,0.0,0.0,0.0,0.0,0.0,0.0,0.0,0.0,0.0,0.0,0.0,0.0,0.0,0.0,0.0,0.0,0.0,0.0,0.0,0.0,0.0,0.0,0.0,0.0,0.0,0.0,0.0,0.0,0.0,0.0,0.0,0.0,0.0,0.0,0.0,0.0,0.0,0.0,0.0,0.0,0.0,0.0,0.0,0.0,0.0,0.0,0.0,0.0,0.0,0.0,0.0,0.0,0.0,0.0,0.0,0.0,0.0,0.0,0.0,0.0,0.0,0.0,0.0,0.0,0.0,0.0,0.0,-0.169,-0.1574,0.0,-0.149,-0.158,-0.1637,-0.1676,-0.1731,-0.1792,0.0,0.0,0.0,0.0,0.0,0.0,0.0,0.0,0.0,0.0,0.0,0.0,0.0,0.0,0.0,0.0,0.0,0.0,0.0,0.0,0.0,0.0,0.0,0.0,0.0,0.0,0.0,0.0,0.0,0.0,0.0,0.0,0.0,0.0,0.0,0.0,0.0,0.0,0.0,0.0,0.0,0.0,0.0,0.0,0.0,0.0,0.0,0.0,0.0,0.0,0.0,0.0,0.0,0.0,0.0,0.0,0.0,0.0,0.0,0.0,0.0,0.0,0.0,0.0,0.0,0.0,0.0,0.0,0.0,0.0,0.0,0.0,0.0,0.0,0.0,0.0,0.0,0.0,0.0,0.0,0.0,0.0,0.0,0.0,0.0,0.0,0.0,0.0,0.0,0.0,0.0,0.0,0.0,0.0,0.0,0.0,0.0,0.0,0.0,0.0,0.0,0.0,-0.1633,-0.1621,-0.1554,0.0,-0.1426,-0.1535,-0.1596,-0.1697,-0.1775,-0.1796,0.0,0.0,0.0,0.0,0.0,0.0,0.0,0.0,0.0,0.0,0.0,0.0,0.0,0.0,0.0,0.0,0.0,0.0,0.0,0.0,0.0,0.0,0.0,0.0,0.0,0.0,0.0,0.0,0.0,0.0,0.0,0.0,0.0,0.0,0.0,0.0,0.0,0.0,0.0,0.0,0.0,0.0,0.0,0.0,0.0,0.0,0.0,0.0,0.0,0.0,0.0,0.0,0.0,0.0,0.0,0.0,0.0,0.0,0.0,0.0,0.0,0.0,0.0,0.0,0.0,0.0,0.0,0.0,0.0,0.0,0.0,0.0,0.0,0.0,0.0,0.0,0.0,0.0,0.0,0.0,0.0,0.0,0.0,0.0,0.0,0.0,0.0,0.0,0.0,0.0,0.0,0.0,0.0,0.0,0.0,0.0,0.0,0.0,0.0,0.0,0.0,0.0,-0.1599,-0.1429,-0.1301,-0.1301,-0.1301,-0.139,-0.1589,-0.179,-0.1872,0.0,0.0,0.0,0.0,0.0,0.0,0.0,0.0,0.0,0.0,0.0,0.0,0.0,0.0,0.0,0.0,0.0,0.0,0.0,0.0,0.0,0.0,0.0,0.0,0.0,0.0,0.0,0.0,0.0,0.0,0.0,0.0,0.0,0.0,0.0,0.0,0.0,0.0,0.0,0.0,0.0,0.0,0.0,0.0,0.0,0.0,0.0,0.0,0.0,0.0,0.0,0.0,0.0,0.0,0.0,0.0,0.0,0.0,0.0,0.0,0.0,0.0,0.0,0.0,0.0,0.0,0.0,0.0,0.0,0.0,0.0,0.0,0.0,0.0,0.0,0.0,0.0,0.0,0.0,0.0,0.0,0.0,0.0,0.0,0.0,0.0,0.0,0.0,0.0,0.0,0.0,0.0,0.0,0.0,0.0,0.0,0.0,0.0,0.0,0.0,0.0,0.0,0.0,-0.1613,-0.1628,-0.1611,-0.1522,-0.1591,-0.1679,-0.1737,-0.1882,-0.1943,-0.1879,0.0,0.0,0.0,0.0,0.0,0.0,0.0,0.0,0.0,0.0,0.0,0.0,0.0,0.0,0.0,0.0,0.0,0.0,0.0,0.0,0.0,0.0,0.0,0.0,0.0,0.0,0.0,0.0,0.0,0.0,0.0,0.0,0.0,0.0,0.0,0.0,0.0,0.0,0.0,0.0,0.0,0.0,0.0,0.0,0.0,0.0,0.0,0.0,0.0,0.0,0.0,0.0,0.0,0.0,0.0,0.0,0.0,0.0,0.0,0.0,0.0,0.0,0.0,0.0,0.0,0.0,0.0,0.0,0.0,0.0,0.0,0.0,0.0,0.0,0.0,0.0,0.0,0.0,0.0,0.0,0.0,0.0,0.0,0.0,0.0,0.0,0.0,0.0,0.0,0.0,0.0,0.0,0.0,0.0,0.0,0.0,0.0,0.0,0.0,0.0,0.0,0.0,-0.1686,-0.1751,-0.1772,-0.1682,-0.1795,-0.1884,-0.1884,-0.2078,-0.2149,-0.2023,0.0,0.0,0.0,0.0,0.0,0.0,0.0,0.0,0.0,0.0,0.0,0.0,0.0,0.0,0.0,0.0,0.0,0.0,0.0,0.0,0.0,0.0,0.0,0.0,0.0,0.0,0.0,0.0,0.0,0.0,0.0,0.0,0.0,0.0,0.0,0.0,0.0,0.0,0.0,0.0,0.0,0.0,0.0,0.0,0.0,0.0,0.0,0.0,0.0,0.0,0.0,0.0,0.0,0.0,0.0,0.0,0.0,0.0,0.0,0.0,0.0,0.0,0.0,0.0,0.0,0.0,0.0,0.0,0.0,0.0,0.0,0.0,0.0,0.0,0.0,0.0,0.0,0.0,0.0,0.0,0.0,0.0,0.0,0.0,0.0,0.0,0.0,0.0,0.0,0.0,0.0,0.0,0.0,0.0,0.0,0.0,0.0,0.0,0.0,0.0,0.0,0.0,-0.1803,-0.1803,-0.1809,-0.1812,-0.1926,-0.2002,-0.2016,-0.2318,-0.2421,-0.2217,0.0,0.0,0.0,0.0,0.0,0.0,0.0,0.0,0.0,0.0,0.0,0.0,0.0,0.0,0.0,0.0,0.0,0.0,0.0,0.0,0.0,0.0,0.0,0.0,0.0,0.0,0.0,0.0,0.0,0.0,0.0,0.0,0.0,0.0,0.0,0.0,0.0,0.0,0.0,0.0,0.0,0.0,0.0,0.0,0.0,0.0,0.0,0.0,0.0,0.0,0.0,0.0,0.0,0.0,0.0,0.0,0.0,0.0,0.0,0.0,-0.197,0.0,0.0,0.0,0.0,0.0,0.0,0.0,0.0,0.0,0.0,0.0,0.0,0.0,0.0,0.0,0.0,0.0,0.0,0.0,0.0,0.0,0.0,0.0,0.0,0.0,0.0,0.0,0.0,0.0,0.0,0.0,0.0,0.0,0.0,0.0,0.0,0.0,0.0,0.0,0.0,0.0,-0.1803,-0.1803,-0.1839,-0.1947,-0.1979,-0.2046,-0.215,-0.2365,-0.2432,-0.2294,0.0,0.0,0.0,0.0,0.0,0.0,0.0,0.0,0.0,0.0,0.0,0.0,0.0,0.0,0.0,0.0,0.0,0.0,0.0,0.0,0.0,0.0,0.0,0.0,0.0,0.0,0.0,0.0,0.0,0.0,0.0,0.0,0.0,0.0,0.0,0.0,0.0,0.0,0.0,0.0,0.0,0.0,0.0,0.0,0.0,0.0,0.0,0.0,0.0,0.0,0.0,0.0,0.0,0.0,0.0,0.0,0.0,0.0,0.0,0.0,0.0,-0.2029,0.0,0.0,0.0,0.0,0.0,0.0,0.0,0.0,0.0,0.0,0.0,0.0,0.0,0.0,0.0,0.0,0.0,0.0,0.0,0.0,0.0,0.0,0.0,0.0,0.0,0.0,0.0,0.0,0.0,0.0,0.0,0.0,0.0,0.0,0.0,0.0,0.0,0.0,0.0,0.0,-0.1803,-0.1856,-0.1923,-0.1989,-0.215,-0.2269,-0.2333,-0.2491,-0.2558,-0.2494,-0.2418,0.0,0.0,0.0,0.0,0.0,0.0,0.0,0.0,0.0,0.0,0.0,0.0,0.0,0.0,0.0,0.0,0.0,0.0,0.0,0.0,0.0,0.0,0.0,0.0,0.0,0.0,0.0,0.0,0.0,0.0,0.0,0.0,0.0,0.0,0.0,0.0,0.0,0.0,0.0,0.0,0.0,0.0,0.0,0.0,0.0,0.0,0.0,0.0,0.0,0.0,0.0,0.0,0.0,-0.233,-0.2351,-0.2432,-0.2449,-0.2755,-0.3231,-0.2637,-0.2562,-0.2801,0.0,0.0,0.0,0.0,0.0,0.0,0.0,0.0,0.0,0.0,0.0,0.0,0.0,0.0,0.0,0.0,0.0,0.0,0.0,0.0,0.0,0.0,0.0,0.0,0.0,-0.3046,-0.3215,0.0,0.0,0.0,0.0,0.0,0.0,0.0,0.0,0.0,0.0,0.0,0.0,-0.187,-0.1994,-0.2089,-0.2089,-0.2383,-0.2567,-0.2543,-0.2672,-0.2764,-0.274,-0.2791,-0.2748,0.0,0.0,0.0,0.0,0.0,0.0,0.0,0.0,0.0,0.0,0.0,0.0,0.0,0.0,0.0,0.0,0.0,0.0,0.0,0.0,0.0,0.0,0.0,0.0,0.0,0.0,0.0,0.0,0.0,0.0,0.0,0.0,-0.282,-0.2505,0.0,0.0,0.0,0.0,0.0,0.0,0.0,0.0,0.0,0.0,0.0,0.0,0.0,0.0,-0.2511,-0.3121,-0.3371,-0.3242,-0.3677,-0.3986,-0.417,-0.3996,-0.4064,-0.4277,-0.4019,0.0,-0.2968,-0.3016,0.0,0.0,0.0,0.0,0.0,0.0,0.0,0.0,0.0,0.0,0.0,0.0,0.0,0.0,0.0,0.0,0.0,0.0,0.0,0.0,0.0,0.0,-0.3873,-0.3805,-0.3768,-0.3772,0.0,-0.3143,-0.2449,-0.2665,0.0,0.0,0.0,0.0,0.0,0.0,0.0,0.0,-0.2134,-0.2321,-0.2439,-0.2439,-0.2682,-0.2795,-0.2679,-0.2903,-0.299,-0.2886,-0.2879,-0.2901,-0.2926,-0.2627,0.0,0.0,0.0,0.0,0.0,0.0,0.0,0.0,0.0,0.0,0.0,0.0,0.0,0.0,0.0,0.0,0.0,0.0,0.0,0.0,0.0,0.0,0.0,0.0,0.0,0.0,0.0,0.0,0.0,-0.2851,-0.2706,-0.2777,-0.2641,-0.249,0.0,0.0,0.0,0.0,0.0,0.0,0.0,0.0,0.0,-0.2994,-0.2984,-0.3106,-0.3353,-0.3658,-0.3788,-0.373,-0.3981,-0.4126,-0.4216,-0.4321,-0.4358,-0.4355,-0.4517,-0.4294,-0.3826,-0.3546,-0.3207,-0.2899,0.0,0.0,0.0,0.0,0.0,-0.3136,-0.3603,-0.3561,0.0,0.0,0.0,0.0,0.0,0.0,0.0,0.0,0.0,0.0,0.0,0.0,0.0,-0.4102,-0.4158,-0.4232,-0.4341,-0.3955,-0.354,0.0,-0.337,-0.3178,-0.2606,0.0,0.0,0.0,0.0,0.0,-0.2211,-0.2379,-0.2532,-0.2603,-0.2778,-0.2913,-0.2927,-0.3027,-0.3074,-0.3013,-0.311,-0.3174,-0.317,-0.274,-0.2473,0.0,0.0,0.0,0.0,0.0,0.0,0.0,0.0,0.0,0.0,0.0,0.0,0.0,0.0,0.0,0.0,0.0,0.0,0.0,0.0,0.0,0.0,0.0,0.0,0.0,0.0,0.0,0.0,-0.2926,-0.2959,-0.3139,-0.3102,-0.2966,0.0,0.0,0.0,0.0,0.0,0.0,-0.2733,-0.2792,-0.3027,-0.3494,-0.3432,-0.3623,-0.4051,-0.4089,-0.4151,-0.4192,-0.4192,-0.4186,-0.423,-0.4467,-0.4484,-0.4409,-0.4702,-0.4755,-0.4573,-0.4129,-0.3901,-0.3808,-0.3598,-0.3497,-0.349,-0.3744,-0.3734,-0.3691,-0.4296,-0.4269,-0.3988,-0.4141,0.0,-0.373,-0.3458,0.0,0.0,0.0,0.0,-0.3648,-0.3839,-0.3972,-0.4092,-0.424,-0.4385,-0.4491,-0.4491,-0.4491,-0.4392,0.0,-0.3986,-0.3726,-0.2918,0.0,0.0,0.0,0.0,-0.2501,-0.2388,-0.2533,-0.2685,-0.2747,-0.2944,-0.309,-0.3101,-0.3172,-0.3185,-0.3108,-0.3266,-0.3334,-0.3252,-0.2792,-0.2559,-0.2573,0.0,0.0,0.0,0.0,0.0,0.0,0.0,0.0,0.0,0.0,0.0,0.0,0.0,0.0,0.0,0.0,0.0,0.0,0.0,0.0,0.0,0.0,0.0,0.0,0.0,0.0,0.0,0.0,0.0,-0.3588,-0.3558,0.0,0.0,0.0,0.0,-0.287,-0.3171,-0.3347,-0.335,-0.3718,-0.3873,-0.3794,-0.3896,-0.4023,-0.4184,-0.4372,-0.4542,-0.4657,-0.4657,-0.4731,-0.484,-0.4738,-0.4755,-0.4847,-0.4755,-0.4775,-0.4864,-0.4833,-0.468,-0.4457,-0.459,-0.4552,-0.4423,-0.444,-0.444,-0.444,-0.4477,-0.4477,-0.4481,-0.4609,-0.4477,-0.4251,-0.4169,-0.409,0.0,0.0,-0.4143,-0.4244,-0.4558,-0.4409,-0.4247,-0.4447,-0.4484,-0.4491,-0.4491,-0.4491,-0.4484,0.0,-0.4457,-0.4262,-0.3651,0.0,-0.3413,-0.2934,-0.2754,-0.2737,-0.2859,-0.298,-0.302,-0.291,-0.3286,-0.3429,-0.3125,-0.3388,-0.3432,-0.3118,-0.3226,-0.3242,-0.3118,-0.2832,-0.2538,-0.2231,-0.1733,0.0,0.0,0.0,0.0,0.0,0.0,0.0,0.0,0.0,0.0,0.0,0.0,0.0,0.0,0.0,0.0,0.0,0.0,0.0,0.0,0.0,0.0,0.0,0.0,0.0,0.0,0.0,0.0,-0.3872,-0.402,0.0,0.0,-0.3499,-0.3474,-0.3483,-0.366,-0.3847,-0.3962,-0.42,-0.4351,-0.439,-0.451,-0.4594,-0.4651,-0.4633,-0.4665,-0.4691,-0.4621,-0.46,-0.4655,-0.467,-0.4667,-0.4662,-0.4775,-0.4813,-0.4789,-0.4945,-0.4938,-0.4762,-0.4816,-0.4806,-0.4755,-0.4755,-0.4813,-0.4894,-0.4894,-0.4894,-0.4887,-0.485,-0.4765,-0.4674,-0.4651,-0.4643,-0.4613,-0.4635,-0.4651,-0.4651,-0.4687,-0.4684,-0.4614,-0.4525,-0.4566,-0.461,-0.4511,-0.4491,-0.4491,-0.4491,-0.4491,-0.4331,-0.3825,-0.388,-0.3802,-0.3297,-0.3331,-0.3402,-0.3344,-0.3385,-0.3432,-0.3473,-0.3563,-0.3612,-0.3671,-0.3626,-0.3455,-0.3118,-0.335,-0.3382,-0.3115,-0.2645,-0.2454,-0.2645,-0.1777,-0.1337,0.0,0.0,0.0,0.0,0.0,0.0,0.0,0.0,0.0,0.0,0.0,0.0,0.0,0.0,0.0,0.0,0.0,0.0,0.0,0.0,0.0,0.0,0.0,0.0,0.0,0.0,-0.4227,-0.4246,-0.4465,-0.4433,-0.4045,-0.4044,-0.4033,-0.3947,-0.4135,-0.4285,-0.4437,-0.4559,-0.469,-0.4759,-0.4857,-0.4887,-0.4887,-0.4819,-0.4769,-0.4765,-0.4641,-0.4566,-0.4573,-0.4646,-0.4662,-0.4583,-0.4809,-0.4891,-0.4853,-0.5019,-0.5073,-0.5067,-0.5067,-0.5067,-0.5067,-0.5067,-0.5128,-0.5209,-0.5209,-0.5209,-0.5192,-0.5101,-0.5067,-0.5067,-0.5067,-0.5067,-0.5057,-0.4975,-0.4924,-0.4867,-0.4796,-0.4806,-0.4802,-0.4653,-0.4694,-0.4741,-0.4665,-0.4644,-0.4644,-0.4644,-0.4559,-0.4378,-0.4005,-0.4089,-0.4051,-0.3597,-0.3648,-0.3666,-0.352,-0.3548,-0.3617,-0.3636,-0.3694,-0.38,-0.3927,-0.374,-0.352,-0.3218,-0.3461,-0.3417,-0.2971,-0.2539,-0.2393,-0.2599,-0.1643,-0.1188,-0.1325,0.0,0.0,0.0,0.0,0.0,0.0,0.0,0.0,0.0,0.0,0.0,0.0,0.0,0.0,0.0,0.0,0.0,0.0,0.0,0.0,0.0,0.0,0.0,-0.3947,-0.4601,-0.4999,-0.4752,-0.488,-0.4857,-0.4464,-0.4439,-0.4384,-0.4234,-0.454,-0.4727,-0.4727,-0.4846,-0.4911,-0.4911,-0.4904,-0.4904,-0.4904,-0.4897,-0.4894,-0.4894,-0.4775,-0.4701,-0.4697,-0.4704,-0.4701,-0.4707,-0.4853,-0.4965,-0.5093,-0.5096,-0.522,-0.5388,-0.5392,-0.5395,-0.5395,-0.5395,-0.5395,-0.5395,-0.5395,-0.5395,-0.5395,-0.5395,-0.5395,-0.5395,-0.5399,-0.5399,-0.5361,-0.5179,-0.5005,-0.4894,-0.4894,-0.4816,-0.4741,-0.4854,-0.4887,-0.4887,-0.4884,-0.4881,-0.4881,-0.4881,-0.4677,-0.4457,-0.426,-0.421,-0.4136,-0.386,-0.3713,0.0,-0.3356,-0.3503,-0.3537,-0.335,-0.3745,-0.3946,-0.3836,-0.376,-0.3627,-0.3428,-0.354,-0.335,-0.2752,-0.2574,-0.235,-0.1997,-0.1352,-0.0949,-0.0811,0.0,0.0,0.0,0.0,0.0,0.0,0.0,0.0,0.0,0.0,0.0,0.0,0.0,0.0,0.0,0.0,0.0,0.0,0.0,0.0,0.0,0.0,-0.5176,-0.4692,-0.4884,-0.5118,-0.512,-0.5267,-0.5259,-0.494,-0.4981,-0.5068,-0.5075,-0.5195,-0.5356,-0.549,-0.5427,-0.5406,-0.5406,-0.5298,-0.5272,-0.5272,-0.5128,-0.5042,-0.5042,-0.4999,-0.4924,-0.486,-0.4931,-0.4921,-0.486,-0.487,-0.4911,-0.4955,-0.5056,-0.5123,-0.5206,-0.5351,-0.5395,-0.5395,-0.5395,-0.5395,-0.5395,-0.5395,-0.5395,-0.5395,-0.5395,-0.5395,-0.5416,-0.5528,-0.5484,-0.5385,-0.5344,-0.5189,-0.5042,-0.5042,-0.5009,-0.4965,-0.4904,-0.4887,-0.486,-0.4775,-0.4755,-0.4755,-0.4755,-0.4775,-0.4745,-0.4596,-0.4568,-0.4504,-0.4334,-0.4155,0.0,-0.4098,-0.4063,-0.4045,-0.4084,-0.4122,-0.4225,-0.4421,-0.4221,-0.4005,0.0,-0.3783,-0.3593,-0.3208,-0.2755,-0.2309,-0.1876,-0.1347,-0.1123,0.0,0.0,0.0,0.0,0.0,0.0,0.0,0.0,0.0,0.0,0.0,0.0,0.0,0.0,0.0,0.0,0.0,0.0,0.0,0.0,0.0,0.0,-0.5354,-0.5486,-0.55,-0.5494,-0.5503,-0.5571,-0.5646,-0.5601,-0.5421,-0.5446,-0.5472,-0.5444,-0.5545,-0.5659,-0.58,-0.5725,-0.5677,-0.5677,-0.5569,-0.5521,-0.5579,-0.5396,-0.5352,-0.5376,-0.5352,-0.5247,-0.5108,-0.5189,-0.5145,0.0,-0.5142,-0.5199,-0.5209,-0.5352,-0.5577,0.0,0.0,0.0,0.0,0.0,-0.5542,-0.5498,-0.5559,-0.5542,-0.5501,-0.5562,-0.5579,-0.5597,-0.565,-0.5616,-0.5569,-0.5508,-0.5345,-0.5243,-0.5304,-0.5274,-0.5237,-0.5277,-0.5287,-0.5247,-0.5101,-0.5067,-0.505,-0.5013,0.0,0.0,-0.4901,-0.4772,-0.4619,-0.4406,-0.4354,-0.4327,-0.4312,-0.43,-0.4303,-0.4303,-0.4273,-0.4295,-0.4429,-0.4353,0.0,0.0,0.0,-0.3558,-0.2963,-0.2522,0.0,0.0,0.0,-0.1165,-0.1202,0.0,0.0,0.0,-0.1011,-0.1031,0.0,0.0,0.0,0.0,0.0,0.0,0.0,0.0,0.0,0.0,0.0,0.0,0.0,0.0,0.0,0.0,-0.5421,-0.5457,-0.6221,-0.6152,-0.602,-0.602,-0.5978,-0.5931,-0.5876,-0.5788,-0.5736,-0.5616,-0.5762,-0.5871,-0.5854,0.0,0.0,0.0,0.0,-0.5674,-0.58,-0.5677,-0.5671,-0.5776,-0.5684,-0.5552,-0.5423,-0.5436,-0.5335,-0.5187,-0.5477,-0.5599,-0.5623,-0.5749,-0.6237,-0.6805,-0.6031,-0.5693,-0.5606,-0.5732,-0.5698,-0.561,-0.5752,0.0,0.0,-0.5762,-0.58,-0.5803,-0.5823,-0.5817,-0.5776,-0.565,-0.5539,-0.5457,-0.5576,-0.5535,-0.5491,-0.5735,-0.5789,-0.5742,-0.5616,-0.5589,-0.5545,-0.5426,-0.5409,-0.5361,-0.5138,-0.4917,-0.4648,-0.4314,-0.4425,-0.4455,-0.4293,-0.4353,-0.4392,-0.4296,0.0,0.0,-0.416,-0.4351,-0.4215,-0.3582,-0.3764,-0.3431,-0.2328,-0.2089,-0.1694,-0.1136,-0.1167,-0.109,-0.0908,-0.0962,-0.0988,-0.1013,-0.1061,-0.1108,0.0,0.0,0.0,0.0,0.0,0.0,0.0,0.0,0.0,0.0,0.0,0.0,0.0,0.0,0.0,-0.6099,-0.5904,-0.585,-0.6399,-0.6344,-0.6255,-0.6255,-0.624,-0.6209,-0.6217,-0.6175,-0.6165,-0.6138,-0.6278,-0.633,-0.6214,-0.6211,0.0,-0.5952,-0.584,-0.5772,-0.58,-0.5776,-0.5718,-0.5633,0.0,0.0,-0.5549,-0.5664,-0.5698,-0.5667,-0.5613,-0.5654,-0.5762,-0.5789,-0.5947,-0.6213,-0.6456,-0.6169,-0.5593,-0.562,-0.5613,-0.561,-0.5752,-0.5783,-0.5766,-0.5793,-0.58,-0.5823,-0.5912,-0.5898,0.0,-0.5769,-0.5657,-0.5579,-0.5725,-0.5654,-0.5589,-0.5762,-0.5715,-0.5623,-0.5596,-0.5589,-0.5545,-0.5426,-0.5494,-0.5487,-0.5237,-0.5086,-0.4958,-0.478,-0.4701,-0.4677,-0.4743,-0.465,-0.4607,-0.4758,-0.4766,-0.4691,-0.4431,-0.4763,-0.4804,-0.446,-0.4162,-0.346,-0.2261,-0.1927,-0.1631,-0.1348,-0.1081,-0.0964,-0.0971,-0.0983,-0.0988,-0.0986,-0.0966,-0.0944,0.0,0.0,0.0,0.0,0.0,0.0,0.0,0.0,0.0,0.0,0.0,-0.4866,-0.5064,0.0,-0.5785,-0.6331,-0.6217,-0.6162,-0.6532,-0.6501,-0.6378,-0.631,-0.63,-0.63,-0.63,-0.6364,-0.6405,-0.6405,-0.647,-0.648,-0.6409,-0.6337,-0.6265,-0.6146,-0.5996,-0.5952,-0.603,-0.5956,-0.5881,-0.5813,-0.6037,-0.5949,-0.5596,-0.5921,-0.5906,-0.5698,-0.5994,-0.6031,-0.5922,-0.6437,-0.6446,-0.6197,-0.676,-0.6573,-0.5962,-0.5962,-0.5878,-0.583,-0.5979,-0.5983,-0.5928,-0.6006,-0.6067,-0.6044,-0.6122,-0.6091,-0.6047,-0.6118,-0.6108,-0.614,-0.6252,-0.6291,-0.6265,-0.6341,-0.6301,-0.619,-0.6003,-0.595,-0.5869,-0.5644,-0.5586,-0.561,-0.5656,-0.5427,-0.5194,-0.5064,-0.5048,-0.5046,-0.5008,-0.49,-0.4876,-0.499,-0.4918,-0.4796,-0.4673,-0.4472,-0.424,-0.3971,-0.3542,-0.2891,-0.1995,-0.183,-0.1568,-0.1148,-0.1018,-0.0973,-0.0988,-0.1003,-0.1003,-0.0988,-0.0973,-0.0928,0.0,0.0,0.0,0.0,0.0,0.0,0.0,0.0,-0.4635,-0.4636,-0.4741,-0.4965,-0.5401,-0.5552,-0.5818,-0.6453,-0.6436,-0.6433,-0.6664,-0.6546,-0.6429,-0.6313,-0.63,-0.6323,-0.6378,-0.6463,-0.6525,-0.6555,-0.6546,-0.6536,-0.6515,-0.6433,-0.6361,-0.6303,-0.6139,-0.6135,-0.6296,-0.6135,-0.6023,-0.5993,-0.6186,-0.6091,-0.5751,-0.6134,-0.6112,-0.5847,-0.638,-0.6408,-0.6163,-0.6976,-0.6898,-0.6363,-0.6832,-0.6715,-0.6296,-0.6265,-0.6135,-0.602,-0.6279,-0.622,-0.6135,-0.63,-0.634,-0.6334,-0.631,-0.63,-0.633,-0.6513,-0.6584,-0.6645,-0.6845,-0.6947,-0.6962,-0.7001,-0.6974,-0.6845,-0.6592,-0.6448,-0.6291,-0.6021,-0.5808,-0.5775,-0.6047,-0.5752,-0.5448,-0.5336,-0.5372,-0.5316,-0.5175,-0.5142,-0.508,-0.4944,-0.4892,-0.4834,-0.4754,-0.4097,-0.3556,-0.3265,-0.2873,-0.2372,-0.174,-0.1729,-0.1469,-0.093,-0.0984,-0.0997,-0.0997,-0.099,-0.0989,-0.0997,-0.0991,-0.0972,-0.7258,-0.6233,-0.5064,-0.5014,-0.4752,-0.4694,0.0,0.0,-0.5175,-0.5418,-0.5562,-0.5689,-0.5735,-0.6078,-0.646,-0.6637,-0.6549,-0.6549,-0.6675,-0.6501,-0.6317,-0.6303,-0.63,-0.6402,-0.6627,-0.6542,-0.6569,-0.6664,-0.68,-0.6759,-0.6525,-0.6586,-0.6532,-0.631,-0.6282,-0.6282,-0.63,-0.6282,-0.6166,-0.5993,-0.6186,-0.6273,-0.6235,-0.6266,-0.6419,-0.6666,-0.6678,-0.659,-0.6463,-0.656,-0.6491,-0.63,-0.6356,-0.636,-0.6282,-0.6105,-0.6006,-0.6033,-0.6352,-0.6477,-0.6467,-0.648,-0.6491,-0.6463,-0.6337,-0.63,-0.6369,-0.6676,-0.6624,-0.6645,-0.717,-0.72,-0.714,-0.7312,-0.7196,-0.7122,-0.7256,-0.6893,-0.657,-0.6513,-0.6194,-0.5979,-0.6082,-0.5919,-0.5777,-0.5828,-0.5543,-0.5294,-0.5274,-0.5281,-0.5019,-0.4375,-0.4747,-0.493,-0.4576,-0.4167,-0.3792,-0.3392,-0.3058,-0.2535,-0.1831,-0.1578,-0.1297,-0.0991,-0.0994,-0.0996,-0.0996,-0.1,-0.1,-0.0996,-0.1001,-0.0972,-0.6987,-0.6607,-0.615,0.0,-0.5416,-0.5363,-0.5858,-0.5884,-0.5885,-0.5983,-0.6129,-0.6193,-0.6193,-0.642,-0.6597,0.0,-0.6586,-0.6597,-0.6569,-0.6429,-0.63,-0.63,-0.6179,-0.621,-0.6463,-0.6501,-0.6538,-0.6563,-0.6627,-0.6607,-0.6518,-0.6494,-0.6426,-0.6303,-0.63,-0.63,-0.63,-0.63,-0.6183,-0.5993,-0.6186,-0.6208,-0.6011,-0.6398,-0.6763,-0.7063,-0.6798,-0.6743,-0.6763,-0.6685,-0.6519,-0.6422,-0.6422,-0.6422,-0.6416,-0.6312,-0.6285,-0.6318,-0.6532,-0.6607,-0.6631,-0.6666,-0.6738,-0.6843,-0.6674,-0.677,-0.6976,-0.7123,-0.7252,-0.742,-0.7617,-0.7758,-0.7773,-0.7755,-0.7673,-0.7601,-0.7593,-0.7295,-0.701,-0.6777,-0.6419,-0.622,-0.6364,-0.6047,-0.5875,-0.6109,-0.5755,-0.5476,-0.5486,-0.5302,-0.4997,-0.4497,-0.4649,-0.4569,-0.4039,-0.384,-0.3607,-0.3198,-0.2812,-0.2415,-0.1933,-0.1572,-0.1286,-0.1007,-0.0992,-0.0993,-0.1007,-0.0993,-0.1001,-0.1001,-0.0989,-0.0976,-0.7033,-0.6954,0.0,-0.6268,-0.5941,-0.5877,-0.6199,-0.6313,-0.6357,-0.6367,-0.6474,-0.6562,-0.6518,-0.6597,-0.6664,-0.6552,-0.6593,-0.66,-0.6528,-0.639,-0.6308,-0.6308,-0.6136,-0.6105,-0.6294,-0.6402,-0.6528,-0.6573,-0.6536,-0.6555,-0.6515,-0.6416,-0.634,-0.6303,-0.63,-0.63,-0.63,-0.6337,-0.6282,-0.6095,-0.6286,-0.6242,-0.6077,-0.6655,-0.7032,-0.7264,-0.693,-0.6881,-0.6968,-0.6805,-0.6671,-0.6536,-0.6536,-0.6536,-0.6539,-0.6583,-0.6569,-0.6596,-0.6791,-0.6846,-0.6868,-0.7007,-0.7125,-0.7206,-0.7088,-0.7214,-0.742,-0.7549,-0.7766,-0.7994,-0.8123,-0.8297,-0.8376,-0.8237,-0.8199,-0.8124,-0.796,-0.77,-0.7394,-0.7167,-0.6863,-0.6619,-0.6656,-0.6307,-0.6072,-0.6284,-0.5889,-0.5594,-0.56,-0.5168,-0.4723,-0.442,-0.4282,-0.3954,-0.3282,-0.3287,-0.3123,-0.2705,-0.2313,-0.2041,-0.1857,-0.1461,-0.1192,-0.0988,-0.101,-0.101,-0.0988,-0.0987,-0.1001,-0.1002,-0.1009,-0.1008,-0.7926,0.0,-0.7,-0.6509,-0.6084,-0.5934,-0.6375,-0.648,-0.6491,-0.6504,-0.6586,-0.6647,-0.6542,-0.6597,-0.6698,-0.6695,-0.6573,-0.6518,-0.6511,-0.6371,-0.6288,-0.6288,-0.6197,-0.6165,0.0,-0.6415,-0.6573,-0.6681,-0.6695,-0.6627,-0.6521,-0.6508,-0.6443,-0.6303,-0.63,-0.63,-0.63,-0.6436,-0.6433,-0.6293,-0.6436,-0.6584,-0.6791,-0.7066,-0.7211,-0.7179,-0.7108,-0.7004,-0.6922,-0.6879,-0.6831,-0.6695,-0.6695,-0.6695,-0.6712,-0.6861,-0.682,-0.6757,-0.7162,-0.73,-0.73,-0.7506,-0.7588,-0.7562,-0.7443,-0.7402,-0.7484,-0.7858,-0.7938,-0.8018,-0.8624,-0.8746,-0.8687,-0.8746,-0.867,-0.8596,-0.8596,-0.8098,-0.7733,-0.7909,-0.7628,-0.7256,-0.686,-0.6656,-0.6527,-0.6336,-0.5916,-0.5592,-0.5611,-0.4797,-0.4114,-0.3852,-0.3463,-0.3007,-0.2403,-0.2461,-0.2337,-0.1858,-0.1592,-0.1417,-0.1417,-0.1092,-0.0928,-0.0988,-0.0989,-0.0989,-0.0988,-0.0987,-0.1001,-0.1002,-0.1061,-0.106,-0.7568,0.0,-0.6877,-0.6449,-0.6291,-0.6312,-0.6566,-0.6624,-0.6597,-0.6532,-0.6828,-0.7021,-0.6813,-0.6805,-0.6847,-0.6847,-0.6446,-0.6213,-0.6358,-0.6433,-0.6404,-0.6149,-0.6409,0.0,0.0,0.0,0.0,-0.6436,-0.6535,-0.6566,-0.6515,-0.6569,-0.6556,-0.6446,-0.6443,-0.6395,-0.6303,-0.6443,-0.6443,-0.63,-0.6347,-0.6528,-0.686,-0.686,-0.6967,-0.7112,-0.7119,-0.7068,-0.7024,-0.7024,-0.694,-0.6851,-0.6851,-0.6851,-0.6858,-0.6866,-0.6913,-0.7,-0.7138,-0.7418,-0.7665,-0.764,-0.7759,-0.7974,-0.7859,-0.798,-0.8201,-0.818,-0.8333,-0.8522,-0.8759,-0.8862,-0.8983,-0.8973,-0.8962,-0.8885,-0.8763,-0.8504,-0.8236,-0.8052,-0.7773,-0.751,-0.7256,-0.7064,-0.6783,-0.636,-0.5992,-0.5629,-0.5295,-0.4913,-0.4545,-0.4228,-0.3636,-0.3138,-0.2801,-0.2447,-0.2162,-0.2006,-0.1669,-0.1457,-0.1457,-0.1155,-0.0969,-0.0928,-0.0978,-0.0969,-0.0928,-0.0928,-0.0943,-0.0943,-0.0952,-0.0993,-0.7237,-0.7108,-0.6968,-0.6605,-0.6525,-0.6593,-0.6749,-0.6658,-0.6498,-0.6346,-0.6719,-0.7021,-0.6759,-0.6706,-0.6761,-0.6892,-0.6369,-0.6033,-0.6336,-0.6429,-0.6455,-0.6409,-0.6634,0.0,0.0,0.0,0.0,-0.6409,-0.66,-0.665,-0.6515,-0.6617,-0.6654,-0.6556,-0.6552,-0.6512,-0.646,-0.6563,-0.659,-0.6498,-0.6498,-0.6651,-0.6883,-0.6878,-0.6916,-0.7095,-0.7095,-0.7095,-0.7095,-0.7095,-0.7045,-0.696,-0.696,-0.696,-0.696,-0.696,-0.7108,-0.7231,-0.7231,-0.7544,-0.7881,-0.7812,-0.8067,-0.8337,-0.8237,-0.8418,-0.8633,-0.8511,-0.8735,-0.9011,-0.9011,-0.9149,-0.9223,-0.9111,-0.9142,-0.912,-0.8736,-0.8645,-0.8561,-0.8253,-0.813,-0.7946,-0.7674,-0.7349,-0.6982,-0.6556,-0.6208,-0.5805,-0.5273,-0.5147,-0.4884,-0.4362,-0.3687,-0.3126,-0.274,-0.2096,-0.1696,-0.1695,-0.1443,-0.1297,-0.1282,-0.1074,-0.0947,-0.0898,-0.0946,-0.0937,-0.0898,-0.0899,-0.0913,-0.0914,-0.0935,-0.101,-0.7032,-0.7088,-0.721,-0.6954,-0.6824,-0.6746,-0.6825,-0.6559,-0.6238,-0.6057,-0.6384,-0.668,0.0,0.0,-0.6531,-0.6891,-0.6302,-0.5969,-0.643,-0.6403,-0.6533,0.0,0.0,0.0,0.0,0.0,0.0,-0.6677,0.0,-0.6932,-0.6542,-0.6641,-0.6719,-0.6712,-0.6712,-0.6709,-0.6702,-0.6844,-0.6883,-0.6896,-0.6879,-0.6883,-0.6903,-0.7028,-0.7088,-0.7095,-0.7095,-0.7095,-0.7095,-0.7095,-0.7095,-0.7095,-0.7095,-0.7095,-0.7095,-0.7095,-0.7279,-0.7462,-0.7462,-0.768,-0.794,-0.8113,-0.838,-0.8612,-0.862,-0.869,-0.8824,-0.8832,-0.9084,-0.9404,-0.9404,-0.949,-0.9485,-0.9123,-0.9176,-0.9176,-0.8559,-0.8621,-0.875,-0.8669,-0.8633,-0.848,-0.8084,-0.7522,-0.7081,-0.6941,-0.6583,-0.6128,-0.5497,-0.5399,-0.5068,-0.4246,-0.3617,-0.2973,-0.2358,-0.1562,-0.1096,-0.1061,-0.1007,-0.0931,-0.0901,-0.0901,-0.0901,-0.09,-0.09,-0.09,-0.09,-0.09,-0.0914,-0.0917,-0.0973,-0.1205,-0.7345,-0.7199,-0.7017,-0.7031,-0.6933,-0.6793,-0.6498,-0.6374,-0.6283,-0.6157,-0.6667,-0.7233,0.0,0.0,0.0,-0.7293,-0.6561,0.0,-0.6448,-0.6825,0.0,-0.7092,0.0,-0.742,-0.7587,-0.753,0.0,0.0,-0.7222,-0.7105,-0.6814,-0.6906,-0.6937,-0.6832,-0.6829,-0.6817,-0.6702,-0.6739,-0.6868,-0.7041,-0.6865,-0.6875,-0.7041,-0.697,-0.6997,-0.7095,-0.7095,-0.7095,-0.7095,-0.7095,-0.7095,-0.7095,-0.7095,-0.7095,-0.7095,-0.7095,-0.7143,-0.7187,-0.7187,-0.7628,-0.8113,-0.8028,-0.8252,-0.8637,-0.8718,-0.8787,-0.8848,-0.8991,-0.9185,-0.9404,-0.9404,-0.9344,-0.927,-0.9178,-0.9064,-0.895,-0.8838,-0.889,-0.8934,-0.8948,-0.8852,-0.8702,-0.8484,-0.8052,-0.7676,-0.7327,-0.6983,-0.6511,-0.5859,-0.5564,-0.5268,-0.489,-0.426,-0.3774,-0.3566,-0.2977,-0.2399,-0.1782,-0.179,-0.1533,-0.0932,-0.0953,-0.0954,-0.0903,-0.0902,-0.0902,-0.0902,-0.091,-0.0924,-0.0977,-0.1239,-0.1427,-0.7118,-0.708,-0.6997,-0.7078,-0.6889,-0.6726,-0.6755,-0.6302,-0.595,-0.6045,-0.6632,0.0,0.0,0.0,0.0,0.0,0.0,0.0,-0.6532,-0.6866,-0.7104,0.0,-0.7378,0.0,-0.775,-0.7744,-0.7634,0.0,-0.7408,-0.7256,-0.6932,-0.7018,-0.7058,-0.698,-0.6977,-0.6937,-0.6895,-0.6963,-0.7044,-0.7095,-0.693,-0.6937,-0.7092,-0.7014,-0.7021,-0.7095,0.0,-0.7095,-0.7095,-0.7095,-0.7095,-0.7095,-0.7095,-0.7095,-0.7095,-0.7095,-0.7095,-0.7095,-0.7095,-0.7452,-0.7896,-0.79,-0.812,-0.846,-0.8722,-0.8877,-0.8978,-0.9161,-0.934,-0.9474,-0.9332,-0.9261,-0.9137,-0.8886,-0.8829,-0.878,-0.8817,-0.8927,-0.8997,-0.8977,-0.8832,-0.8633,-0.8444,-0.8284,-0.8012,-0.7687,-0.7325,-0.6923,-0.639,-0.5908,-0.5527,-0.5342,-0.4644,-0.4181,-0.4137,-0.3624,-0.3067,-0.2563,-0.2318,-0.1953,-0.1444,-0.1162,-0.098,-0.0933,-0.0946,-0.0952,-0.0952,-0.0952,-0.0967,-0.1059,-0.1203,-0.1457,-0.6791,-0.6976,-0.7119,-0.7078,-0.679,-0.6615,-0.7122,-0.6268,-0.5512,-0.59,0.0,-0.6519,-0.5808,-0.6272,-0.6711,-0.6474,0.0,-0.6072,-0.6622,-0.6727,-0.6936,-0.7453,-0.7382,-0.7436,-0.7841,-0.7875,-0.7746,-0.7507,-0.748,-0.7335,-0.6963,-0.7031,-0.7105,-0.7125,-0.7125,-0.7136,-0.7156,-0.7333,-0.7326,-0.7125,-0.7125,-0.7115,-0.7095,-0.7095,-0.7095,-0.7095,0.0,0.0,-0.7125,-0.7105,-0.7109,-0.7125,-0.7105,-0.7095,-0.7095,-0.7095,-0.7095,-0.7095,-0.7095,-0.7234,-0.7503,-0.7768,-0.8,-0.8267,-0.8619,-0.889,-0.9075,-0.9244,-0.9405,-0.943,-0.9232,-0.9133,-0.8985,-0.8535,-0.8581,-0.8738,-0.865,-0.8846,-0.8981,-0.8862,-0.869,-0.8468,-0.8236,-0.8226,-0.815,-0.7913,-0.7589,-0.7283,-0.6917,-0.6343,-0.5877,-0.5655,-0.4947,-0.4512,-0.4514,-0.4017,-0.3619,-0.3404,-0.2799,-0.2344,-0.2123,-0.1411,-0.1004,-0.1,-0.0998,-0.1012,-0.1012,-0.1012,-0.106,-0.1121,-0.1162,-0.1527,-0.7214,-0.7292,-0.7272,-0.6984,-0.6715,-0.657,-0.6742,-0.6029,0.0,0.0,-0.6177,-0.6052,-0.6481,-0.631,0.0,-0.6599,0.0,0.0,0.0,0.0,-0.7222,0.0,0.0,0.0,0.0,0.0,0.0,0.0,0.0,0.0,-0.7068,-0.7082,-0.7156,-0.7326,-0.7329,-0.739,-0.7519,-0.7546,-0.7485,-0.7329,-0.7329,-0.7265,-0.7095,-0.7095,-0.7095,-0.7095,0.0,0.0,-0.7322,-0.7149,-0.7214,-0.7319,-0.7146,-0.7095,-0.7095,-0.7095,-0.7095,-0.7095,-0.7095,-0.7139,-0.7231,-0.7503,-0.7815,-0.8136,-0.834,-0.8509,-0.8727,-0.8886,-0.8901,-0.8924,-0.8878,-0.873,-0.8535,-0.8432,-0.8432,-0.8524,-0.8738,-0.8874,-0.9004,-0.8993,-0.8544,-0.8155,-0.8106,-0.8056,-0.7897,-0.7668,-0.7526,-0.7263,-0.686,-0.6491,-0.6117,-0.5812,-0.5632,-0.5554,-0.5545,-0.5451,-0.5105,-0.4482,-0.3659,-0.2927,-0.2285,-0.149,-0.1086,-0.1094,-0.109,-0.1071,-0.1071,-0.1071,-0.1121,-0.1187,-0.1788,-0.2122,-0.7231,-0.7309,-0.7302,-0.7004,-0.6583,-0.6352,-0.6724,0.0,0.0,0.0,-0.5908,-0.5649,-0.5529,0.0,0.0,0.0,0.0,0.0,0.0,0.0,0.0,0.0,0.0,0.0,0.0,0.0,0.0,0.0,0.0,0.0,-0.7258,-0.7336,-0.7377,-0.7415,-0.7519,-0.756,-0.7482,-0.7634,-0.7634,-0.7492,-0.7492,-0.7451,-0.7377,-0.7295,-0.7302,-0.7377,-0.7295,0.0,-0.7478,-0.7326,-0.7305,-0.7402,-0.72,-0.7146,-0.7251,-0.7125,-0.7146,-0.7248,-0.7125,-0.7095,-0.7139,-0.7234,-0.7561,-0.7945,-0.8195,-0.8456,-0.8624,-0.878,-0.8825,-0.8775,-0.8627,-0.8482,-0.8382,-0.8233,-0.8287,-0.8432,-0.8577,-0.8702,-0.8756,-0.8665,-0.8359,-0.8034,-0.7814,-0.7864,-0.7826,-0.7574,-0.7482,-0.7297,-0.7011,-0.6681,-0.631,-0.5935,-0.5847,-0.58,-0.58,-0.5874,-0.5709,-0.5316,-0.4632,-0.4038,-0.3565,-0.2448,-0.182,-0.1788,-0.1369,-0.1168,-0.1168,-0.1168,-0.1184,-0.125,-0.1586,-0.1881,-0.7248,-0.7323,-0.7292,-0.6963,-0.6411,-0.6152,-0.6686,-0.5779,0.0,0.0,-0.5514,-0.5184,-0.4467,0.0,-0.5486,0.0,0.0,0.0,0.0,0.0,0.0,0.0,0.0,0.0,0.0,0.0,0.0,0.0,0.0,0.0,-0.7409,-0.7485,-0.7526,-0.7468,-0.7689,-0.7716,-0.7516,-0.7743,-0.7787,-0.7645,-0.7645,-0.7631,-0.7597,-0.7475,-0.7485,-0.7594,-0.7472,0.0,0.0,-0.7448,-0.7436,-0.7404,-0.7251,-0.7244,-0.7316,-0.7258,-0.7295,-0.7405,-0.7268,-0.7193,-0.7193,-0.7193,-0.7406,-0.776,-0.8066,-0.8292,-0.8474,-0.8594,-0.8627,-0.8577,-0.8382,-0.8333,-0.8283,-0.8137,-0.8237,-0.8432,-0.8482,-0.851,-0.8446,-0.8276,-0.8072,-0.7824,-0.7487,-0.7591,-0.7676,-0.7459,-0.735,-0.7253,-0.7079,-0.6765,-0.6447,-0.6135,-0.5989,-0.5901,-0.5901,-0.601,-0.6027,-0.5908,-0.5392,-0.4974,-0.4787,-0.3339,-0.2551,-0.2566,-0.177,-0.1373,-0.1489,-0.1489,-0.1464,-0.1412,-0.1472,-0.1693,-0.7678,-0.7538,-0.7313,-0.6831,-0.6373,-0.6096,-0.6371,0.0,0.0,-0.5316,-0.4884,-0.4428,-0.4472,-0.4553,-0.4758,-0.5204,0.0,-0.5771,0.0,0.0,0.0,0.0,0.0,0.0,0.0,0.0,0.0,0.0,0.0,0.0,0.0,-0.7433,-0.7509,-0.7763,-0.7797,-0.7865,-0.7928,-0.7955,-0.7894,-0.779,-0.779,-0.7726,-0.76,-0.7587,-0.7587,-0.76,0.0,0.0,0.0,-0.7489,-0.7455,-0.7563,-0.7411,-0.7275,-0.7149,-0.7461,-0.7478,-0.7436,-0.7512,-0.7556,-0.7556,-0.7556,-0.7567,-0.7627,-0.7641,-0.7842,-0.8071,-0.8084,-0.8088,-0.8088,-0.8038,-0.8038,-0.8088,-0.8333,-0.8382,-0.8482,-0.8726,-0.851,-0.8209,-0.8048,-0.7706,-0.7413,-0.7166,-0.7139,-0.7183,-0.7143,-0.7007,-0.6951,-0.6909,-0.6682,-0.6487,-0.6474,-0.634,-0.6255,-0.6255,-0.6269,-0.6272,-0.6259,-0.5632,-0.5184,-0.4995,-0.3562,-0.2851,-0.3047,-0.2238,-0.2032,-0.2384,-0.2384,-0.2192,-0.1843,-0.2225,-0.217,-0.7271,-0.7337,-0.731,-0.6814,-0.6489,-0.6225,-0.5931,0.0,-0.4919,-0.5222,-0.4754,-0.4406,-0.4745,-0.4631,-0.4722,-0.5427,-0.541,0.0,0.0,0.0,0.0,0.0,0.0,0.0,0.0,0.0,0.0,0.0,0.0,0.0,0.0,-0.7539,-0.7651,-0.7682,-0.7855,-0.7884,-0.7902,-0.7944,-0.7961,-0.7897,-0.7897,-0.787,-0.7862,-0.777,-0.7777,-0.7858,0.0,0.0,0.0,-0.7631,-0.7594,-0.7702,-0.7465,-0.7441,-0.755,-0.7587,-0.7614,-0.7634,-0.7607,-0.76,-0.76,-0.76,-0.7658,-0.7726,-0.7726,-0.7872,-0.7988,-0.7988,-0.7988,-0.7988,-0.7988,-0.7988,-0.8038,-0.8137,-0.8137,-0.8187,-0.8287,-0.8188,-0.8052,-0.7897,-0.7701,-0.7461,-0.7305,-0.7204,-0.7095,-0.7095,-0.6977,-0.6886,-0.6886,-0.6742,-0.6573,-0.6521,-0.6385,-0.63,-0.63,-0.63,-0.63,-0.63,-0.6153,-0.603,-0.5965,-0.4669,-0.3984,-0.4045,-0.2884,-0.2353,-0.2511,-0.2275,-0.2038,-0.1882,-0.1804,-0.1736,-0.6955,-0.7165,-0.7191,-0.6826,-0.657,-0.6202,0.0,0.0,-0.4893,-0.4923,-0.4607,-0.4447,-0.4918,-0.4799,-0.4931,-0.5765,-0.5667,-0.5757,-0.6515,0.0,0.0,0.0,0.0,0.0,0.0,0.0,0.0,0.0,0.0,0.0,0.0,-0.7587,-0.7723,-0.7665,-0.7865,-0.7891,-0.7879,-0.7934,-0.7988,-0.7988,-0.7988,-0.7988,-0.7985,-0.7877,-0.7887,-0.7985,0.0,0.0,0.0,-0.7767,-0.7723,-0.779,-0.7584,-0.7604,-0.7746,-0.7736,-0.7763,-0.7804,-0.775,-0.7729,-0.7729,-0.7729,-0.7797,-0.7879,-0.7879,-0.7904,-0.7988,-0.7988,-0.7988,-0.7988,-0.7988,-0.7988,-0.7988,-0.7988,-0.7988,-0.7988,-0.7988,-0.7988,-0.7944,-0.7841,-0.7729,-0.76,-0.745,-0.7282,-0.7149,-0.7102,-0.7011,-0.6947,-0.6947,-0.6861,-0.6725,-0.6617,-0.6518,-0.6395,-0.6306,-0.6456,-0.651,-0.638,-0.6656,-0.6798,-0.671,-0.5644,-0.4988,-0.4882,-0.364,-0.294,-0.2901,-0.2586,-0.2313,-0.2078,-0.1805,-0.1667,-0.7025,-0.7034,-0.6965,-0.6843,-0.6438,-0.597,0.0,0.0,-0.4545,-0.4349,-0.4298,-0.4447,-0.4918,-0.4988,-0.5304,-0.624,-0.6393,-0.6396,0.0,0.0,0.0,0.0,0.0,0.0,0.0,0.0,0.0,0.0,0.0,0.0,0.0,-0.7434,-0.7665,-0.7804,-0.7811,-0.7885,-0.7985,-0.7988,-0.7988,-0.7988,-0.7988,-0.7988,-0.7988,-0.7988,-0.7988,0.0,0.0,0.0,0.0,-0.7872,-0.7811,-0.7811,-0.7807,-0.7723,-0.7638,-0.788,-0.7891,-0.7831,-0.7934,-0.7985,-0.7985,-0.7985,-0.7985,-0.7988,-0.7988,-0.7988,-0.7988,-0.7988,-0.7988,-0.7988,-0.7988,-0.7988,-0.7988,-0.7988,-0.7988,-0.7988,-0.7988,-0.7988,-0.7944,-0.7841,-0.7811,-0.7716,-0.7467,-0.7415,-0.7316,-0.7119,-0.7095,-0.7095,-0.7095,-0.697,-0.6883,-0.6879,-0.6787,-0.6576,-0.6323,-0.6767,-0.6931,-0.662,-0.7096,-0.7226,-0.6907,-0.6234,-0.5696,-0.5321,-0.4499,-0.3992,-0.3802,-0.3763,-0.3333,-0.2511,-0.247,-0.2247,-0.5952,-0.6145,-0.6237,-0.5971,-0.5879,-0.5682,-0.5089,0.0,-0.4868,-0.4781,-0.4513,-0.4447,-0.4918,-0.5009,-0.5321,-0.6317,-0.6417,-0.6509,0.0,0.0,0.0,0.0,0.0,0.0,0.0,0.0,0.0,0.0,0.0,0.0,0.0,-0.7333,-0.7512,-0.7662,-0.7862,-0.7941,-0.7988,-0.7988,-0.7988,-0.7988,-0.7988,-0.7988,-0.7988,-0.7988,0.0,0.0,0.0,0.0,0.0,-0.7875,-0.7811,-0.7811,-0.7811,-0.7784,-0.777,-0.7917,-0.7961,-0.7924,-0.7971,-0.7988,-0.7988,-0.7988,-0.7988,-0.7988,-0.7988,-0.7988,-0.7988,-0.7988,-0.8116,-0.8174,-0.8015,-0.8116,-0.817,-0.8015,-0.7988,-0.7988,-0.7988,-0.7988,-0.7975,-0.7928,-0.7804,-0.7638,-0.7543,-0.7353,-0.7152,-0.7102,-0.7095,-0.7095,-0.7095,-0.7058,-0.6994,-0.6896,-0.693,-0.6924,-0.6868,-0.7014,-0.7063,-0.6932,-0.724,-0.7312,-0.7107,-0.6633,-0.6325,-0.6173,-0.5085,-0.4465,-0.4426,-0.3686,-0.3034,-0.245,-0.2491,-0.2401,-0.521,-0.5586,-0.5813,-0.5605,-0.5557,-0.5421,0.0,0.0,-0.4795,-0.4745,-0.4639,-0.4622,-0.4845,-0.5165,-0.5556,-0.6079,-0.6371,0.0,0.0,0.0,0.0,0.0,0.0,0.0,0.0,0.0,0.0,0.0,0.0,0.0,0.0,0.0,-0.7556,-0.7597,-0.7831,-0.7931,-0.7988,-0.7988,-0.7988,-0.7988,-0.7988,-0.7988,-0.7988,-0.7988,0.0,0.0,0.0,0.0,0.0,-0.7887,-0.7865,-0.7818,-0.7875,-0.7862,-0.7831,-0.7934,-0.7988,-0.7988,-0.7988,-0.7988,-0.7988,-0.7988,-0.7988,-0.7988,-0.7988,-0.7988,-0.7988,-0.7988,-0.8109,-0.816,-0.8015,-0.8109,-0.816,-0.8012,-0.7988,-0.7988,-0.7988,-0.7988,-0.7988,-0.7988,-0.7843,-0.7729,-0.7617,-0.7441,-0.723,-0.7112,-0.7187,-0.7231,-0.7095,-0.7187,-0.7197,-0.6974,-0.7045,-0.7152,-0.7222,-0.7335,-0.7366,-0.7344,-0.7527,-0.7529,-0.7282,-0.7043,-0.6809,-0.657,-0.5547,-0.4938,-0.4863,-0.3711,-0.2986,-0.2648,-0.2752,-0.2746,0.0,-0.5226,-0.5515,-0.547,-0.5361,-0.5159,-0.4844,0.0,0.0,-0.431,-0.4622,-0.4869,-0.47,-0.538,-0.5869,-0.5653,-0.6271,0.0,0.0,0.0,0.0,0.0,0.0,0.0,0.0,0.0,0.0,0.0,0.0,0.0,0.0,0.0,-0.774,-0.7617,-0.7753,-0.7896,-0.7988,-0.7988,-0.7988,-0.7988,-0.7988,-0.7988,-0.7988,-0.7988,0.0,0.0,0.0,0.0,0.0,-0.7988,-0.7894,-0.7814,-0.7928,-0.7891,-0.7818,-0.7931,-0.7988,-0.7988,-0.7988,-0.7988,-0.7988,-0.7988,-0.7988,-0.7988,-0.7988,-0.7988,-0.7988,-0.7988,-0.7995,-0.8005,-0.7992,-0.7998,-0.8005,-0.7992,-0.7988,-0.7988,-0.7988,-0.7988,-0.7988,-0.7988,-0.7971,-0.7874,-0.7648,-0.7584,-0.7472,-0.7183,-0.7323,-0.7418,-0.72,-0.7374,-0.7418,-0.7156,-0.7146,-0.7231,-0.7462,-0.7724,-0.7805,-0.7729,-0.7867,-0.7784,-0.7433,-0.7397,-0.7114,-0.6577,-0.5857,-0.5403,-0.5113,-0.3901,-0.3299,-0.3149,-0.3303,-0.3297,-0.3522,0.0,-0.4556,-0.4354,-0.4413,-0.4503,0.0,-0.4264,0.0,0.0,0.0,0.0,0.0,-0.4971,-0.5501,0.0,0.0,0.0,0.0,0.0,0.0,0.0,0.0,0.0,0.0,0.0,0.0,0.0,0.0,0.0,0.0,0.0,-0.7685,-0.7756,-0.786,-0.7955,-0.7988,-0.7988,-0.7988,-0.7988,-0.7988,-0.7988,-0.7988,-0.7988,0.0,0.0,0.0,0.0,-0.7988,-0.7988,-0.7885,-0.7675,-0.7887,-0.7879,-0.7682,-0.7894,-0.7988,-0.7988,-0.7988,-0.7988,-0.7988,-0.7988,-0.7988,-0.7988,-0.7988,-0.7988,-0.7988,-0.7988,-0.8126,-0.8187,-0.8019,-0.8126,-0.8187,-0.8019,-0.7988,-0.7988,-0.7988,-0.7988,-0.7988,-0.7988,-0.7855,-0.7682,-0.7611,-0.7404,-0.7269,-0.7381,-0.7459,-0.7594,-0.7847,-0.7845,-0.7768,-0.7663,-0.7481,-0.7415,-0.7507,-0.7551,-0.7683,-0.7862,-0.7758,-0.762,-0.7397,-0.7397,-0.73,-0.7048,-0.6172,-0.5528,-0.5113,-0.4259,-0.379,-0.371,-0.3796,-0.379,-0.2932,-0.3577,-0.4168,-0.4034,-0.4099,-0.4236,-0.4298,0.0,0.0,0.0,0.0,0.0,0.0,0.0,0.0,0.0,0.0,0.0,0.0,0.0,0.0,0.0,0.0,0.0,0.0,0.0,0.0,0.0,0.0,0.0,0.0,0.0,-0.7743,-0.7614,-0.7889,-0.7988,-0.7988,-0.7988,-0.7988,-0.7988,-0.7988,-0.7988,-0.7988,-0.7988,0.0,0.0,0.0,0.0,-0.7988,-0.7988,-0.7853,-0.7719,-0.7901,-0.785,-0.7726,-0.7904,-0.7988,-0.7988,-0.7988,-0.7988,-0.7988,-0.7988,-0.7988,-0.7988,-0.7988,-0.7988,-0.7988,-0.7988,-0.8099,-0.8143,-0.8012,-0.8102,-0.8143,-0.8008,-0.7988,-0.7988,-0.7988,-0.7988,-0.7988,-0.7988,-0.7864,-0.778,-0.7709,-0.756,-0.7428,-0.7549,-0.7629,-0.7749,-0.7838,-0.7907,-0.7885,-0.788,-0.7612,-0.752,-0.7748,-0.7438,-0.7476,-0.8025,-0.7772,-0.7563,-0.7506,-0.7393,-0.7108,-0.6534,-0.6147,-0.5518,-0.4576,-0.4246,-0.4053,-0.3963,-0.397,-0.3946,-0.2765,-0.3487,-0.4148,-0.4142,-0.4194,-0.429,-0.439,0.0,0.0,0.0,0.0,0.0,0.0,0.0,0.0,0.0,0.0,0.0,0.0,0.0,0.0,0.0,0.0,0.0,0.0,0.0,0.0,0.0,0.0,0.0,0.0,0.0,0.0,-0.7451,-0.7807,-0.7895,-0.772,-0.7766,-0.7776,-0.7756,-0.7779,-0.7826,-0.7955,-0.7955,-0.7941,0.0,0.0,0.0,-0.7924,-0.7924,-0.7882,-0.7763,-0.7887,-0.7864,-0.7801,-0.7924,-0.7988,-0.7988,-0.7988,-0.7975,-0.7958,-0.7982,-0.7988,-0.7988,-0.7988,-0.7988,-0.7988,-0.7988,-0.7988,-0.7988,-0.7988,-0.7988,-0.7988,-0.7988,-0.7988,-0.7988,-0.7988,-0.7988,-0.7988,-0.7988,-0.7971,-0.7914,-0.7834,-0.7842,-0.7784,-0.7708,-0.7875,-0.7976,-0.7911,-0.7983,-0.8117,-0.8142,-0.7798,-0.7692,-0.806,-0.7474,-0.7361,-0.8105,-0.7778,-0.7603,-0.7645,-0.745,-0.6916,-0.5931,-0.6126,-0.5542,-0.4204,-0.4198,-0.4144,-0.4014,-0.4027,-0.3978,-0.2932,-0.3686,-0.4348,-0.4283,-0.4648,-0.5006,-0.4916,-0.4719,0.0,0.0,0.0,0.0,0.0,0.0,0.0,0.0,0.0,0.0,0.0,0.0,0.0,0.0,0.0,0.0,0.0,0.0,0.0,0.0,0.0,0.0,0.0,0.0,0.0,-0.7743,-0.7811,-0.7395,-0.6462,-0.6579,-0.6633,-0.6629,-0.6636,-0.7075,-0.7845,-0.7845,-0.778,0.0,0.0,-0.7665,-0.7665,-0.7665,-0.7577,-0.7465,-0.774,-0.7756,-0.7665,-0.7891,-0.7988,-0.7988,-0.7988,-0.7907,-0.7868,-0.7948,-0.7988,-0.7988,-0.7988,-0.7988,-0.7988,-0.7988,-0.7988,-0.7988,-0.7988,-0.7988,-0.7988,-0.7988,-0.7988,-0.7988,-0.7988,-0.7988,-0.7988,-0.7988,-0.7884,-0.7838,-0.7814,-0.79,-0.8045,-0.8157,-0.843,-0.8714,-0.9056,-0.8997,-0.8918,-0.8869,-0.8559,-0.8284,-0.8106,-0.7886,-0.7786,-0.794,-0.757,-0.7478,-0.7823,-0.77,-0.7424,-0.697,-0.6474,-0.5884,-0.5188,-0.4583,-0.4236,-0.4155,-0.4226,-0.4171,-0.2797,-0.3394,-0.407,-0.4734,-0.5241,-0.5585,-0.5581,-0.5127,0.0,0.0,0.0,0.0,0.0,0.0,0.0,0.0,0.0,0.0,0.0,0.0,0.0,0.0,0.0,0.0,0.0,0.0,0.0,0.0,0.0,0.0,0.0,0.0,0.0,0.0,-0.7611,-0.7111,-0.5931,-0.6119,-0.6211,-0.6303,-0.631,-0.6792,-0.7695,-0.7695,-0.7662,-0.76,0.0,-0.76,-0.76,-0.76,-0.7556,-0.7516,-0.7729,-0.777,-0.774,-0.7911,-0.7988,-0.7988,-0.7988,-0.7944,-0.7897,-0.7968,-0.7988,-0.7988,-0.7988,-0.7988,-0.7988,-0.7988,-0.7988,-0.7988,-0.7988,-0.7988,-0.7988,-0.7988,-0.7988,-0.7988,-0.7988,-0.7988,-0.7988,-0.7988,-0.8079,-0.8129,-0.8129,-0.8313,-0.846,-0.8553,-0.8694,-0.8821,-0.9047,-0.8989,-0.8974,-0.9108,-0.8794,-0.8563,-0.8613,-0.8181,-0.79,-0.79,-0.7738,-0.7703,-0.787,-0.7489,-0.7056,-0.6655,-0.5969,-0.531,-0.4759,-0.4191,-0.4036,-0.4175,-0.3998,-0.3991,-0.2855,-0.3394,-0.4122,-0.5101,0.0,-0.5867,-0.6349,-0.5786,0.0,0.0,0.0,0.0,0.0,0.0,0.0,0.0,0.0,0.0,0.0,0.0,0.0,0.0,0.0,0.0,0.0,0.0,0.0,0.0,0.0,0.0,0.0,0.0,0.0,0.0,-0.7283,-0.6955,-0.5722,-0.5853,-0.6002,-0.6125,-0.6153,-0.6629,-0.7546,-0.7546,-0.7526,-0.7492,-0.7492,-0.7492,-0.7492,-0.7492,-0.7492,-0.7509,-0.7692,-0.778,-0.7824,-0.7894,-0.7894,-0.7889,-0.7874,-0.7864,-0.7892,-0.7914,-0.7938,-0.7941,-0.7978,-0.7988,-0.7988,-0.7988,-0.7988,-0.7988,-0.7988,-0.7988,-0.7988,-0.7988,-0.7988,-0.7988,-0.7988,-0.7988,-0.7988,-0.7988,-0.8237,-0.8382,-0.8382,-0.868,-0.8878,-0.8878,-0.8928,-0.8977,-0.8977,-0.8977,-0.9076,-0.9282,-0.8979,-0.8842,-0.9005,-0.8419,-0.803,-0.808,-0.7988,-0.7928,-0.7799,-0.7311,-0.6704,-0.6013,-0.5453,-0.4862,-0.4234,-0.3917,-0.3959,-0.4238,-0.3985,-0.3996,-0.3485,-0.4286,-0.5029,-0.5173,-0.5222,-0.5643,-0.7156,-0.7013,0.0,-0.6467,0.0,0.0,0.0,0.0,0.0,0.0,0.0,0.0,0.0,0.0,0.0,0.0,0.0,0.0,0.0,0.0,0.0,0.0,0.0,0.0,0.0,0.0,0.0,0.0,0.0,-0.6853,-0.5722,-0.5691,-0.5798,-0.5904,-0.5969,-0.6482,-0.7433,-0.7433,-0.7309,-0.7129,-0.7129,-0.7129,-0.7129,-0.7129,-0.7129,-0.7156,-0.7499,-0.7695,-0.7814,-0.7824,-0.7655,-0.7441,-0.7584,-0.7539,-0.7465,-0.774,-0.7828,-0.7851,-0.7944,-0.7988,-0.7988,-0.7988,-0.7988,-0.7988,-0.7988,-0.7988,-0.7988,-0.7988,-0.7988,-0.7988,-0.7988,-0.7988,-0.7988,-0.7988,-0.8237,-0.8382,-0.8382,-0.8832,-0.9183,-0.9183,-0.9381,-0.9529,-0.9529,-0.9529,-0.9529,-0.9579,-0.9417,-0.9214,-0.8869,-0.8594,-0.847,-0.8532,-0.8336,-0.7973,-0.7562,-0.7471,-0.681,-0.5492,-0.5403,-0.5051,-0.437,-0.4338,-0.4336,-0.4372,-0.4471,-0.4467,-0.3305,-0.404,-0.4777,-0.4971,-0.5339,0.0,0.0,-0.7479,-0.7355,-0.7745,-0.7653,0.0,0.0,0.0,0.0,0.0,0.0,0.0,0.0,0.0,0.0,0.0,0.0,0.0,0.0,0.0,0.0,0.0,0.0,0.0,0.0,0.0,0.0,0.0,0.0,-0.7022,-0.6564,-0.6564,-0.6589,-0.6636,-0.6102,-0.6283,-0.7227,-0.7227,-0.7149,-0.7095,-0.7095,-0.7095,-0.7095,-0.7095,-0.7095,-0.7115,-0.7373,-0.755,-0.7678,-0.7678,-0.7607,-0.7522,-0.758,-0.756,-0.7546,-0.7746,-0.7811,-0.7838,-0.7944,-0.7988,-0.7988,-0.7988,-0.7988,-0.7988,-0.7988,-0.7988,-0.7988,-0.7988,-0.7988,-0.7988,-0.7988,-0.7988,-0.8038,-0.8237,-0.8482,-0.868,-0.8882,-0.9183,-0.943,-0.943,-0.9529,-0.9579,-0.9579,-0.9579,-0.9579,-0.9579,-0.9466,-0.9347,-0.9165,-0.8858,-0.8705,-0.8731,-0.8396,-0.7977,-0.7533,-0.7048,-0.6387,-0.5416,-0.4989,-0.4645,-0.4351,-0.419,-0.4212,-0.4394,-0.4257,-0.4332,-0.3655,-0.4225,-0.4853,-0.5116,0.0,0.0,-0.7502,-0.7797,-0.8101,-0.8975,-0.8651,0.0,0.0,0.0,0.0,0.0,0.0,0.0,0.0,0.0,0.0,0.0,0.0,0.0,0.0,0.0,0.0,0.0,0.0,0.0,0.0,0.0,0.0,0.0,0.0,-0.6885,-0.6929,-0.6933,-0.6957,-0.696,-0.6389,-0.6476,-0.7095,-0.7095,-0.7095,-0.7095,-0.7095,-0.7095,-0.7095,-0.7095,-0.7125,-0.7224,-0.7329,-0.7434,-0.7529,-0.7529,-0.7499,-0.7455,-0.7455,-0.7455,-0.7478,-0.7624,-0.7672,-0.7709,-0.786,-0.7917,-0.7928,-0.7975,-0.7988,-0.7988,-0.7988,-0.7988,-0.7988,-0.7988,-0.7988,-0.7988,-0.7988,-0.8088,-0.8184,-0.8382,-0.868,-0.8981,-0.9183,-0.943,-0.9579,-0.9579,-0.9579,-0.9579,-0.9579,-0.9579,-0.9579,-0.9579,-0.9514,-0.9465,-0.9408,-0.9129,-0.8874,-0.8543,-0.8241,-0.7812,-0.718,-0.6473,-0.5785,-0.5108,-0.4632,-0.4386,-0.4428,-0.4231,-0.4268,-0.4518,-0.4354,-0.4405,-0.4716,-0.5041,-0.5478,0.0,0.0,0.0,-0.748,-0.8014,-0.8783,-1.003,0.0,0.0,0.0,0.0,0.0,0.0,0.0,0.0,0.0,0.0,0.0,0.0,0.0,0.0,0.0,0.0,0.0,0.0,0.0,0.0,0.0,0.0,0.0,0.0,0.0,0.0,-0.6511,-0.6624,-0.6698,-0.6705,-0.695,-0.7092,-0.7095,-0.7095,-0.7095,-0.7095,-0.7095,-0.7095,-0.7095,-0.7095,-0.7227,-0.7412,-0.7412,-0.7415,-0.7415,-0.7415,-0.7272,-0.7095,-0.7095,-0.7095,-0.7122,-0.7322,-0.7415,-0.7473,-0.7723,-0.7811,-0.7841,-0.7944,-0.7988,-0.7988,-0.7988,-0.7988,-0.7988,-0.7988,-0.7988,-0.7988,-0.7988,-0.8237,-0.8382,-0.8382,-0.8836,-0.9187,-0.9187,-0.943,-0.9579,-0.9579,-0.9579,-0.9579,-0.9579,-0.9579,-0.9579,-0.9579,-0.9579,-0.9555,-0.942,-0.9404,-0.8945,-0.798,-0.782,-0.7344,-0.6441,-0.5772,-0.5065,-0.4434,-0.439,-0.4479,-0.4708,-0.471,-0.4753,-0.4784,-0.4784,-0.4784,-0.3785,-0.464,0.0,-0.5528,0.0,0.0,0.0,-0.8641,0.0,0.0,0.0,0.0,0.0,0.0,0.0,0.0,0.0,0.0,0.0,0.0,0.0,0.0,0.0,0.0,0.0,0.0,0.0,0.0,0.0,0.0,0.0,0.0,0.0,0.0,-0.6116,-0.659,-0.663,-0.6569,-0.6593,-0.6702,-0.6678,-0.6837,-0.7095,-0.7095,-0.7095,-0.7092,-0.6991,-0.7004,-0.7095,-0.7095,-0.7065,-0.7071,-0.717,-0.721,-0.721,-0.721,-0.7136,-0.7095,-0.7095,-0.7095,-0.7122,-0.7322,-0.7415,-0.7473,-0.7723,-0.7811,-0.7841,-0.7944,-0.7988,-0.7988,-0.7988,-0.7988,-0.7988,-0.7988,-0.7988,-0.8038,-0.8237,-0.8333,-0.8535,-0.8886,-0.9084,-0.9236,-0.943,-0.9529,-0.9579,-0.9579,-0.9579,-0.9579,-0.9579,-0.9579,-0.9579,-0.9579,-0.9579,-0.9608,-0.9551,-0.8941,-0.8416,-0.8129,-0.6938,-0.6147,-0.5833,-0.5616,-0.517,-0.453,-0.4596,-0.4655,-0.4708,-0.4769,-0.476,-0.4784,-0.4784,-0.4784,-0.4573,-0.5208,0.0,-0.6401,0.0,0.0,0.0,0.0,0.0,0.0,0.0,0.0,0.0,0.0,0.0,0.0,0.0,0.0,0.0,0.0,0.0,0.0,0.0,0.0,0.0,0.0,0.0,0.0,0.0,0.0,0.0,0.0,0.0,0.0,-0.6074,-0.6315,-0.643,-0.6403,-0.6474,-0.6525,-0.6552,-0.6705,-0.6923,-0.6923,-0.6957,-0.7004,-0.6859,-0.6888,-0.6927,-0.6987,-0.6964,-0.69,-0.7041,-0.7095,-0.7095,-0.7095,-0.7095,-0.7095,-0.7095,-0.7095,-0.7112,-0.7248,-0.7278,-0.7336,-0.7638,-0.7685,-0.7692,-0.7914,-0.7944,-0.7914,-0.7975,-0.7988,-0.7988,-0.7988,-0.7988,-0.8088,-0.8333,-0.8482,-0.868,-0.9133,-0.9286,-0.943,-0.9579,-0.9579,-0.9579,-0.9579,-0.9579,-0.9579,-0.9579,-0.9579,-0.9579,-0.9579,-0.9327,-0.913,-0.913,-0.8588,-0.7993,-0.7358,-0.6599,-0.5931,-0.5299,-0.5211,-0.4998,-0.4624,-0.4971,-0.5214,-0.5205,-0.5259,-0.5288,-0.5288,-0.4935,-0.4784,-0.6158,0.0,0.0,0.0,0.0,0.0,0.0,0.0,0.0,0.0,0.0,0.0,0.0,0.0,0.0,0.0,0.0,0.0,0.0,0.0,0.0,0.0,0.0,0.0,0.0,0.0,0.0,0.0,0.0,0.0,0.0,0.0,0.0,0.0,-0.5832,-0.5718,-0.5949,-0.6129,-0.6252,0.0,-0.6498,-0.6634,-0.6661,-0.6688,-0.677,-0.6836,-0.6742,-0.6671,-0.6671,-0.6824,-0.6846,-0.6859,-0.7001,-0.7055,-0.7058,-0.7071,-0.7068,-0.7058,-0.7088,-0.7088,-0.7078,-0.7078,-0.7085,-0.7149,-0.7472,-0.7482,-0.7482,-0.785,-0.788,-0.7865,-0.7955,-0.7988,-0.7988,-0.8038,-0.8038,-0.8088,-0.8382,-0.8627,-0.8928,-0.9183,-0.943,-0.9579,-0.9579,-0.9579,-0.9579,-0.9579,-0.9579,-0.9579,-0.9579,-0.9579,-0.9579,-0.9579,-0.8882,-0.8432,-0.8482,-0.8382,-0.7686,-0.6192,-0.668,-0.6323,-0.488,-0.4673,-0.4628,-0.4718,-0.5498,-0.594,-0.5992,-0.6092,-0.6092,-0.5992,-0.5236,-0.4885,-0.4672,-0.5735,0.0,0.0,0.0,0.0,0.0,0.0,0.0,0.0,0.0,0.0,0.0,0.0,0.0,0.0,0.0,0.0,0.0,0.0,0.0,0.0,0.0,0.0,0.0,0.0,0.0,0.0,0.0,0.0,0.0,0.0,0.0,-0.5583,-0.5614,-0.562,-0.5684,-0.5718,-0.585,0.0,-0.602,-0.6122,-0.6402,-0.6597,-0.6654,-0.6569,-0.6576,-0.6497,-0.6405,-0.6552,-0.6569,-0.6583,-0.6736,-0.6797,-0.681,-0.6886,-0.6856,-0.6827,-0.7014,-0.7024,-0.693,-0.693,-0.7007,-0.7109,-0.7176,-0.7383,-0.7594,-0.7801,-0.7874,-0.7948,-0.7982,-0.7988,-0.8038,-0.8283,-0.8333,-0.8382,-0.8676,-0.8928,-0.9183,-0.948,-0.9579,-0.9579,-0.9579,-0.9579,-0.9579,-0.9579,-0.9579,-0.9579,-0.9579,-0.9579,-0.9579,-0.9579,-0.8882,-0.863,-0.9278,-0.8184,-0.7288,-0.6989,-0.6515,-0.5815,-0.4834,-0.4734,-0.472,-0.4756,-0.5556,-0.5967,-0.5992,-0.6639,-0.6639,-0.5992,-0.5839,-0.5388,-0.5012,0.0,0.0,0.0,0.0,0.0,0.0,0.0,0.0,0.0,0.0,0.0,0.0,0.0,0.0,0.0,0.0,0.0,0.0,0.0,0.0,0.0,0.0,0.0,0.0,0.0,0.0,0.0,0.0,0.0,0.0,-0.527,-0.5248,-0.5388,-0.5369,-0.544,-0.5589,-0.5589,-0.5701,-0.5922,-0.5915,-0.5996,-0.6156,-0.6308,-0.6298,-0.6152,-0.6152,-0.6108,-0.6095,-0.632,-0.6412,-0.6433,-0.6614,-0.6746,-0.682,-0.6856,-0.6836,-0.6831,-0.6943,-0.69,-0.682,-0.682,-0.6876,-0.7007,-0.7075,-0.7206,-0.7441,-0.7729,-0.7821,-0.7862,-0.8149,-0.8088,-0.8088,-0.8482,-0.8482,-0.8531,-0.8928,-0.9084,-0.9286,-0.9529,-0.9579,-0.9579,-0.9579,-0.9579,-0.9579,-0.9579,-0.9579,-0.9579,-0.9579,-0.9579,-0.9579,-0.9579,-0.8882,-0.8432,-0.8432,-0.8035,-0.7285,-0.6134,-0.6736,-0.6637,-0.5438,-0.5686,-0.5733,-0.5386,-0.6189,-0.6789,-0.7138,-0.7587,-0.7537,-0.7138,-0.6339,-0.5792,-0.5551,0.0,-0.6498,0.0,0.0,0.0,0.0,0.0,0.0,0.0,0.0,0.0,0.0,0.0,0.0,0.0,0.0,0.0,0.0,0.0,0.0,0.0,0.0,0.0,0.0,0.0,0.0,0.0,0.0,0.0,-0.5283,-0.5013,-0.4979,-0.5231,-0.5108,-0.5189,-0.5471,-0.5498,-0.5583,-0.5728,-0.5791,-0.5838,-0.5838,-0.5814,-0.5823,-0.58,-0.58,-0.5817,-0.5861,-0.6115,-0.6276,-0.6323,-0.6529,-0.6702,-0.6814,-0.6814,-0.6755,-0.6734,-0.6803,-0.6729,-0.6627,-0.6654,-0.6783,-0.6906,-0.7024,-0.7095,-0.7258,-0.7675,-0.7736,-0.7835,-0.8325,-0.8266,-0.8287,-0.873,-0.868,-0.8684,-0.9084,-0.9236,-0.9335,-0.9579,-0.9579,-0.9579,-0.9579,-0.9579,-0.9579,-0.9579,-0.9579,-0.9579,-0.9579,-0.9579,-0.9579,-0.9579,-0.8882,-0.8184,-0.7633,-0.7985,-0.7381,-0.5534,-0.7182,-0.7534,-0.6042,-0.6639,-0.6739,-0.6242,-0.6989,-0.7736,-0.8382,-0.8531,-0.8531,-0.8382,-0.6889,-0.6142,0.0,0.0,0.0,0.0,0.0,0.0,0.0,0.0,0.0,0.0,0.0,0.0,0.0,0.0,0.0,0.0,0.0,0.0,0.0,0.0,0.0,0.0,0.0,0.0,0.0,0.0,0.0,0.0,0.0,0.0,-0.4802,-0.4745,-0.4706,-0.4614,-0.472,-0.4833,-0.5006,-0.51,-0.5267,-0.5453,-0.5304,-0.5218,-0.5214,-0.5093,-0.5335,-0.58,-0.58,-0.5878,-0.5966,-0.6006,-0.6139,-0.6303,-0.6344,-0.6371,-0.6388,-0.6388,-0.6264,-0.6131,-0.6305,-0.6375,-0.6378,-0.6504,-0.6695,-0.6889,-0.691,-0.7136,-0.7398,-0.7636,-0.7933,-0.819,-0.8516,-0.8626,-0.8775,-0.908,-0.9133,-0.9133,-0.9187,-0.9381,-0.9579,-0.9579,-0.9579,-0.9579,-0.9579,-0.9579,-0.9579,-0.9579,-0.9579,-0.9579,-0.9579,-0.9579,-0.9579,-0.9579,-0.8882,-0.863,-0.9229,-0.8084,-0.7534,-0.7882,-0.7584,-0.6939,-0.6042,-0.6092,-0.6442,-0.7039,-0.7836,-0.8283,-0.8382,-0.908,-0.908,-0.8382,-0.7487,-0.6689,-0.4504,0.0,0.0,0.0,0.0,0.0,0.0,0.0,0.0,0.0,0.0,0.0,0.0,0.0,0.0,0.0,0.0,0.0,0.0,0.0,0.0,0.0,0.0,0.0,0.0,0.0,0.0,0.0,0.0,-0.4952,-0.461,-0.459,-0.4559,-0.4491,-0.4556,-0.4665,-0.4789,-0.4853,-0.4999,-0.523,-0.5052,-0.4991,-0.4973,-0.4924,-0.506,-0.5311,-0.5393,-0.543,-0.5504,-0.5711,-0.5823,-0.5931,-0.5973,-0.6146,-0.6289,-0.6162,-0.6142,-0.6156,-0.6139,-0.6074,-0.6027,-0.6176,-0.6373,-0.6569,-0.6651,-0.7009,-0.736,-0.7533,-0.7861,-0.8269,-0.8685,-0.8739,-0.8815,-0.9308,-0.9331,-0.9236,-0.9381,-0.9529,-0.9579,-0.9579,-0.9579,-0.9579,-0.9579,-0.9579,-0.9579,-0.9579,-0.9579,-0.9579,-0.9579,-0.9579,-0.9579,-0.9579,-0.9278,-0.9031,-0.8931,-0.868,-0.8333,-0.7786,-0.8233,-0.8184,-0.7388,-0.7783,-0.8184,-0.8531,-0.7985,-0.8184,-0.908,-0.943,-0.9478,-0.9214,-0.7898,-0.7181,0.0,0.0,0.0,0.0,0.0,0.0,0.0,0.0,0.0,0.0,0.0,0.0,0.0,0.0,0.0,0.0,0.0,0.0,0.0,0.0,0.0,0.0,0.0,0.0,0.0,0.0,0.0,0.0,0.0,-0.4785,-0.4505,-0.4491,-0.4491,-0.4491,-0.4491,-0.4563,-0.4691,-0.4691,-0.4802,-0.4985,-0.487,-0.48,-0.4812,-0.4793,-0.4802,-0.4816,-0.5077,-0.5189,-0.5213,-0.5518,-0.5644,-0.5654,-0.5762,-0.5942,-0.6163,-0.5973,-0.5993,-0.6105,-0.5915,-0.581,-0.5779,-0.5932,-0.6135,-0.6334,-0.6555,-0.6891,-0.7282,-0.753,-0.7867,-0.8242,-0.8812,-0.883,-0.8848,-0.9364,-0.938,-0.9325,-0.9567,-0.9579,-0.9579,-0.9579,-0.9579,-0.9579,-0.9579,-0.9579,-0.9579,-0.9579,-0.9579,-0.9579,-0.9579,-0.9579,-0.9579,-0.9579,-0.9579,-0.9377,-0.8779,-0.908,-0.8878,-0.7885,-0.873,-0.9031,-0.8432,-0.8977,-0.9278,-0.9278,-0.8134,-0.8184,-0.9579,-0.9673,-0.9758,-0.9884,-0.8234,-0.7483,0.0,0.0,0.0,0.0,0.0,0.0,0.0,0.0,0.0,0.0,0.0,0.0,0.0,0.0,0.0,0.0,0.0,0.0,0.0,0.0,0.0,0.0,0.0,0.0,0.0,0.0,0.0,0.0,0.0,-0.4785,-0.4505,-0.4491,-0.4491,-0.4491,-0.4491,-0.4563,-0.4691,-0.4691,-0.4697,-0.4711,-0.4586,-0.4518,-0.4525,-0.4518,-0.4515,-0.4545,-0.5129,-0.5382,-0.5405,-0.5667,-0.5789,-0.5789,-0.5796,-0.5813,-0.581,-0.5664,-0.5616,-0.5603,-0.5484,-0.5521,-0.5647,-0.5899,-0.6135,-0.639,-0.6841,-0.6981,-0.7156,-0.7704,-0.804,-0.8299,-0.8709,-0.8932,-0.9066,-0.9125,-0.925,-0.9417,-0.9592,-0.9579,-0.9579,-0.9579,-0.9579,-0.9579,-0.9579,-0.9579,-0.9579,-0.9579,-0.9579,-0.9579,-0.9579,-0.9579,-0.9579,-0.9579,-0.9579,-0.9579,-0.9529,-0.8882,-0.873,-0.943,-0.8832,-0.8432,-0.8382,-0.8432,-0.8482,-0.8482,-0.8382,-0.873,-0.9579,-0.9791,-0.9876,-0.9837,-0.829,-0.7574,0.0,0.0,0.0,0.0,0.0,0.0,0.0,0.0,0.0,0.0,0.0,0.0,0.0,0.0,0.0,0.0,0.0,0.0,0.0,0.0,0.0,0.0,0.0,0.0,0.0,0.0,0.0,0.0,0.0,0.0,-0.4501,-0.4491,-0.4491,-0.4491,-0.4491,-0.4515,-0.4573,-0.4573,-0.4573,-0.4573,-0.4515,-0.4436,-0.4301,-0.4436,-0.4436,-0.4317,-0.4766,-0.5036,-0.522,-0.5325,-0.5488,-0.5664,-0.5664,-0.5664,-0.5657,-0.561,-0.5589,-0.5569,-0.5446,-0.5429,-0.5511,-0.5681,-0.5786,-0.5921,-0.6402,-0.672,-0.7034,-0.7444,-0.7903,-0.834,-0.8609,-0.8787,-0.895,-0.9072,-0.9277,-0.942,-0.9437,-0.9547,-0.9579,-0.9579,-0.9579,-0.9579,-0.9579,-0.9579,-0.9579,-0.9579,-0.9579,-0.9579,-0.9579,-0.9579,-0.9579,-0.9579,-0.9579,-0.9579,-0.9579,-0.9327,-0.9278,-0.9579,-0.9331,-0.9179,-0.9179,-0.9179,-0.9179,-0.9179,-0.9179,-0.9327,-0.9579,-0.9803,-0.9634,-0.9176,-0.8176,-0.749,-0.2861,0.0,0.0,0.0,0.0,0.0,0.0,0.0,0.0,0.0,0.0,0.0,0.0,0.0,0.0,0.0,0.0,0.0,0.0,0.0,0.0,0.0,0.0,0.0,0.0,0.0,0.0,0.0,0.0,0.0,-0.4498,-0.4491,-0.4491,-0.4491,-0.4491,-0.4491,-0.4491,-0.4491,-0.4491,-0.4491,-0.4491,-0.4436,-0.4301,-0.4436,-0.4436,-0.4307,-0.4544,-0.4782,-0.5032,-0.5079,-0.5311,-0.5589,-0.5589,-0.5589,-0.5589,-0.5589,-0.5555,-0.5532,-0.5429,-0.5395,-0.5429,-0.5596,-0.5696,-0.586,-0.6341,-0.6741,-0.7057,-0.7422,-0.7845,-0.8239,-0.8426,-0.8605,-0.8779,-0.8962,-0.9141,-0.9331,-0.9388,-0.9498,-0.9579,-0.9579,-0.9579,-0.9579,-0.9579,-0.9579,-0.9579,-0.9579,-0.9579,-0.9579,-0.9579,-0.9579,-0.9579,-0.9579,-0.9579,-0.9579,-0.9579,-0.9579,-0.9579,-0.9579,-0.9579,-0.9579,-0.9579,-0.9685,-0.9713,-0.9713,-0.9713,-0.9592,-0.9349,-0.9458,-0.9257,-0.8793,-0.7876,-0.7026,0.0,0.0,0.0,0.0,0.0,0.0,0.0,0.0,0.0,0.0,0.0,0.0,0.0,0.0,0.0,0.0,0.0,0.0,0.0,0.0,0.0,0.0,0.0,0.0,0.0,0.0,0.0,0.0,0.0,-0.4648,-0.4498,-0.4491,-0.4491,-0.4491,-0.4491,-0.4491,-0.4491,-0.4491,-0.4491,-0.4491,-0.4491,-0.4491,-0.4491,-0.4491,-0.4491,-0.4491,-0.4491,-0.4662,-0.4891,-0.5029,-0.5301,-0.5583,-0.5583,-0.5583,-0.5583,-0.5589,-0.5528,-0.5395,-0.5395,-0.5395,-0.544,-0.573,-0.5968,-0.6212,-0.6745,-0.7042,-0.7281,-0.7695,-0.7874,-0.8057,-0.8251,-0.8434,-0.8653,-0.8775,-0.8958,-0.9141,-0.9359,-0.9494,-0.9579,-0.9579,-0.9579,-0.9579,-0.9579,-0.9579,-0.9579,-0.9579,-0.9579,-0.9579,-0.9579,-0.9579,-0.9579,-0.9579,-0.9579,-0.9579,-0.9579,-0.9579,-0.9579,-0.9579,-0.9583,-0.9587,-0.9587,-0.9803,-0.9892,-0.9892,-0.9892,-0.9567,-0.879,-0.8783,-0.8786,-0.8699,-0.7316,-0.6216,-0.2087,0.0,0.0,0.0,0.0,0.0,0.0,0.0,0.0,0.0,0.0,0.0,0.0,0.0,0.0,0.0,0.0,0.0,0.0,0.0,0.0,0.0,0.0,0.0,0.0,0.0,0.0,0.0,-0.4552,-0.4535,-0.4491,-0.4491,-0.4491,-0.4491,-0.4491,-0.4491,-0.4491,-0.4491,-0.4491,-0.4491,-0.4491,-0.4491,-0.4491,-0.4491,-0.4491,-0.4491,-0.4491,-0.46,-0.4758,-0.4796,-0.5053,-0.5457,-0.5457,-0.5457,-0.5474,-0.5549,-0.5528,-0.5395,-0.5395,-0.5458,-0.5631,-0.6246,-0.6546,-0.6764,-0.7207,-0.7454,-0.7537,-0.7397,-0.7683,-0.8089,-0.8406,-0.8571,-0.8624,-0.8625,-0.8873,-0.9112,-0.9157,-0.9409,-0.9579,-0.9579,-0.9579,-0.9579,-0.9579,-0.9579,-0.9579,-0.9579,-0.9579,-0.9579,-0.9579,-0.9579,-0.9579,-0.9579,-0.9579,-0.9579,-0.9579,-0.9579,-0.9579,-0.9579,-0.9746,-0.9815,-0.9815,-0.9989,-1.0139,-1.0139,-1.0139,-0.9692,-0.879,-0.8726,-0.8161,-0.7034,-0.615,-0.5603,0.0,0.0,0.0,0.0,0.0,0.0,-0.375,-0.4317,0.0,0.0,0.0,0.0,0.0,0.0,0.0,0.0,0.0,0.0,0.0,0.0,0.0,0.0,0.0,0.0,0.0,0.0,0.0,-0.4491,-0.4491,-0.4491,-0.4491,-0.4491,-0.4491,-0.4491,-0.4491,-0.4491,-0.4491,-0.4491,-0.4491,-0.4491,-0.4491,-0.4491,-0.4491,-0.4491,-0.4491,-0.4491,-0.4491,-0.4542,-0.4624,-0.4624,-0.489,-0.527,-0.5368,-0.5395,-0.5416,-0.5569,-0.5528,-0.5395,-0.5458,-0.5749,-0.6148,-0.6685,-0.701,-0.7201,-0.7546,-0.7579,-0.7462,-0.7356,-0.7663,-0.8061,-0.828,-0.8494,-0.8592,-0.8514,-0.8723,-0.9049,-0.9359,-0.9459,-0.9539,-0.9612,-0.9579,-0.9579,-0.9579,-0.9579,-0.9579,-0.9579,-0.9579,-0.9579,-0.9579,-0.9579,-0.9579,-0.9579,-0.9579,-0.9579,-0.9579,-0.9579,-0.9657,-0.973,-0.9827,-0.992,-0.9998,-1.0176,-1.0274,-1.0274,-0.9904,-0.9068,-0.7737,-0.8135,-0.7499,-0.5957,-0.5577,-0.5382,0.0,0.0,0.0,0.0,0.0,0.0,-0.3363,-0.387,-0.4383,0.0,0.0,0.0,0.0,0.0,0.0,0.0,0.0,0.0,0.0,0.0,0.0,0.0,0.0,0.0,0.0,-0.4491,-0.4491,-0.4491,-0.4474,-0.4467,-0.4467,-0.4467,-0.4467,-0.444,-0.4453,-0.4463,-0.4463,-0.4463,-0.4491,-0.4491,-0.4491,-0.4491,-0.4491,-0.4491,-0.4491,-0.4491,-0.4491,-0.4491,-0.4491,-0.4491,-0.4707,-0.5063,-0.5266,-0.5341,-0.5385,-0.5491,-0.5498,-0.5428,-0.565,-0.617,-0.6782,-0.7126,-0.7455,-0.7728,-0.7838,-0.7623,-0.7426,-0.7514,-0.7848,-0.8106,-0.8065,-0.8321,-0.8567,-0.8361,-0.8576,-0.9001,-0.9721,-0.9592,-0.9453,-0.9616,-0.9616,-0.9579,-0.9579,-0.9579,-0.9579,-0.9579,-0.9579,-0.9579,-0.9579,-0.9579,-0.9579,-0.9579,-0.9579,-0.9579,-0.9579,-0.9644,-0.9721,-0.9876,-0.9925,-1.0022,-1.0184,-1.0367,-1.0411,-1.0411,-0.9485,-0.8122,-0.6356,-0.7158,-0.6772,-0.5367,-0.5375,-0.5382,0.0,0.0,0.0,0.0,0.0,0.0,-0.2084,-0.2253,-0.268,0.0,0.0,0.0,0.0,0.0,0.0,0.0,0.0,0.0,0.0,0.0,0.0,0.0,0.0,0.0,0.0,-0.4491,-0.4491,-0.4491,-0.4355,-0.4264,-0.4264,-0.4264,-0.4207,-0.4098,-0.4211,-0.4249,-0.4249,-0.4249,-0.4328,-0.4491,-0.4491,-0.4491,-0.4491,-0.4491,-0.4491,-0.4491,-0.4491,-0.4491,-0.4491,-0.4491,-0.4614,-0.4779,-0.4809,-0.4969,-0.5147,-0.5177,-0.5281,-0.5491,-0.6235,-0.6658,-0.6994,-0.7728,-0.8489,-0.8929,-0.7873,-0.8074,-0.8532,-0.8053,-0.8404,-0.8904,-0.8553,-0.8559,-0.8604,-0.8567,-0.867,-0.8964,-0.9451,-0.9499,-0.9508,-0.9939,-0.9775,-0.9579,-0.9579,-0.9579,-0.9579,-0.9579,-0.9579,-0.9579,-0.9579,-0.9579,-0.9579,-0.9579,-0.9579,-0.9579,-0.9579,-0.9754,-0.9847,-0.9884,-1.0164,-1.0343,-1.0379,-1.055,-1.0643,-1.0643,-0.904,-0.7709,-0.6646,-0.6118,-0.5656,-0.5219,-0.5347,-0.5382,0.0,0.0,0.0,-0.227,0.0,0.0,0.0,-0.1947,-0.2191,0.0,0.0,0.0,0.0,0.0,0.0,0.0,0.0,0.0,0.0,0.0,0.0,0.0,0.0,0.0,0.0,-0.4491,-0.446,-0.4362,-0.4193,-0.4109,-0.4109,-0.4101,-0.4027,-0.3901,-0.4025,-0.4073,-0.4004,-0.388,-0.3858,-0.3938,-0.371,-0.3766,-0.4042,-0.4042,-0.4211,-0.4491,-0.4491,-0.4491,-0.4491,-0.4491,-0.4535,-0.461,-0.466,-0.4826,-0.5033,-0.5202,-0.5359,-0.5587,-0.6239,-0.6724,-0.7149,-0.7679,-0.8134,-0.8382,-0.7783,-0.7836,-0.807,-0.793,-0.8232,-0.8548,-0.837,-0.843,-0.8588,-0.8494,-0.885,-0.9384,-0.9981,-0.9912,-0.9905,-1.0541,-1.0058,-0.9579,-0.9579,-0.9579,-0.9579,-0.9579,-0.9579,-0.9579,-0.9579,-0.9579,-0.9579,-0.9579,-0.9579,-0.9579,-0.9579,-0.9786,-0.9925,-1.0018,-1.0282,-1.0419,-1.0558,-1.0647,-1.0523,-1.008,-0.8681,-0.7532,-0.6715,-0.5777,-0.5312,-0.5314,-0.5361,-0.5382,0.0,0.0,0.0,0.0,0.0,-0.1667,0.0,0.0,0.0,-0.216,0.0,0.0,0.0,0.0,0.0,0.0,0.0,0.0,0.0,0.0,0.0,0.0,0.0,0.0,0.0,-0.4287,-0.4261,-0.4204,-0.3979,-0.3865,-0.3994,-0.3981,-0.3923,-0.3808,-0.3785,-0.3747,-0.3617,-0.3309,-0.3188,-0.3216,-0.2877,-0.3014,-0.3597,-0.3597,-0.3904,-0.4436,-0.4491,-0.4491,-0.4436,-0.4491,-0.4491,-0.4501,-0.4627,-0.4788,-0.4992,-0.5269,-0.5496,-0.5716,-0.621,-0.6761,-0.7246,-0.7419,-0.7419,-0.7428,-0.787,-0.7779,-0.7601,-0.7971,-0.8271,-0.844,-0.8184,-0.8512,-0.879,-0.8549,-0.9112,-0.9899,-1.048,-1.0332,-1.0302,-1.0861,-1.0239,-0.9579,-0.9579,-0.9579,-0.9579,-0.9579,-0.9579,-0.9579,-0.9579,-0.9579,-0.9579,-0.9579,-0.9579,-0.9579,-0.9579,-0.9819,-1.0053,-1.0204,-1.0363,-1.0546,-1.0684,-1.0692,-1.0304,-0.9416,-0.8587,-0.7713,-0.6715,-0.5889,-0.5446,-0.5355,-0.5355,-0.5345,0.0,0.0,0.0,0.0,-0.1712,0.0,0.0,0.0,-0.0777,-0.0813,0.0,0.0,0.0,0.0,0.0,0.0,0.0,0.0,0.0,0.0,0.0,0.0,0.0,0.0,0.0,0.0,-0.3658,-0.4161,-0.3584,-0.3444,-0.3963,-0.3883,-0.3815,-0.3792,-0.3286,-0.3012,-0.2998,-0.2569,-0.2434,-0.2595,-0.2681,-0.3014,-0.3597,-0.3597,-0.3824,-0.4249,-0.4411,-0.4408,-0.4249,-0.4436,-0.4491,-0.4491,-0.4508,-0.4779,-0.5157,-0.5206,-0.5497,-0.5984,-0.6793,-0.7149,-0.7246,-0.7419,-0.7189,-0.7069,-0.8573,-0.8924,-0.8817,-0.8995,-0.9588,-0.9947,-0.8806,-0.9183,-0.9728,-0.9274,-0.9734,-1.0218,-1.0251,-1.0185,-1.0123,-1.0206,-0.9909,-0.9579,-0.9579,-0.9579,-0.9579,-0.9579,-0.9579,-0.9579,-0.9579,-0.9579,-0.9579,-0.9579,-0.9579,-0.9579,-0.9579,-0.9937,-1.0192,-1.0212,-1.0477,-1.0672,-1.0692,-1.0692,-1.0304,-0.9416,-0.9288,-0.841,-0.6715,-0.6546,-0.6009,-0.5204,-0.5204,-0.5216,0.0,0.0,0.0,0.0,0.0,0.0,0.0,0.0,-0.0619,0.0,0.0,0.0,0.0,0.0,0.0,0.0,0.0,0.0,0.0,0.0,0.0,0.0,0.0,0.0,0.0,0.0,0.0,0.0,0.0,-0.3606,-0.3859,-0.377,-0.348,-0.3062,-0.2871,-0.2576,-0.2143,-0.1829,-0.1709,-0.1792,-0.1708,-0.2151,-0.307,-0.307,-0.3544,-0.4384,-0.4791,-0.4928,-0.4846,-0.4928,-0.4952,-0.4952,-0.4712,-0.4848,-0.5214,-0.5427,-0.5731,-0.6214,-0.706,-0.7386,-0.7451,-0.7939,-0.7736,-0.758,-0.8957,-0.926,-0.9337,-1.0129,-1.0328,-1.0274,-1.0053,-0.9994,-0.9864,-0.9388,-0.9893,-1.0392,-1.0081,-1.0159,-1.0285,-1.0294,-0.9919,-0.9579,-0.9579,-0.9579,-0.9579,-0.9579,-0.9579,-0.9579,-0.9579,-0.9579,-0.9579,-0.9579,-0.9579,-0.9579,-0.9579,-0.9855,-1.0098,-1.0208,-1.0493,-1.0692,-1.0692,-1.0692,-1.0527,-1.0135,-0.9607,-0.8907,-0.8089,-0.7596,-0.6832,-0.5803,-0.5377,-0.5173,-0.325,0.0,0.0,0.0,0.0,0.0,0.0,0.0,0.0,0.0,0.0,0.0,0.0,0.0,0.0,0.0,0.0,0.0,0.0,0.0,0.0,0.0,0.0,0.0,0.0,0.0,0.0,0.0,-0.3697,-0.3648,-0.3849,-0.3737,-0.342,-0.2918,-0.2687,-0.2316,-0.1779,-0.1356,-0.1122,-0.1122,-0.0982,-0.154,-0.2708,-0.2708,-0.343,-0.4677,-0.5117,-0.5359,-0.5496,-0.5523,-0.5473,-0.5367,-0.5097,-0.5249,-0.5631,-0.5876,-0.6229,-0.6671,-0.7489,-0.7782,-0.7884,-0.856,-0.8548,-0.8481,-0.9677,-0.9926,-1.0048,-1.1213,-1.1204,-1.0876,-1.099,-1.0809,-1.0467,-0.9694,-1.014,-1.0535,-0.9938,-1.0057,-1.028,-1.0134,-0.9838,-0.9579,-0.9579,-0.9579,-0.9579,-0.9579,-0.9579,-0.9579,-0.9579,-0.9579,-0.9579,-0.9579,-0.9579,-0.9579,-0.9579,-0.9786,-0.9985,-1.0221,-1.0481,-1.0643,-1.0688,-1.0692,-1.0692,-1.0692,-0.9965,-0.9449,-0.9083,-0.8545,-0.7556,-0.6265,-0.5769,-0.5382,0.0,0.0,0.0,-0.2303,0.0,0.0,0.0,0.0,-0.0484,0.0,0.0,0.0,0.0,0.0,0.0,0.0,0.0,0.0,0.0,0.0,0.0,0.0,0.0,0.0,0.0,0.0,0.0,-0.3643,-0.3225,-0.3239,-0.3946,-0.386,-0.3846,-0.3961,-0.2823,-0.2209,-0.2179,-0.1204,-0.0729,-0.0729,-0.0842,-0.154,-0.2708,-0.2708,-0.3564,-0.5081,-0.525,-0.555,-0.5982,-0.6122,-0.5941,-0.5591,-0.5723,-0.6119,-0.6644,-0.6674,-0.6999,-0.7554,-0.8231,-0.8458,-0.8592,-0.9246,-0.9468,-0.9688,-1.096,-1.121,-1.1245,-1.2126,-1.2408,-1.2218,-1.1246,-1.1671,-1.1935,-1.0342,-1.0475,-1.0726,-0.9723,-0.9846,-0.9979,-0.9504,-0.9506,-0.9579,-0.9579,-0.9579,-0.9579,-0.9579,-0.9579,-0.9579,-0.9579,-0.9579,-0.9579,-0.9579,-0.9579,-0.9579,-0.9579,-0.9786,-1.0038,-1.035,-1.0383,-1.0517,-1.0684,-1.0692,-1.0692,-1.0692,-1.0688,-1.0163,-0.9083,-0.9137,-0.8198,-0.6321,-0.6486,-0.6053,0.0,0.0,-0.5495,-0.4094,0.0,0.0,0.0,0.0,0.0,0.0,0.0,0.0,0.0,0.0,0.0,0.0,0.0,0.0,0.0,0.0,0.0,0.0,0.0,0.0,0.0,0.0,0.0,-0.3506,-0.3576,-0.3689,0.0,-0.3738,-0.3466,-0.3009,-0.2407,-0.1877,-0.1463,-0.097,-0.0701,-0.0701,-0.0842,-0.154,-0.2708,-0.3121,-0.4003,-0.5277,-0.6122,-0.6637,-0.6853,-0.6907,-0.6907,-0.6864,-0.6794,-0.7266,-0.7868,-0.7096,-0.7128,-0.7619,-0.8355,-0.9146,-0.9939,-1.0613,-1.0697,-1.0782,-1.1979,-1.2215,-1.2313,-1.3487,-1.3449,-1.3101,-1.3226,-1.2826,-1.2106,-1.0939,-1.0548,-1.026,-0.9434,-0.9468,-0.9629,-0.9559,-0.9587,-0.9579,-0.9579,-0.9579,-0.9579,-0.9579,-0.9579,-0.9579,-0.9579,-0.9579,-0.9579,-0.9579,-0.9579,-0.9579,-0.9579,-0.99,-1.0171,-1.0245,-1.0477,-1.0631,-1.0688,-1.0692,-1.0692,-1.0692,-1.0692,-1.0443,-0.995,-1.0112,-0.9479,-0.8147,-0.8339,-0.7296,-0.6408,-0.6734,0.0,-0.5256,-0.4943,0.0,-0.3149,0.0,0.0,0.0,0.0,0.0,0.0,0.0,0.0,0.0,0.0,0.0,0.0,-0.0892,0.0,0.0,0.0,0.0,0.0,0.0,-0.3357,-0.3573,-0.3605,-0.3677,0.0,0.0,-0.3519,-0.3041,-0.2513,-0.2063,-0.1679,-0.1082,-0.0757,-0.0785,-0.1065,-0.1734,-0.2736,-0.3533,-0.4525,-0.5691,-0.6723,-0.7348,-0.7616,-0.7664,-0.7637,-0.7574,-0.7605,-0.8057,-0.8587,-0.7996,-0.8125,-0.8619,-0.8672,-0.9628,-1.0916,-1.1581,-1.1751,-1.1862,-1.2792,-1.3078,-1.3285,-1.4234,-1.4223,-1.3929,-1.3838,-1.3154,-1.2137,-1.0722,-1.0143,-0.9723,-0.9146,-0.9137,-0.9363,-0.9494,-0.9583,-0.9579,-0.9579,-0.9579,-0.9579,-0.9579,-0.9579,-0.9579,-0.9579,-0.9579,-0.9579,-0.9579,-0.9579,-0.9652,-0.9713,-0.9933,-1.0119,-1.0249,-1.0473,-1.0627,-1.0688,-1.0635,-1.0631,-1.0688,-1.0631,-1.0546,-1.0383,-1.0607,-1.0163,-0.9086,-0.9293,-0.8262]},{"header":{"parameterUnit":"m.s-1","parameterCategory":1,"la1":30.6,"la2":29.2853,"lo1":-89.7004,"lo2":-87.6739,"dy":0.0162,"dx":0.0183,"nx":112,"ny":82,"refTime":"2024-03-02T18:00:00:Z","depth":0,"parameterNumber":3,"parameterNumberName":"V-component_of_WINDS"},"data":[0.0,0.0,0.0,0.0,0.0,0.0,0.0,0.0,0.0,0.0,0.0,0.0,0.0,0.0,0.0,0.0,0.0,0.0,0.0,0.0,0.0,0.0,0.0,0.0,0.0,0.0,0.0,0.0,0.0,0.0,0.0,0.0,0.0,0.0,0.0,0.0,0.0,0.0,0.0,0.0,0.0,0.0,0.0,0.0,0.0,0.0,0.0,0.0,0.0,0.0,0.0,0.0,0.0,0.0,0.0,0.0,0.0,0.0,0.0,0.0,0.0,0.0,0.0,0.0,0.0,0.0,0.0,0.0,0.0,0.0,0.0,0.0,0.0,0.0,0.0,0.0,0.0,0.0,0.0,0.0,0.0,0.0,0.0,0.0,0.0,0.0,0.0,0.0,0.0,0.0,0.0,1.0901,1.1783,1.2282,1.2214,1.3571,1.3492,1.1336,0.0,0.0,0.0,0.0,0.0,0.0,0.0,0.0,0.0,0.0,0.0,0.0,0.0,0.0,0.0,0.0,0.0,0.0,0.0,0.0,0.0,0.0,0.0,0.0,0.0,0.0,0.0,0.0,0.0,0.0,0.0,0.0,0.0,0.0,0.0,0.0,0.0,0.0,0.0,0.0,0.0,0.0,0.0,0.0,0.0,0.0,0.0,0.0,0.0,0.0,0.0,0.0,0.0,0.0,0.0,0.0,0.0,0.0,0.0,0.0,0.0,0.0,0.0,0.0,0.0,0.0,0.0,0.0,0.0,0.0,0.0,0.0,0.0,0.0,0.0,0.0,0.0,0.0,0.0,0.0,0.0,0.0,0.0,0.0,0.0,0.0,0.0,0.0,0.0,0.0,0.0,0.0,0.0,0.0,0.0,0.0,0.0,0.0,0.0,0.0,0.0,0.0,0.0,0.0,0.9182,1.0016,1.1416,1.231,1.2292,1.198,1.1604,1.1218,0.0,0.0,0.0,0.0,0.0,0.0,0.0,0.0,0.0,0.0,0.0,0.0,0.0,0.0,0.0,0.0,0.0,0.0,0.0,0.0,0.0,0.0,0.0,0.0,0.0,0.0,0.0,0.0,0.0,0.0,0.0,0.0,0.0,0.0,0.0,0.0,0.0,0.0,0.0,0.0,0.0,0.0,0.0,0.0,0.0,0.0,0.0,0.0,0.0,0.0,0.0,0.0,0.0,0.0,0.0,0.0,0.0,0.0,0.0,0.0,0.0,0.0,0.0,0.0,0.0,0.0,0.0,0.0,0.0,0.0,0.0,0.0,0.0,0.0,0.0,0.0,0.0,0.0,0.0,0.0,0.0,0.0,0.0,0.0,0.0,0.0,0.0,0.0,0.0,0.0,0.0,0.0,0.0,0.0,0.0,0.0,0.0,0.0,0.0,0.0,0.0,0.0,0.0,0.896,0.9408,0.9265,0.9936,1.0387,1.0357,1.0063,1.009,1.0562,1.1374,0.0,0.0,0.0,0.0,0.0,0.0,0.0,0.0,0.0,0.0,0.0,0.0,0.0,0.0,0.0,0.0,0.0,0.0,0.0,0.0,0.0,0.0,0.0,0.0,0.0,0.0,0.0,0.0,0.0,0.0,0.0,0.0,0.0,0.0,0.0,0.0,0.0,0.0,0.0,0.0,0.0,0.0,0.0,0.0,0.0,0.0,0.0,0.0,0.0,0.0,0.0,0.0,0.0,0.0,0.0,0.0,0.0,0.0,0.0,0.0,0.0,0.0,0.0,0.0,0.0,0.0,0.0,0.0,0.0,0.0,0.0,0.0,0.0,0.0,0.0,0.0,0.0,0.0,0.0,0.0,0.0,0.0,0.0,0.0,0.0,0.0,0.0,0.0,0.0,0.0,0.0,0.0,0.0,0.0,0.0,0.0,0.0,0.0,0.0,0.0,0.0,0.0,0.9452,0.9017,0.8492,0.8488,0.8574,0.8704,0.8779,0.917,1.0042,1.0097,0.0,0.0,0.0,0.0,0.0,0.0,0.0,0.0,0.0,0.0,0.0,0.0,0.0,0.0,0.0,0.0,0.0,0.0,0.0,0.0,0.0,0.0,0.0,0.0,0.0,0.0,0.0,0.0,0.0,0.0,0.0,0.0,0.0,0.0,0.0,0.0,0.0,0.0,0.0,0.0,0.0,0.0,0.0,0.0,0.0,0.0,0.0,0.0,0.0,0.0,0.0,0.0,0.0,0.0,0.0,0.0,0.0,0.0,0.0,0.0,0.0,0.0,0.0,0.0,0.0,0.0,0.0,0.0,0.0,0.0,0.0,0.0,0.0,0.0,0.0,0.0,0.0,0.0,0.0,0.0,0.0,0.0,0.0,0.0,0.0,0.0,0.0,0.0,0.0,0.0,0.0,0.0,0.0,0.0,0.0,0.0,0.0,0.0,0.0,0.0,0.0,0.0,0.7532,0.6857,0.76,0.7682,0.7991,0.8739,0.88,0.9174,1.0035,1.0103,0.0,0.0,0.0,0.0,0.0,0.0,0.0,0.0,0.0,0.0,0.0,0.0,0.0,0.0,0.0,0.0,0.0,0.0,0.0,0.0,0.0,0.0,0.0,0.0,0.0,0.0,0.0,0.0,0.0,0.0,0.0,0.0,0.0,0.0,0.0,0.0,0.0,0.0,0.0,0.0,0.0,0.0,0.0,0.0,0.0,0.0,0.0,0.0,0.0,0.0,0.0,0.0,0.0,0.0,0.0,0.0,0.0,0.0,0.0,0.0,0.0,0.0,0.0,0.0,0.0,0.0,0.0,0.0,0.0,0.0,0.0,0.0,0.0,0.0,0.0,0.0,0.0,0.0,0.0,0.0,0.0,0.0,0.0,0.0,0.0,0.0,0.0,0.0,0.0,0.0,0.0,0.0,0.0,0.0,0.0,0.0,0.0,0.0,0.0,0.0,0.0,0.0,0.8744,0.8389,0.0,0.8087,0.8527,0.8834,0.8827,0.9174,1.0037,0.0,0.0,0.0,0.0,0.0,0.0,0.0,0.0,0.0,0.0,0.0,0.0,0.0,0.0,0.0,0.0,0.0,0.0,0.0,0.0,0.0,0.0,0.0,0.0,0.0,0.0,0.0,0.0,0.0,0.0,0.0,0.0,0.0,0.0,0.0,0.0,0.0,0.0,0.0,0.0,0.0,0.0,0.0,0.0,0.0,0.0,0.0,0.0,0.0,0.0,0.0,0.0,0.0,0.0,0.0,0.0,0.0,0.0,0.0,0.0,0.0,0.0,0.0,0.0,0.0,0.0,0.0,0.0,0.0,0.0,0.0,0.0,0.0,0.0,0.0,0.0,0.0,0.0,0.0,0.0,0.0,0.0,0.0,0.0,0.0,0.0,0.0,0.0,0.0,0.0,0.0,0.0,0.0,0.0,0.0,0.0,0.0,0.0,0.0,0.0,0.0,0.0,0.8974,0.9135,0.8869,0.0,0.8138,0.8594,0.8881,0.9101,0.9464,1.0056,0.0,0.0,0.0,0.0,0.0,0.0,0.0,0.0,0.0,0.0,0.0,0.0,0.0,0.0,0.0,0.0,0.0,0.0,0.0,0.0,0.0,0.0,0.0,0.0,0.0,0.0,0.0,0.0,0.0,0.0,0.0,0.0,0.0,0.0,0.0,0.0,0.0,0.0,0.0,0.0,0.0,0.0,0.0,0.0,0.0,0.0,0.0,0.0,0.0,0.0,0.0,0.0,0.0,0.0,0.0,0.0,0.0,0.0,0.0,0.0,0.0,0.0,0.0,0.0,0.0,0.0,0.0,0.0,0.0,0.0,0.0,0.0,0.0,0.0,0.0,0.0,0.0,0.0,0.0,0.0,0.0,0.0,0.0,0.0,0.0,0.0,0.0,0.0,0.0,0.0,0.0,0.0,0.0,0.0,0.0,0.0,0.0,0.0,0.0,0.0,0.0,0.0,0.89,0.8157,0.7624,0.7624,0.7624,0.7985,0.8843,0.966,1.0101,0.0,0.0,0.0,0.0,0.0,0.0,0.0,0.0,0.0,0.0,0.0,0.0,0.0,0.0,0.0,0.0,0.0,0.0,0.0,0.0,0.0,0.0,0.0,0.0,0.0,0.0,0.0,0.0,0.0,0.0,0.0,0.0,0.0,0.0,0.0,0.0,0.0,0.0,0.0,0.0,0.0,0.0,0.0,0.0,0.0,0.0,0.0,0.0,0.0,0.0,0.0,0.0,0.0,0.0,0.0,0.0,0.0,0.0,0.0,0.0,0.0,0.0,0.0,0.0,0.0,0.0,0.0,0.0,0.0,0.0,0.0,0.0,0.0,0.0,0.0,0.0,0.0,0.0,0.0,0.0,0.0,0.0,0.0,0.0,0.0,0.0,0.0,0.0,0.0,0.0,0.0,0.0,0.0,0.0,0.0,0.0,0.0,0.0,0.0,0.0,0.0,0.0,0.0,0.8977,0.9173,0.9136,0.8577,0.9021,0.9462,0.9729,1.0536,1.0744,1.014,0.0,0.0,0.0,0.0,0.0,0.0,0.0,0.0,0.0,0.0,0.0,0.0,0.0,0.0,0.0,0.0,0.0,0.0,0.0,0.0,0.0,0.0,0.0,0.0,0.0,0.0,0.0,0.0,0.0,0.0,0.0,0.0,0.0,0.0,0.0,0.0,0.0,0.0,0.0,0.0,0.0,0.0,0.0,0.0,0.0,0.0,0.0,0.0,0.0,0.0,0.0,0.0,0.0,0.0,0.0,0.0,0.0,0.0,0.0,0.0,0.0,0.0,0.0,0.0,0.0,0.0,0.0,0.0,0.0,0.0,0.0,0.0,0.0,0.0,0.0,0.0,0.0,0.0,0.0,0.0,0.0,0.0,0.0,0.0,0.0,0.0,0.0,0.0,0.0,0.0,0.0,0.0,0.0,0.0,0.0,0.0,0.0,0.0,0.0,0.0,0.0,0.0,0.944,0.9806,0.9921,0.9421,1.0115,1.0615,1.0615,1.1712,1.2036,1.1186,0.0,0.0,0.0,0.0,0.0,0.0,0.0,0.0,0.0,0.0,0.0,0.0,0.0,0.0,0.0,0.0,0.0,0.0,0.0,0.0,0.0,0.0,0.0,0.0,0.0,0.0,0.0,0.0,0.0,0.0,0.0,0.0,0.0,0.0,0.0,0.0,0.0,0.0,0.0,0.0,0.0,0.0,0.0,0.0,0.0,0.0,0.0,0.0,0.0,0.0,0.0,0.0,0.0,0.0,0.0,0.0,0.0,0.0,0.0,0.0,0.0,0.0,0.0,0.0,0.0,0.0,0.0,0.0,0.0,0.0,0.0,0.0,0.0,0.0,0.0,0.0,0.0,0.0,0.0,0.0,0.0,0.0,0.0,0.0,0.0,0.0,0.0,0.0,0.0,0.0,0.0,0.0,0.0,0.0,0.0,0.0,0.0,0.0,0.0,0.0,0.0,0.0,1.0094,1.0094,1.0133,1.0212,1.0925,1.1427,1.1504,1.2978,1.3555,1.2738,0.0,0.0,0.0,0.0,0.0,0.0,0.0,0.0,0.0,0.0,0.0,0.0,0.0,0.0,0.0,0.0,0.0,0.0,0.0,0.0,0.0,0.0,0.0,0.0,0.0,0.0,0.0,0.0,0.0,0.0,0.0,0.0,0.0,0.0,0.0,0.0,0.0,0.0,0.0,0.0,0.0,0.0,0.0,0.0,0.0,0.0,0.0,0.0,0.0,0.0,0.0,0.0,0.0,0.0,0.0,0.0,0.0,0.0,0.0,0.0,1.2798,0.0,0.0,0.0,0.0,0.0,0.0,0.0,0.0,0.0,0.0,0.0,0.0,0.0,0.0,0.0,0.0,0.0,0.0,0.0,0.0,0.0,0.0,0.0,0.0,0.0,0.0,0.0,0.0,0.0,0.0,0.0,0.0,0.0,0.0,0.0,0.0,0.0,0.0,0.0,0.0,0.0,1.0094,1.0094,1.0365,1.1041,1.1293,1.1678,1.2353,1.3327,1.3533,1.2685,0.0,0.0,0.0,0.0,0.0,0.0,0.0,0.0,0.0,0.0,0.0,0.0,0.0,0.0,0.0,0.0,0.0,0.0,0.0,0.0,0.0,0.0,0.0,0.0,0.0,0.0,0.0,0.0,0.0,0.0,0.0,0.0,0.0,0.0,0.0,0.0,0.0,0.0,0.0,0.0,0.0,0.0,0.0,0.0,0.0,0.0,0.0,0.0,0.0,0.0,0.0,0.0,0.0,0.0,0.0,0.0,0.0,0.0,0.0,0.0,0.0,1.3994,0.0,0.0,0.0,0.0,0.0,0.0,0.0,0.0,0.0,0.0,0.0,0.0,0.0,0.0,0.0,0.0,0.0,0.0,0.0,0.0,0.0,0.0,0.0,0.0,0.0,0.0,0.0,0.0,0.0,0.0,0.0,0.0,0.0,0.0,0.0,0.0,0.0,0.0,0.0,0.0,1.0094,1.0462,1.0906,1.1351,1.2115,1.2788,1.3233,1.4038,1.4324,1.3879,1.3456,0.0,0.0,0.0,0.0,0.0,0.0,0.0,0.0,0.0,0.0,0.0,0.0,0.0,0.0,0.0,0.0,0.0,0.0,0.0,0.0,0.0,0.0,0.0,0.0,0.0,0.0,0.0,0.0,0.0,0.0,0.0,0.0,0.0,0.0,0.0,0.0,0.0,0.0,0.0,0.0,0.0,0.0,0.0,0.0,0.0,0.0,0.0,0.0,0.0,0.0,0.0,0.0,0.0,1.5944,1.6217,1.7034,1.6894,1.8033,1.9975,1.7774,1.7272,1.7808,0.0,0.0,0.0,0.0,0.0,0.0,0.0,0.0,0.0,0.0,0.0,0.0,0.0,0.0,0.0,0.0,0.0,0.0,0.0,0.0,0.0,0.0,0.0,0.0,0.0,1.9095,2.0017,0.0,0.0,0.0,0.0,0.0,0.0,0.0,0.0,0.0,0.0,0.0,0.0,1.0538,1.131,1.1848,1.1848,1.3344,1.4283,1.4148,1.5058,1.5577,1.5442,1.5433,1.5104,0.0,0.0,0.0,0.0,0.0,0.0,0.0,0.0,0.0,0.0,0.0,0.0,0.0,0.0,0.0,0.0,0.0,0.0,0.0,0.0,0.0,0.0,0.0,0.0,0.0,0.0,0.0,0.0,0.0,0.0,0.0,0.0,1.4852,1.4869,0.0,0.0,0.0,0.0,0.0,0.0,0.0,0.0,0.0,0.0,0.0,0.0,0.0,0.0,1.6312,1.8528,2.0011,2.0764,2.2118,2.3195,2.3956,2.3253,2.3499,2.4413,2.3388,0.0,1.887,1.9178,0.0,0.0,0.0,0.0,0.0,0.0,0.0,0.0,0.0,0.0,0.0,0.0,0.0,0.0,0.0,0.0,0.0,0.0,0.0,0.0,0.0,0.0,2.2105,2.1998,2.1647,2.1666,0.0,2.0127,1.7426,1.7316,0.0,0.0,0.0,0.0,0.0,0.0,0.0,0.0,1.2257,1.3077,1.3572,1.3572,1.5115,1.5849,1.5096,1.6465,1.7064,1.6369,1.633,1.6247,1.6084,1.4351,0.0,0.0,0.0,0.0,0.0,0.0,0.0,0.0,0.0,0.0,0.0,0.0,0.0,0.0,0.0,0.0,0.0,0.0,0.0,0.0,0.0,0.0,0.0,0.0,0.0,0.0,0.0,0.0,0.0,1.4667,1.5547,1.6486,1.5994,1.5188,0.0,0.0,0.0,0.0,0.0,0.0,0.0,0.0,0.0,1.8015,1.8076,1.8689,2.0034,2.1151,2.1901,2.2288,2.3018,2.3548,2.3908,2.4505,2.4716,2.4697,2.5779,2.4827,2.241,2.0912,1.9424,1.805,0.0,0.0,0.0,0.0,0.0,1.7673,2.005,1.9938,0.0,0.0,0.0,0.0,0.0,0.0,0.0,0.0,0.0,0.0,0.0,0.0,0.0,2.3413,2.3581,2.3846,2.462,2.3319,2.1587,0.0,1.9872,1.8617,1.4593,0.0,0.0,0.0,0.0,0.0,1.27,1.3404,1.4091,1.4574,1.5753,1.6522,1.6599,1.7276,1.7545,1.7199,1.7638,1.7885,1.7865,1.671,1.529,0.0,0.0,0.0,0.0,0.0,0.0,0.0,0.0,0.0,0.0,0.0,0.0,0.0,0.0,0.0,0.0,0.0,0.0,0.0,0.0,0.0,0.0,0.0,0.0,0.0,0.0,0.0,0.0,1.6282,1.7446,1.8267,1.8412,1.7841,0.0,0.0,0.0,0.0,0.0,0.0,1.776,1.8007,1.8979,2.0881,2.0931,2.1652,2.3124,2.3336,2.3543,2.3774,2.3774,2.3894,2.4144,2.5173,2.5428,2.5164,2.6837,2.6967,2.5769,2.3269,2.1981,2.1462,2.0408,1.9831,1.9792,2.1096,2.1177,2.1066,2.4212,2.4058,2.262,2.3485,0.0,2.1019,1.9738,0.0,0.0,0.0,0.0,2.0558,2.1635,2.2524,2.3355,2.4202,2.487,2.5308,2.5308,2.5308,2.475,0.0,2.2462,2.1,1.6343,0.0,0.0,0.0,0.0,1.4096,1.3719,1.4368,1.5036,1.5481,1.6696,1.7523,1.7699,1.8103,1.818,1.7738,1.8523,1.8907,1.8684,1.8541,1.7647,1.5907,0.0,0.0,0.0,0.0,0.0,0.0,0.0,0.0,0.0,0.0,0.0,0.0,0.0,0.0,0.0,0.0,0.0,0.0,0.0,0.0,0.0,0.0,0.0,0.0,0.0,0.0,0.0,0.0,0.0,2.035,2.0177,0.0,0.0,0.0,0.0,1.8786,1.9608,2.0411,2.1301,2.2072,2.2541,2.2673,2.2675,2.3109,2.4033,2.4793,2.5596,2.6409,2.6409,2.6832,2.7626,2.6871,2.6967,2.7664,2.6967,2.7082,2.7761,2.7588,2.6544,2.5115,2.5865,2.5654,2.4923,2.5019,2.5019,2.5019,2.5231,2.5231,2.525,2.614,2.5231,2.3803,2.3798,2.3197,0.0,0.0,2.3802,2.4221,2.5851,2.5164,2.424,2.5058,2.5269,2.5308,2.5308,2.5308,2.5269,0.0,2.5115,2.4019,2.0577,0.0,1.9231,1.6638,1.5618,1.5423,1.6215,1.7007,1.7237,1.6503,1.8638,1.9446,1.7834,1.9215,1.9465,1.7795,1.853,1.8626,1.7795,1.9384,1.9444,1.7692,1.6845,0.0,0.0,0.0,0.0,0.0,0.0,0.0,0.0,0.0,0.0,0.0,0.0,0.0,0.0,0.0,0.0,0.0,0.0,0.0,0.0,0.0,0.0,0.0,0.0,0.0,0.0,0.0,0.0,2.268,2.3704,0.0,0.0,2.2246,2.225,2.2308,2.311,2.3951,2.4842,2.51,2.5491,2.6059,2.6078,2.6222,2.6549,2.6274,2.6288,2.6601,2.6038,2.5923,2.6231,2.6486,2.6467,2.6269,2.7082,2.7294,2.7159,2.8222,2.8005,2.7005,2.7313,2.7255,2.6967,2.6967,2.7294,2.7755,2.7755,2.7755,2.7717,2.7505,2.7024,2.6505,2.6549,2.6332,2.6159,2.6452,2.6549,2.6549,2.6582,2.6563,2.6337,2.55,2.5731,2.5981,2.5423,2.5308,2.5308,2.5308,2.5308,2.4404,2.1558,2.2004,2.1701,1.8577,1.8769,1.9173,1.8965,1.9196,1.9465,1.9696,2.0077,2.0485,2.095,2.0562,2.0512,2.102,2.0292,2.0207,2.1001,2.1163,2.0931,2.0258,2.0058,1.7997,0.0,0.0,0.0,0.0,0.0,0.0,0.0,0.0,0.0,0.0,0.0,0.0,0.0,0.0,0.0,0.0,0.0,0.0,0.0,0.0,0.0,0.0,0.0,0.0,0.0,0.0,2.4283,2.4874,2.668,2.7219,2.5541,2.5897,2.6017,2.5458,2.5922,2.6492,2.706,2.706,2.7295,2.7878,2.7901,2.7895,2.7895,2.7332,2.7044,2.7024,2.6154,2.5731,2.5769,2.6351,2.6269,2.5827,2.7274,2.7736,2.7525,2.8646,2.8953,2.8736,2.8736,2.8736,2.8736,2.8736,2.9083,2.9544,2.9544,2.9544,2.9448,2.8929,2.8736,2.8736,2.8736,2.8736,2.8679,2.8396,2.8107,2.778,2.7198,2.7255,2.7236,2.639,2.6621,2.689,2.6288,2.6173,2.6173,2.6173,2.5692,2.4673,2.2716,2.3336,2.3124,2.0269,2.0558,2.0792,1.9965,2.0119,2.0385,2.0619,2.0688,2.1146,2.2274,2.1077,2.0897,2.2367,2.1105,2.0835,2.2007,2.1255,2.08,2.0795,2.0873,1.9084,1.5333,0.0,0.0,0.0,0.0,0.0,0.0,0.0,0.0,0.0,0.0,0.0,0.0,0.0,0.0,0.0,0.0,0.0,0.0,0.0,0.0,0.0,0.0,0.0,2.0542,2.5447,2.853,2.6948,2.8967,2.9822,2.8184,2.8029,2.8078,2.812,2.8073,2.8062,2.8062,2.8021,2.803,2.803,2.7992,2.7992,2.7992,2.7953,2.7934,2.7934,2.7082,2.6659,2.664,2.6678,2.6659,2.6697,2.7525,2.8338,2.9069,2.9088,2.9602,3.0365,3.0385,3.0404,3.0404,3.0404,3.0404,3.0404,3.0404,3.0404,3.0404,3.0404,3.0404,3.0404,3.0423,3.0423,3.0212,2.9371,2.8569,2.7934,2.7934,2.7313,2.689,2.7703,2.7895,2.7895,2.7876,2.7857,2.7857,2.7857,2.6524,2.5115,2.4317,2.4187,2.3605,2.1889,2.0923,0.0,1.928,1.9869,2.0062,1.9242,2.058,2.1556,2.1615,2.0795,2.07,2.1644,2.0874,2.043,2.0559,1.9715,1.9311,1.9409,1.9328,1.8902,1.8126,0.0,0.0,0.0,0.0,0.0,0.0,0.0,0.0,0.0,0.0,0.0,0.0,0.0,0.0,0.0,0.0,0.0,0.0,0.0,0.0,0.0,0.0,2.5874,2.5787,2.7698,2.9402,3.0194,3.1476,3.1854,3.0758,3.1226,3.1331,3.0736,3.1251,3.158,3.1537,3.0973,3.066,3.066,3.0044,2.9712,2.9712,2.9083,2.878,2.878,2.853,2.8107,2.7563,2.8145,2.8088,2.7563,2.7799,2.803,2.828,2.8857,2.9242,2.9525,3.0154,3.0404,3.0404,3.0404,3.0404,3.0404,3.0404,3.0404,3.0404,3.0404,3.0404,3.0519,3.1154,3.0904,3.0346,3.0115,2.9429,2.878,2.878,2.8588,2.8338,2.7992,2.7895,2.7741,2.7082,2.6967,2.6967,2.6967,2.7082,2.6909,2.6063,2.5909,2.5543,2.4423,2.3562,0.0,2.266,2.2329,2.2233,2.2583,2.2516,2.2934,2.4149,2.2915,2.2716,0.0,2.2912,2.2686,2.3966,2.3275,2.3186,2.3833,2.2029,2.0986,0.0,0.0,0.0,0.0,0.0,0.0,0.0,0.0,0.0,0.0,0.0,0.0,0.0,0.0,0.0,0.0,0.0,0.0,0.0,0.0,0.0,0.0,2.6615,2.8898,3.0802,3.116,3.1614,3.2633,3.3512,3.3698,3.2837,3.3209,3.3145,3.2318,3.2697,3.2935,3.2891,3.2468,3.2199,3.2199,3.1385,3.1115,3.1442,3.0602,3.0352,3.0685,3.0352,2.9756,2.8967,2.9429,2.9179,0.0,2.9159,2.9486,2.9544,3.0352,3.0649,0.0,0.0,0.0,0.0,0.0,3.1231,3.0981,3.1327,3.1231,3.1,3.1346,3.1442,3.1538,3.2045,3.1852,3.1385,3.1038,3.0314,2.9737,3.0083,2.991,2.9698,2.9929,2.9987,2.9756,2.8929,2.8736,2.864,2.825,0.0,0.0,2.7794,2.7063,2.6197,2.4986,2.438,2.3928,2.3554,2.306,2.2801,2.294,2.2508,2.2623,2.3611,2.2791,0.0,0.0,0.0,2.2948,2.3289,2.3262,0.0,0.0,0.0,2.2704,2.3426,0.0,0.0,0.0,2.1539,2.0521,0.0,0.0,0.0,0.0,0.0,0.0,0.0,0.0,0.0,0.0,0.0,0.0,0.0,0.0,0.0,0.0,2.9427,3.0948,3.5058,3.4891,3.4359,3.4359,3.5021,3.5207,3.4424,3.436,3.4051,3.3339,3.3314,3.3295,3.3199,0.0,0.0,0.0,0.0,3.2179,3.2891,3.2199,3.216,3.2756,3.2237,3.1487,3.0558,3.0635,3.0256,2.9608,3.1064,3.1756,3.1891,3.2602,3.2851,3.2718,3.1955,3.168,3.1795,3.2506,3.2314,3.1814,3.2622,0.0,0.0,3.2679,3.2891,3.291,3.3026,3.2987,3.2756,3.2045,3.1212,3.075,3.1621,3.1192,3.0942,3.2526,3.2833,3.2564,3.1852,3.1698,3.1448,3.0577,3.0481,3.0212,2.914,2.7712,2.6192,2.4625,2.4169,2.3746,2.3021,2.2791,2.2465,2.1847,0.0,0.0,2.1913,2.1876,2.2201,2.3103,2.3113,2.2454,2.1043,2.1696,2.1829,2.1239,2.2743,2.4351,2.6,2.7542,2.8303,2.8126,2.1126,1.9891,0.0,0.0,0.0,0.0,0.0,0.0,0.0,0.0,0.0,0.0,0.0,0.0,0.0,0.0,0.0,3.049,3.1661,3.3179,3.6058,3.575,3.525,3.525,3.5391,3.5437,3.5257,3.5244,3.5187,3.5033,3.5603,3.5673,3.5019,3.5,0.0,3.3975,3.3122,3.2737,3.2891,3.2756,3.2429,3.1948,0.0,0.0,3.1468,3.2122,3.2314,3.2141,3.1833,3.2064,3.2679,3.2833,3.3301,3.3729,3.2091,3.1551,3.1718,3.1872,3.1833,3.1814,3.2622,3.2795,3.2699,3.2852,3.2891,3.3026,3.3744,3.3449,0.0,3.2718,3.2083,3.1641,3.2468,3.2064,3.1698,3.2679,3.241,3.1891,3.1737,3.1698,3.1448,3.0577,3.0962,3.0725,2.8428,2.778,2.7248,2.6268,2.4912,2.3922,2.371,2.3111,2.29,2.3388,2.3426,2.372,2.4505,2.4502,2.4574,2.4817,2.4869,2.4818,2.4603,2.4142,2.4477,2.5726,2.6071,2.676,2.7795,2.8147,2.8303,2.8244,2.6037,2.5451,0.0,0.0,0.0,0.0,0.0,0.0,0.0,0.0,0.0,0.0,0.0,2.3266,2.5458,0.0,3.0113,3.3548,3.4166,3.4949,3.7046,3.6635,3.5942,3.5558,3.55,3.55,3.55,3.5865,3.6096,3.6096,3.6462,3.6519,3.6115,3.5712,3.5308,3.4853,3.4007,3.3757,3.4199,3.3776,3.3353,3.2968,3.4237,3.3737,3.1737,3.2949,3.3071,3.2314,3.2737,3.3147,3.3583,3.3906,3.4361,3.4705,3.3225,3.3044,3.3596,3.3596,3.3333,3.3064,3.391,3.393,3.3622,3.4064,3.4192,3.4276,3.4718,3.4545,3.4295,3.4699,3.4205,3.3743,3.4576,3.4152,3.36,3.4004,3.3792,3.3396,3.2993,3.2904,3.266,3.1808,3.1679,3.1417,3.0515,2.8929,2.7522,2.6672,2.582,2.5083,2.4613,2.3818,2.3443,2.3859,2.3515,2.344,2.3903,2.3981,2.4202,2.4722,2.4807,2.4891,2.4999,2.4992,2.5636,2.6968,2.7422,2.7854,2.8303,2.8732,2.8732,2.8283,2.7854,2.7426,0.0,0.0,0.0,0.0,0.0,0.0,0.0,0.0,2.0178,2.3711,2.5123,2.679,3.0244,3.1288,3.2788,3.6365,3.6269,3.625,3.7796,3.7123,3.6231,3.5577,3.55,3.5635,3.5942,3.6423,3.6769,3.6942,3.7123,3.7065,3.6712,3.625,3.5846,3.5519,3.4814,3.4795,3.5481,3.4795,3.4379,3.4205,3.5084,3.4327,3.2205,3.3506,3.3589,3.2744,3.4215,3.4786,3.4731,3.5274,3.5488,3.5409,3.4546,3.4748,3.5481,3.5308,3.4795,3.4359,3.5385,3.5276,3.4795,3.55,3.5731,3.5692,3.5558,3.55,3.5673,3.6474,3.6183,3.5854,3.6711,3.6374,3.5814,3.5806,3.5672,3.5419,3.493,3.458,3.4152,3.3506,3.2731,3.234,3.2827,3.0478,2.8189,2.7136,2.6552,2.5985,2.5296,2.4585,2.4159,2.4167,2.352,2.3113,2.311,2.3235,2.362,2.4392,2.45,2.4632,2.4881,2.5527,2.6385,2.7484,2.8186,2.8557,2.8557,2.9261,2.9241,2.8557,2.8381,2.7835,2.1153,1.8901,1.8337,2.1192,2.0792,2.1505,0.0,0.0,2.6471,2.9963,3.1346,3.2058,3.2526,3.4468,3.6404,3.7642,3.7142,3.6904,3.7853,3.6635,3.5596,3.5519,3.55,3.6077,3.7584,3.7103,3.7019,3.7796,3.8565,3.8334,3.6769,3.7353,3.7046,3.5558,3.5404,3.5404,3.55,3.5404,3.4968,3.4205,3.5084,3.4909,3.3845,3.4017,3.4843,3.6188,3.7159,3.7135,3.6423,3.6505,3.6121,3.55,3.5371,3.539,3.5404,3.4622,3.4282,3.4436,3.6026,3.65,3.6442,3.6519,3.6577,3.6423,3.5712,3.55,3.5666,3.6464,3.6632,3.6748,3.7544,3.7697,3.7609,3.7616,3.7022,3.6638,3.7329,3.6305,3.5232,3.5144,3.4467,3.3692,3.3019,3.1937,3.0612,2.897,2.6796,2.5312,2.5216,2.5115,2.5089,2.513,2.5003,2.4927,2.4995,2.5066,2.5185,2.534,2.5363,2.5735,2.6597,2.675,2.7626,2.928,2.9397,2.9456,2.9456,2.9553,2.9553,2.9436,2.8654,2.7835,2.585,2.4233,2.3465,0.0,2.5346,2.6215,2.996,3.0094,3.0273,3.3295,3.4538,3.5122,3.5122,3.6411,3.7411,0.0,3.7353,3.7411,3.7257,3.6231,3.55,3.55,3.5045,3.5218,3.6423,3.6635,3.6846,3.7219,3.7584,3.7469,3.6731,3.6596,3.6212,3.5519,3.55,3.55,3.55,3.55,3.5064,3.4205,3.5084,3.4762,3.3449,3.4946,3.6269,3.7425,3.7831,3.7762,3.7401,3.7435,3.6969,3.6192,3.6192,3.6192,3.6154,3.5795,3.5641,3.5834,3.7046,3.7469,3.7365,3.6863,3.7029,3.7148,3.5789,3.6089,3.6965,3.7295,3.7747,3.8172,3.8512,3.8563,3.8421,3.7906,3.7504,3.736,3.774,3.6883,3.6063,3.6128,3.5062,3.4185,3.4337,3.2827,3.1508,3.1244,2.8606,2.6471,2.595,2.549,2.5412,2.6001,2.6033,2.6246,2.6826,2.6895,2.6947,2.7018,2.7042,2.7256,2.7647,2.769,2.8056,2.883,2.9339,2.9358,2.883,2.9358,2.9592,2.9592,2.9221,2.8851,2.8078,2.7634,0.0,2.8419,2.9366,3.0414,3.1704,3.2478,3.3484,3.5429,3.6481,3.6981,3.6731,3.7411,3.7796,3.7161,3.7392,3.743,3.6788,3.5782,3.5102,3.5102,3.4359,3.4186,3.5025,3.6077,3.6788,3.7038,3.7065,3.6942,3.6712,3.6154,3.5731,3.5519,3.55,3.55,3.55,3.5712,3.5404,3.4564,3.5423,3.5173,3.4032,3.6349,3.7709,3.8262,3.8562,3.8531,3.8297,3.8346,3.7834,3.7065,3.7065,3.7065,3.7084,3.7334,3.7257,3.7173,3.8031,3.8339,3.8216,3.7575,3.7751,3.7955,3.6466,3.6899,3.7953,3.8167,3.8821,3.9512,3.9705,3.9888,3.9832,3.8963,3.8572,3.8428,3.8482,3.7638,3.6963,3.7306,3.6151,3.5283,3.5693,3.403,3.2762,3.31,3.0471,2.8121,2.7223,2.6433,2.6119,2.6588,2.6848,2.7273,2.7992,2.8031,2.7951,2.7779,2.7834,2.7875,2.7868,2.7872,2.8002,2.8283,2.8928,2.8928,2.8303,2.9163,2.9592,2.9612,2.9827,2.9807,2.5823,0.0,2.7945,3.0624,3.2045,3.3442,3.5923,3.6519,3.6577,3.6654,3.7353,3.77,3.6865,3.7411,3.7988,3.7969,3.7276,3.6731,3.6692,3.5229,3.4133,3.4133,3.3434,3.3262,0.0,3.5698,3.7038,3.7892,3.7969,3.7584,3.675,3.6673,3.6308,3.5519,3.55,3.55,3.55,3.6269,3.625,3.5462,3.6269,3.664,3.6642,3.8358,3.9146,3.9211,4.0058,3.9977,3.9258,3.9265,3.8738,3.7969,3.7969,3.7969,3.8065,3.8911,3.8681,3.8077,3.8877,3.9149,3.9149,3.9071,3.9035,3.8901,3.8068,3.7857,3.806,3.8842,3.9682,4.0543,4.1237,4.2049,4.246,4.159,4.0788,4.0225,4.0225,3.8932,3.801,3.8872,3.835,3.7547,3.6788,3.5912,3.5002,3.4183,3.1917,2.9991,2.9033,2.8287,2.7526,2.6775,2.7458,2.8023,2.8179,2.8135,2.7753,2.6987,2.7004,2.7033,2.7033,2.7048,2.7426,2.8283,2.8323,2.8323,2.8303,2.9163,2.9592,2.9612,3.0392,3.0353,2.729,0.0,3.1344,3.3566,3.4787,3.5795,3.7238,3.7565,3.7411,3.6808,3.6396,3.5703,3.4251,3.4212,3.4423,3.4423,3.4779,3.5238,3.5827,3.5357,3.4767,3.4217,3.4368,0.0,0.0,0.0,0.0,3.6269,3.6827,3.7,3.6712,3.7257,3.718,3.6327,3.6308,3.6038,3.5519,3.6308,3.6308,3.55,3.5769,3.6788,3.8416,3.8416,3.9012,4.0077,4.0373,4.0342,4.0092,4.0092,3.9611,3.8854,3.8854,3.8854,3.8892,3.9188,3.9457,3.97,3.9973,4.0021,3.9895,3.9303,3.9459,3.9635,3.8204,3.8578,3.9429,3.9115,4.006,4.1198,4.1428,4.2145,4.2718,4.2441,4.2163,4.18,4.1227,4.0224,3.9382,3.9141,3.8421,3.7756,3.7547,3.6769,3.5729,3.4318,3.1943,2.9825,2.8397,2.7514,2.7161,2.7469,2.785,2.8087,2.8123,2.8685,2.8669,2.7818,2.7782,2.7794,2.7794,2.7847,2.7737,2.7445,2.801,2.7737,2.6585,2.7445,2.7875,2.7875,2.8148,2.844,2.9436,3.1733,3.406,3.6298,3.7007,3.7392,3.8277,3.7757,3.6853,3.5988,3.4767,3.3391,3.1969,3.1721,3.1809,3.208,3.2766,3.3782,3.5255,3.4901,3.4618,3.5004,3.4942,0.0,0.0,0.0,0.0,3.5441,3.6498,3.7005,3.6712,3.7526,3.7738,3.718,3.7161,3.693,3.6404,3.7219,3.7373,3.6853,3.6853,3.7719,3.9284,3.9008,3.9477,4.0496,4.0496,4.0496,4.0496,4.0496,4.0208,3.9727,3.9727,3.9727,3.9727,3.9727,4.0058,4.0492,4.0492,4.0455,4.0311,3.9727,3.9876,4.008,3.8963,3.9603,4.0616,4.0043,4.1094,4.2393,4.2393,4.3042,4.3625,4.333,4.3243,4.2908,4.1772,4.1113,4.0492,3.9678,3.9085,3.8625,3.8361,3.737,3.6128,3.4738,3.2896,3.0945,2.8977,2.8286,2.8055,2.8338,2.8729,2.913,2.9463,2.9515,2.9306,2.8739,2.8127,2.7626,2.7314,2.7342,2.7112,2.6547,2.7093,2.682,2.5707,2.6567,2.6996,2.7016,2.764,2.8048,3.205,3.4075,3.6044,3.8696,3.87,3.8257,3.8957,3.7199,3.5154,3.4135,3.2464,3.0927,0.0,0.0,3.024,3.1081,3.1505,3.2603,3.5119,3.4131,3.4007,0.0,0.0,0.0,0.0,0.0,0.0,3.559,0.0,3.7629,3.6865,3.7661,3.8104,3.8065,3.8065,3.8046,3.8007,3.8815,3.9284,3.9361,3.9265,3.9284,3.94,4.0112,4.0458,4.0496,4.0496,4.0496,4.0496,4.0496,4.0496,4.0496,4.0496,4.0496,4.0496,4.0496,4.0503,4.051,4.051,4.0449,4.0379,4.0325,4.029,4.0301,4.0339,4.0883,4.1514,4.1552,4.2737,4.4006,4.4006,4.4647,4.5107,4.4345,4.4114,4.3635,4.2068,4.1676,4.139,4.0568,4.0396,4.0109,3.9294,3.7814,3.6427,3.55,3.4674,3.3268,3.0782,3.0423,3.0084,2.9284,2.9998,3.0873,3.1729,3.0448,2.955,2.9473,2.7951,2.6663,2.5805,2.5805,2.5805,2.5765,2.5765,2.5765,2.5765,2.6606,2.7016,2.7113,2.8753,2.9057,3.474,3.6822,3.8566,3.9873,3.9573,3.8527,3.6853,3.5467,3.3696,3.0777,2.917,2.7967,0.0,0.0,0.0,2.9945,3.207,0.0,3.6108,3.7052,0.0,3.7579,0.0,3.7734,3.7502,3.8071,0.0,0.0,3.827,3.8808,3.8642,3.9419,3.9592,3.8996,3.8977,3.8661,3.8007,3.8219,3.895,4.0189,3.8931,3.8988,4.0189,3.9785,3.9938,4.0496,4.0496,4.0496,4.0496,4.0496,4.0496,4.0496,4.0496,4.0496,4.0496,4.0496,4.0508,4.05,4.05,4.0419,4.0325,4.0362,4.0336,4.0416,4.1017,4.1342,4.1628,4.2297,4.3214,4.4006,4.4006,4.4678,4.5311,4.5111,4.5054,4.4738,4.3685,4.3455,4.3187,4.2326,4.1648,4.0941,4.0129,3.9141,3.7942,3.6419,3.5511,3.4091,3.161,3.077,3.0069,2.9222,2.938,2.9407,2.904,2.9243,2.8865,2.7657,2.7774,2.7535,2.6702,2.7288,2.7327,2.6684,2.6664,2.6664,2.6664,2.6899,2.7328,2.7971,2.8371,2.8421,3.6619,3.8435,3.9938,4.04,3.9323,3.7666,3.5794,3.3594,3.1156,2.8287,2.6849,0.0,0.0,0.0,0.0,0.0,0.0,0.0,3.6351,3.7502,3.8331,0.0,3.9095,0.0,3.8963,3.9382,3.9503,0.0,3.9487,3.9634,3.9315,4.0054,4.0285,3.9842,3.9823,3.9592,3.9104,3.9488,3.995,4.0496,3.9554,3.9592,4.0477,4.0035,4.0073,4.0496,0.0,4.0496,4.0496,4.0496,4.0496,4.0496,4.0496,4.0496,4.0496,4.0496,4.0496,4.0496,4.0496,4.0452,4.0388,4.0407,4.0363,4.0453,4.1256,4.1762,4.224,4.31,4.394,4.4571,4.462,4.5014,4.5418,4.5448,4.5419,4.517,4.4327,4.4125,4.3732,4.246,4.1552,4.0836,4.0376,3.9612,3.8731,3.7781,3.6618,3.5205,3.3458,3.1879,3.0757,3.0294,2.9955,2.9747,2.9674,2.978,2.9489,2.8577,2.8656,2.837,2.756,2.8023,2.8069,2.7582,2.7953,2.8148,2.8148,2.8148,2.8577,2.9395,2.8998,2.9006,3.8269,3.9565,4.0631,4.04,3.8507,3.6356,3.5005,3.1691,2.8356,2.6339,0.0,2.4014,2.2767,2.4362,2.6306,2.763,0.0,3.2961,3.6395,3.6971,3.7886,4.0213,3.9829,3.964,4.0339,4.0511,4.0556,4.0502,4.0606,4.0315,3.9488,4.0131,4.0554,4.0669,4.0669,4.0727,4.0843,4.1585,4.1546,4.0669,4.0669,4.0612,4.0496,4.0496,4.0496,4.0496,0.0,0.0,4.0669,4.0554,4.0573,4.0669,4.0554,4.0496,4.0496,4.0496,4.0496,4.0496,4.0496,4.0511,4.0482,4.0432,4.0447,4.0632,4.1437,4.2278,4.3158,4.396,4.4725,4.5338,4.5379,4.5399,4.5429,4.5495,4.5467,4.5218,4.4499,4.4221,4.3656,4.2145,4.1103,4.0491,4.0479,3.9764,3.9181,3.911,3.7721,3.6407,3.5584,3.3407,3.1905,3.1865,3.1232,3.112,3.1869,3.1306,3.0863,3.0769,3.0104,2.9379,2.8573,2.8715,2.8752,2.8635,2.9495,2.9924,2.9924,2.9924,3.0353,3.1132,3.0427,3.0411,4.0912,4.1354,4.1239,3.9861,3.8084,3.5888,3.2771,2.9966,0.0,0.0,2.3357,2.2885,2.3173,2.4291,0.0,2.9165,0.0,0.0,0.0,0.0,3.9204,0.0,0.0,0.0,0.0,0.0,0.0,0.0,0.0,0.0,4.0342,4.0419,4.0843,4.1546,4.1566,4.1912,4.2643,4.2797,4.245,4.1566,4.1566,4.12,4.0496,4.0496,4.0496,4.0496,0.0,0.0,4.1527,4.0804,4.0912,4.1508,4.0785,4.0496,4.0496,4.0496,4.0496,4.0496,4.0496,4.0489,4.0492,4.0482,4.092,4.1614,4.241,4.3273,4.4126,4.493,4.5266,4.5381,4.541,4.5438,4.5495,4.5495,4.5495,4.5438,4.5218,4.4614,4.401,4.3713,4.2469,4.1471,4.1461,4.0734,3.993,3.9218,3.8271,3.7367,3.6569,3.481,3.3409,3.275,3.2563,3.2537,3.2697,3.2574,3.2235,3.1637,3.1507,3.1113,3.0305,3.1019,3.1094,3.0371,3.1211,3.1662,3.1662,3.1662,3.2109,3.2947,3.2744,3.2372,4.1008,4.145,4.1412,3.9719,3.7334,3.4697,3.1976,0.0,0.0,0.0,2.264,2.2243,2.177,0.0,0.0,0.0,0.0,0.0,0.0,0.0,0.0,0.0,0.0,0.0,0.0,0.0,0.0,0.0,0.0,0.0,4.1162,4.1604,4.1835,4.1788,4.2643,4.2874,4.2431,4.3297,4.3297,4.2489,4.2489,4.2258,4.1835,4.1373,4.1412,4.1835,4.1373,0.0,4.2412,4.1546,4.1431,4.1712,4.0835,4.0785,4.1123,4.0669,4.0785,4.1104,4.0669,4.0496,4.0489,4.0511,4.1048,4.185,4.2657,4.3502,4.4365,4.517,4.54,4.541,4.5438,4.5485,4.5504,4.5531,4.5541,4.5495,4.5448,4.4767,4.402,4.3561,4.2506,4.1574,4.1159,4.0692,4.0262,3.9893,3.8717,3.7758,3.7375,3.5828,3.4466,3.366,3.316,3.2891,3.2891,3.3314,3.3224,3.2419,3.2444,3.2307,3.1911,3.1996,3.2058,3.2099,3.2999,3.3456,3.3456,3.3456,3.3905,3.4724,3.3791,3.313,4.0588,4.1269,4.1354,3.9488,3.6591,3.3602,3.1286,2.7784,0.0,0.0,2.2015,2.1593,2.0575,0.0,2.4491,0.0,0.0,0.0,0.0,0.0,0.0,0.0,0.0,0.0,0.0,0.0,0.0,0.0,0.0,0.0,4.175,4.245,4.2681,4.2354,4.3605,4.3758,4.2624,4.3912,4.4162,4.3355,4.3355,4.3278,4.3085,4.2393,4.245,4.3066,4.2374,0.0,0.0,4.2239,4.1904,4.1989,4.1123,4.1085,4.1489,4.1162,4.1373,4.1731,4.1219,4.1054,4.1054,4.1054,4.1473,4.2123,4.2741,4.3673,4.4632,4.5266,4.5438,4.5448,4.5504,4.5513,4.5522,4.5568,4.555,4.5495,4.5485,4.4824,4.3962,4.3079,4.2263,4.1456,4.0644,4.0466,4.043,4.0491,3.918,3.8204,3.8197,3.6726,3.5434,3.4795,3.3968,3.3468,3.3468,3.4083,3.418,3.3506,3.3336,3.3283,3.3271,3.2799,3.287,3.3535,3.4486,3.4953,3.4968,3.4968,3.5302,3.5949,3.4578,3.3707,4.0927,4.1687,4.1212,3.8738,3.6142,3.3294,2.9815,0.0,0.0,2.1622,2.0741,2.0504,2.1153,2.1536,2.275,2.5868,0.0,2.8524,0.0,0.0,0.0,0.0,0.0,0.0,0.0,0.0,0.0,0.0,0.0,0.0,0.0,4.1885,4.2585,4.4028,4.422,4.4605,4.5248,4.5402,4.5056,4.4182,4.4182,4.3816,4.3104,4.3028,4.3028,4.3104,0.0,0.0,0.0,4.247,4.2277,4.2893,4.2027,4.1258,4.0804,4.2316,4.2412,4.1904,4.2604,4.2854,4.2854,4.2854,4.2912,4.2981,4.3058,4.4192,4.5481,4.5558,4.5577,4.5577,4.5586,4.5586,4.5577,4.5513,4.5504,4.5485,4.5419,4.4824,4.4026,4.3162,4.2351,4.1511,4.0642,4.0489,4.0481,4.0508,3.9738,3.9173,3.9181,3.7654,3.6558,3.6481,3.5731,3.525,3.525,3.5327,3.5346,3.5269,3.4583,3.4179,3.4188,3.4249,3.4315,3.4396,3.532,3.5782,3.578,3.578,3.5831,3.591,3.5732,3.4854,3.8996,4.0572,4.1192,3.8642,3.5664,3.2594,2.9647,0.0,2.2776,2.1443,2.0591,2.0189,2.0453,2.0999,2.1979,2.3743,2.4528,0.0,0.0,0.0,0.0,0.0,0.0,0.0,0.0,0.0,0.0,0.0,0.0,0.0,0.0,4.2758,4.3393,4.3566,4.4547,4.4998,4.4816,4.5344,4.5441,4.5075,4.5075,4.4921,4.4586,4.4066,4.4105,4.4566,0.0,0.0,0.0,4.3278,4.3066,4.3682,4.2335,4.22,4.2816,4.3028,4.3181,4.3297,4.3143,4.3104,4.3104,4.3104,4.3431,4.3816,4.3816,4.4643,4.5594,4.5594,4.5594,4.5594,4.5594,4.5594,4.5586,4.5568,4.5568,4.5559,4.5541,4.5281,4.4809,4.3944,4.3126,4.2316,4.1431,4.0854,4.0496,4.0496,3.9823,3.9304,3.9304,3.8238,3.7276,3.675,3.5981,3.55,3.55,3.55,3.55,3.55,3.4673,3.4417,3.4944,3.4589,3.4635,3.5159,3.5645,3.5899,3.5908,3.5904,3.5899,3.5908,3.5931,3.5328,3.6631,3.8658,3.9765,3.7747,3.4815,3.1724,0.0,0.0,2.2301,2.1113,2.0464,2.006,1.9909,2.048,2.1252,2.2193,2.2943,2.4569,2.7942,0.0,0.0,0.0,0.0,0.0,0.0,0.0,0.0,0.0,0.0,0.0,0.0,4.3028,4.3797,4.347,4.4605,4.5037,4.4682,4.5287,4.5594,4.5594,4.5594,4.5594,4.5575,4.496,4.5017,4.5575,0.0,0.0,0.0,4.4047,4.3797,4.4182,4.3008,4.3124,4.3932,4.3874,4.4028,4.4259,4.3951,4.3835,4.3835,4.3835,4.422,4.4682,4.4682,4.5114,4.5594,4.5594,4.5594,4.5594,4.5594,4.5594,4.5594,4.5594,4.5594,4.5594,4.5594,4.5594,4.5344,4.447,4.3835,4.3104,4.1981,4.1296,4.0804,4.0535,4.0015,3.965,3.965,3.8911,3.8142,3.7526,3.6731,3.6038,3.5538,3.5928,3.5998,3.5505,3.5057,3.497,3.5345,3.4898,3.4939,3.5585,3.5753,3.5856,3.5859,3.5864,3.5883,3.5897,3.5951,3.5508,3.4148,3.5979,3.647,3.5618,3.3508,3.0714,0.0,0.0,2.2216,2.0461,2.0112,2.006,1.9909,1.9912,2.0416,2.1942,2.2203,2.346,0.0,0.0,0.0,0.0,0.0,0.0,0.0,0.0,0.0,0.0,0.0,0.0,0.0,4.2162,4.347,4.4259,4.4297,4.472,4.5575,4.5594,4.5594,4.5594,4.5594,4.5594,4.5594,4.5594,4.5594,0.0,0.0,0.0,0.0,4.4643,4.4297,4.4297,4.4278,4.3797,4.3316,4.4979,4.5037,4.4412,4.5287,4.5575,4.5575,4.5575,4.5575,4.5594,4.5594,4.5594,4.5594,4.5594,4.5594,4.5594,4.5594,4.5594,4.5594,4.5594,4.5594,4.5594,4.5594,4.5594,4.5344,4.447,4.4297,4.3758,4.2077,4.1788,4.1489,4.0631,4.0496,4.0496,4.0496,3.9785,3.9284,3.9265,3.8488,3.7296,3.5635,3.6964,3.7172,3.5501,3.6086,3.612,3.5327,3.5353,3.5463,3.5601,3.5674,3.5735,3.5795,3.5799,3.5841,3.5908,3.5892,3.5476,2.9583,3.1615,3.2851,3.145,2.9558,2.7465,2.5294,0.0,2.1406,2.0204,2.0045,2.006,1.9909,1.9907,2.0391,2.1941,2.2196,2.2983,0.0,0.0,0.0,0.0,0.0,0.0,0.0,0.0,0.0,0.0,0.0,0.0,0.0,4.1585,4.2604,4.3451,4.4586,4.5325,4.5594,4.5594,4.5594,4.5594,4.5594,4.5594,4.5594,4.5594,0.0,0.0,0.0,0.0,0.0,4.4662,4.4297,4.4297,4.4297,4.4143,4.4066,4.519,4.5441,4.5229,4.5498,4.5594,4.5594,4.5594,4.5594,4.5594,4.5594,4.5594,4.5594,4.5594,4.6028,4.6355,4.5748,4.6028,4.6336,4.5748,4.5594,4.5594,4.5594,4.5594,4.5518,4.5248,4.4259,4.3316,4.2777,4.17,4.0823,4.0535,4.0496,4.0496,4.0496,4.0285,3.9919,3.9361,3.9554,3.9019,3.7283,3.7613,3.7425,3.6297,3.6396,3.6143,3.5327,3.536,3.5416,3.5463,3.5615,3.5718,3.5723,3.5826,3.5574,3.5032,3.5616,3.5446,2.5608,2.7923,2.9392,2.8338,2.7012,2.5504,0.0,0.0,2.1083,2.0152,1.9996,1.992,1.9525,1.9362,1.9619,2.0606,2.1253,0.0,0.0,0.0,0.0,0.0,0.0,0.0,0.0,0.0,0.0,0.0,0.0,0.0,0.0,0.0,4.2854,4.3085,4.4412,4.5267,4.5594,4.5594,4.5594,4.5594,4.5594,4.5594,4.5594,4.5594,0.0,0.0,0.0,0.0,0.0,4.5017,4.4605,4.4335,4.4662,4.4586,4.4412,4.5287,4.5594,4.5594,4.5594,4.5594,4.5594,4.5594,4.5594,4.5594,4.5594,4.5594,4.5594,4.5594,4.599,4.6278,4.5748,4.599,4.6278,4.5729,4.5594,4.5594,4.5594,4.5594,4.5594,4.5594,4.4767,4.3835,4.3201,4.22,4.1266,4.0593,4.05,4.0492,4.0496,4.05,4.03,3.9804,4.0208,4.005,3.8965,3.8865,3.8342,3.7132,3.6996,3.6597,3.579,3.5818,3.5863,3.5888,3.604,3.6287,3.6632,3.6452,3.5931,3.5115,3.5969,3.5891,0.0,2.4587,2.5944,2.5873,2.5357,2.4402,2.2792,0.0,0.0,2.017,1.992,1.962,1.8937,1.8532,1.8403,1.8634,1.9813,0.0,0.0,0.0,0.0,0.0,0.0,0.0,0.0,0.0,0.0,0.0,0.0,0.0,0.0,0.0,4.3893,4.3201,4.397,4.4778,4.5594,4.5594,4.5594,4.5594,4.5594,4.5594,4.5594,4.5594,0.0,0.0,0.0,0.0,0.0,4.5594,4.5056,4.4316,4.5248,4.5037,4.4335,4.5267,4.5594,4.5594,4.5594,4.5594,4.5594,4.5594,4.5594,4.5594,4.5594,4.5594,4.5594,4.5594,4.5633,4.5691,4.5614,4.5652,4.5691,4.5614,4.5594,4.5594,4.5594,4.5594,4.5594,4.5594,4.5498,4.494,4.3374,4.3008,4.2374,4.0739,4.0495,4.0518,4.0577,4.0526,4.0518,4.0585,4.0527,4.0492,4.051,4.0441,3.9689,3.7991,3.7823,3.7422,3.6537,3.6564,3.66,3.6601,3.6723,3.7266,3.8194,3.7512,3.6786,3.5995,3.6825,3.6766,1.6843,0.0,2.1435,2.0819,2.0986,2.1187,0.0,2.006,0.0,0.0,0.0,0.0,0.0,1.905,1.9107,0.0,0.0,0.0,0.0,0.0,0.0,0.0,0.0,0.0,0.0,0.0,0.0,0.0,0.0,0.0,0.0,0.0,4.3585,4.3989,4.4863,4.5402,4.5594,4.5594,4.5594,4.5594,4.5594,4.5594,4.5594,4.5594,0.0,0.0,0.0,0.0,4.5594,4.5594,4.472,4.3528,4.5017,4.4682,4.3566,4.5056,4.5594,4.5594,4.5594,4.5594,4.5594,4.5594,4.5594,4.5594,4.5594,4.5594,4.5594,4.5594,4.6086,4.6432,4.5768,4.6086,4.6432,4.5768,4.5594,4.5594,4.5594,4.5594,4.5594,4.5594,4.4547,4.3566,4.3162,4.1989,4.0962,4.0564,4.0491,4.0724,4.1332,4.0835,4.0671,4.1347,4.0864,4.0499,4.0502,4.0493,3.9991,3.8861,3.8782,3.8093,3.6564,3.6564,3.6285,3.5638,3.6394,3.7268,3.8194,3.8122,3.7642,3.6845,3.77,3.7642,1.4332,1.729,2.004,1.9609,1.9815,2.0145,2.0112,0.0,0.0,0.0,0.0,0.0,0.0,0.0,0.0,0.0,0.0,0.0,0.0,0.0,0.0,0.0,0.0,0.0,0.0,0.0,0.0,0.0,0.0,0.0,0.0,0.0,4.3912,4.3181,4.4739,4.5594,4.5594,4.5594,4.5594,4.5594,4.5594,4.5594,4.5594,4.5594,0.0,0.0,0.0,0.0,4.5594,4.5594,4.4825,4.3778,4.5094,4.4806,4.3816,4.5114,4.5594,4.5594,4.5594,4.5594,4.5594,4.5594,4.5594,4.5594,4.5594,4.5594,4.5594,4.5594,4.5932,4.6182,4.5729,4.5951,4.6182,4.571,4.5594,4.5594,4.5594,4.5594,4.5594,4.5594,4.4883,4.4124,4.372,4.2874,4.2124,4.1745,4.1671,4.1807,4.2288,4.1897,4.1782,4.226,4.1574,4.1075,4.1053,4.0375,3.9852,3.9665,3.9297,3.8682,3.7737,3.7381,3.6999,3.6589,3.7488,3.8059,3.8302,3.8772,3.8557,3.7702,3.8173,3.794,1.3589,1.695,1.9944,1.9806,2.0054,2.0294,2.0112,0.0,0.0,0.0,0.0,0.0,0.0,0.0,0.0,0.0,0.0,0.0,0.0,0.0,0.0,0.0,0.0,0.0,0.0,0.0,0.0,0.0,0.0,0.0,0.0,0.0,0.0,4.2258,4.4278,4.5353,4.5225,4.5494,4.5552,4.5436,4.5571,4.5543,4.5402,4.5402,4.5325,0.0,0.0,0.0,4.5229,4.5229,4.4701,4.4028,4.5017,4.4883,4.4239,4.5229,4.5594,4.5594,4.5594,4.5518,4.5421,4.5556,4.5594,4.5594,4.5594,4.5594,4.5594,4.5594,4.5594,4.5594,4.5594,4.5594,4.5594,4.5594,4.5594,4.5594,4.5594,4.5594,4.5594,4.5594,4.5498,4.5171,4.4432,4.4192,4.3865,4.3165,4.3015,4.3037,4.3208,4.3075,4.301,4.3145,4.2334,4.1758,4.1709,4.0329,3.9714,4.0286,3.9555,3.9112,3.9103,3.8326,3.8009,3.8254,3.8955,3.9121,3.8777,3.9524,3.9431,3.86,3.8717,3.8251,1.4252,1.6888,1.874,1.8013,1.9452,2.0853,2.0091,1.9194,0.0,0.0,0.0,0.0,0.0,0.0,0.0,0.0,0.0,0.0,0.0,0.0,0.0,0.0,0.0,0.0,0.0,0.0,0.0,0.0,0.0,0.0,0.0,0.0,0.0,4.3912,4.4297,4.419,4.3566,4.503,4.5397,4.4687,4.5416,4.531,4.4489,4.4489,4.4124,0.0,0.0,4.347,4.347,4.347,4.297,4.2335,4.3893,4.3989,4.347,4.5037,4.5594,4.5594,4.5594,4.5133,4.4624,4.5364,4.5594,4.5594,4.5594,4.5594,4.5594,4.5594,4.5594,4.5594,4.5594,4.5594,4.5594,4.5594,4.5594,4.5594,4.5594,4.5594,4.5594,4.5594,4.4998,4.4451,4.4316,4.3686,4.3143,4.2963,4.287,4.3073,4.378,4.3254,4.3111,4.3838,4.2546,4.1645,4.17,4.0807,4.029,4.0379,3.9635,3.9155,3.9108,3.8276,3.8191,3.9031,3.9215,3.9664,4.043,4.0621,4.0305,3.9528,4.0208,3.9684,1.3303,1.5552,1.7542,1.79,1.9908,2.1695,2.1292,2.028,0.0,0.0,0.0,0.0,0.0,0.0,0.0,0.0,0.0,0.0,0.0,0.0,0.0,0.0,0.0,0.0,0.0,0.0,0.0,0.0,0.0,0.0,0.0,0.0,0.0,0.0,4.3162,4.3069,4.1867,4.3537,4.4194,4.3807,4.42,4.4129,4.3643,4.3643,4.3451,4.3104,0.0,4.3104,4.3104,4.3104,4.2854,4.2624,4.3835,4.4066,4.3893,4.5152,4.5594,4.5594,4.5594,4.5344,4.5075,4.5479,4.5594,4.5594,4.5594,4.5594,4.5594,4.5594,4.5594,4.5594,4.5594,4.5594,4.5594,4.5594,4.5594,4.5594,4.5594,4.5594,4.5594,4.5594,4.5241,4.4954,4.4954,4.4583,4.4297,4.4259,4.4212,4.4346,4.4719,4.4432,4.4355,4.4766,4.3714,4.2804,4.2336,4.1128,4.0407,4.0407,4.004,3.9629,3.9118,3.8756,3.8777,3.9244,3.9354,3.9666,4.0208,4.1174,4.0974,3.9723,4.1056,4.0978,1.343,1.5152,1.7007,1.8712,0.0,2.2187,2.2703,2.1784,0.0,0.0,0.0,0.0,0.0,0.0,0.0,0.0,0.0,0.0,0.0,0.0,0.0,0.0,0.0,0.0,0.0,0.0,0.0,0.0,0.0,0.0,0.0,0.0,0.0,0.0,4.2109,4.2125,4.0713,4.1977,4.2705,4.2905,4.3098,4.3067,4.2797,4.2797,4.2681,4.2489,4.2489,4.2489,4.2489,4.2489,4.2489,4.2585,4.3624,4.4124,4.4374,4.5056,4.5056,4.4739,4.494,4.4883,4.4759,4.5171,4.5306,4.5325,4.5537,4.5594,4.5594,4.5594,4.5594,4.5594,4.5594,4.5594,4.5594,4.5594,4.5594,4.5594,4.5594,4.5594,4.5594,4.5594,4.555,4.5504,4.5504,4.5448,4.541,4.541,4.54,4.539,4.539,4.539,4.537,4.5369,4.4633,4.3704,4.2594,4.1379,4.06,4.0391,4.0389,4.0083,3.9431,3.9445,3.9533,3.9644,3.9745,3.9959,4.0286,4.1632,4.1589,4.0325,4.1861,4.1978,1.6571,1.7189,1.7759,2.0369,2.1142,2.1821,2.3872,2.3772,0.0,2.6427,0.0,0.0,0.0,0.0,0.0,0.0,0.0,0.0,0.0,0.0,0.0,0.0,0.0,0.0,0.0,0.0,0.0,0.0,0.0,0.0,0.0,0.0,0.0,0.0,0.0,4.1508,4.0713,4.0816,4.1255,4.2009,4.2808,4.2734,4.1885,4.1885,4.145,4.0689,4.0689,4.0689,4.0689,4.0689,4.0689,4.0843,4.2527,4.3643,4.4316,4.4374,4.3412,4.22,4.3008,4.2758,4.2335,4.3893,4.4393,4.4528,4.5344,4.5594,4.5594,4.5594,4.5594,4.5594,4.5594,4.5594,4.5594,4.5594,4.5594,4.5594,4.5594,4.5594,4.5594,4.5594,4.555,4.5504,4.5504,4.5438,4.5389,4.5389,4.5348,4.5317,4.5317,4.5317,4.5317,4.5307,4.4543,4.3348,4.1724,4.1542,4.1169,4.0358,4.0299,4.0313,4.0312,4.031,4.0426,4.0686,4.0697,4.1136,4.2019,4.216,4.2141,4.2039,4.2991,4.25,1.5631,1.6666,1.7828,1.9936,2.1616,0.0,0.0,2.5976,2.6863,2.7809,2.9068,0.0,0.0,0.0,0.0,0.0,0.0,0.0,0.0,0.0,0.0,0.0,0.0,0.0,0.0,0.0,0.0,0.0,0.0,0.0,0.0,0.0,0.0,0.0,0.0,4.0866,4.0586,4.0586,4.074,4.1029,4.1448,4.1421,4.0989,4.0989,4.0804,4.0496,4.0496,4.0496,4.0496,4.0496,4.0496,4.0612,4.1816,4.2816,4.3547,4.3547,4.3143,4.2662,4.2989,4.2874,4.2797,4.3932,4.4297,4.4451,4.5344,4.5594,4.5594,4.5594,4.5594,4.5594,4.5594,4.5594,4.5594,4.5594,4.5594,4.5594,4.5594,4.5594,4.5586,4.555,4.5485,4.5448,4.5429,4.5389,4.5338,4.5338,4.5317,4.5307,4.5307,4.5307,4.5307,4.5307,4.4532,4.3739,4.3119,4.2126,4.1399,4.1074,4.0586,4.0332,4.0397,4.0485,4.0614,4.0794,4.138,4.1577,4.1393,4.3019,4.3252,4.2252,4.4209,4.4477,1.6154,1.7184,1.8515,1.996,0.0,0.0,2.6599,2.7997,2.921,3.0422,3.1327,0.0,0.0,0.0,0.0,0.0,0.0,0.0,0.0,0.0,0.0,0.0,0.0,0.0,0.0,0.0,0.0,0.0,0.0,0.0,0.0,0.0,0.0,0.0,0.0,3.9046,3.9296,3.9573,3.9708,3.9727,4.0337,4.06,4.0496,4.0496,4.0496,4.0496,4.0496,4.0496,4.0496,4.0496,4.0669,4.0969,4.1566,4.2162,4.2701,4.2701,4.2527,4.2277,4.2277,4.2277,4.2412,4.3239,4.3508,4.372,4.4863,4.519,4.5248,4.5518,4.5594,4.5594,4.5594,4.5594,4.5594,4.5594,4.5594,4.5594,4.5594,4.5577,4.554,4.5504,4.5448,4.5409,4.5389,4.5338,4.5307,4.5307,4.5307,4.5307,4.5307,4.5307,4.5307,4.5307,4.4762,4.4293,4.4025,4.2947,4.2202,4.1991,4.1195,4.0663,4.0462,4.0581,4.0842,4.1228,4.1873,4.2175,4.2131,4.3937,4.4326,4.3437,4.522,4.5745,1.8913,1.9233,2.0006,0.0,0.0,0.0,2.9053,2.978,3.0885,3.4977,0.0,0.0,0.0,0.0,0.0,0.0,0.0,0.0,0.0,0.0,0.0,0.0,0.0,0.0,0.0,0.0,0.0,0.0,0.0,0.0,0.0,0.0,0.0,0.0,0.0,0.0,3.6692,3.7565,3.7988,3.8027,3.9669,4.0477,4.0496,4.0496,4.0496,4.0496,4.0496,4.0496,4.0496,4.0496,4.0989,4.1769,4.1769,4.1788,4.1788,4.1788,4.1239,4.0496,4.0496,4.0496,4.065,4.1527,4.1788,4.2115,4.3797,4.4297,4.447,4.5344,4.5594,4.5594,4.5594,4.5594,4.5594,4.5594,4.5594,4.5594,4.5594,4.555,4.5504,4.5504,4.5458,4.5408,4.5408,4.5338,4.5307,4.5307,4.5307,4.5307,4.5307,4.5307,4.5307,4.5307,4.5307,4.4953,4.4083,4.4006,4.3723,4.3056,4.2192,4.1385,4.0665,4.0745,4.1253,4.2189,4.2214,4.3068,4.4792,4.4812,4.522,4.6002,4.6002,4.6002,1.7905,1.8872,0.0,2.1669,0.0,0.0,0.0,3.1026,0.0,0.0,0.0,0.0,0.0,0.0,0.0,0.0,0.0,0.0,0.0,0.0,0.0,0.0,0.0,0.0,0.0,0.0,0.0,0.0,0.0,0.0,0.0,0.0,0.0,0.0,3.7552,3.7373,3.7603,3.7257,3.7392,3.8007,3.7873,3.8777,4.0496,4.0496,4.0496,4.0477,3.99,3.9977,4.0496,4.0496,4.0323,4.0104,4.0662,4.0893,4.0893,4.0893,4.0727,4.0496,4.0496,4.0496,4.065,4.1527,4.1788,4.2115,4.3797,4.4297,4.447,4.5344,4.5594,4.5594,4.5594,4.5594,4.5594,4.5594,4.5594,4.5586,4.555,4.5513,4.5495,4.5448,4.5409,4.5398,4.5338,4.5317,4.5307,4.5307,4.5307,4.5307,4.5307,4.5307,4.5307,4.5307,4.5307,4.5201,4.4934,4.4441,4.4067,4.3862,4.3196,4.2724,4.2512,4.195,4.2106,4.3102,4.3724,4.4287,4.4792,4.5375,4.5769,4.6002,4.6002,4.6002,1.9049,2.0138,0.0,2.3277,0.0,0.0,0.0,0.0,0.0,0.0,0.0,0.0,0.0,0.0,0.0,0.0,0.0,0.0,0.0,0.0,0.0,0.0,0.0,0.0,0.0,0.0,0.0,0.0,0.0,0.0,0.0,0.0,0.0,0.0,3.6054,3.5815,3.6469,3.6315,3.6481,3.7007,3.7161,3.8027,3.9515,3.9515,3.9708,3.9977,3.915,3.9065,3.9534,3.9881,3.9746,3.9381,4.0189,4.0496,4.0496,4.0496,4.0496,4.0496,4.0496,4.0496,4.0593,4.1104,4.1277,4.1604,4.3316,4.3585,4.3624,4.5171,4.5344,4.5171,4.5518,4.5594,4.5594,4.5594,4.5594,4.5577,4.5513,4.5485,4.5448,4.5399,4.5388,4.5338,4.5307,4.5307,4.5307,4.5307,4.5307,4.5307,4.5307,4.5307,4.5307,4.5307,4.5339,4.538,4.538,4.4968,4.4761,4.4869,4.4158,4.3937,4.4352,4.3222,4.3031,4.3996,4.4489,4.4893,4.5248,4.5714,4.5966,4.5966,4.5986,4.6002,2.1214,0.0,0.0,0.0,0.0,0.0,0.0,0.0,0.0,0.0,0.0,0.0,0.0,0.0,0.0,0.0,0.0,0.0,0.0,0.0,0.0,0.0,0.0,0.0,0.0,0.0,0.0,0.0,0.0,0.0,0.0,0.0,0.0,0.0,3.2865,3.2429,3.3955,3.4757,3.5231,0.0,3.6853,3.7623,3.7777,3.793,3.8392,3.9015,3.8238,3.7834,3.7834,3.87,3.9073,3.915,3.9958,4.0265,4.0285,4.0362,4.0342,4.0285,4.0458,4.0458,4.04,4.04,4.0439,4.0804,4.2374,4.2431,4.2431,4.4806,4.4979,4.4605,4.5402,4.5594,4.5594,4.5586,4.5586,4.5577,4.5504,4.5438,4.54,4.5389,4.5338,4.5307,4.5307,4.5307,4.5307,4.5307,4.5307,4.5307,4.5307,4.5307,4.5307,4.5307,4.5429,4.5495,4.5485,4.5504,4.5627,4.5873,4.5034,4.4987,4.5952,4.4462,4.4035,4.4889,4.4781,4.5118,4.59,4.5886,4.5886,4.59,4.5953,4.5991,1.9185,2.1312,0.0,0.0,0.0,0.0,0.0,0.0,0.0,0.0,0.0,0.0,0.0,0.0,0.0,0.0,0.0,0.0,0.0,0.0,0.0,0.0,0.0,0.0,0.0,0.0,0.0,0.0,0.0,0.0,0.0,0.0,0.0,3.1462,3.1635,3.1872,3.2237,3.2429,3.3179,0.0,3.4141,3.4718,3.6077,3.7411,3.7738,3.7257,3.7058,3.6615,3.6096,3.6923,3.7257,3.7334,3.82,3.8546,3.8623,3.9304,3.913,3.8719,4.0035,4.0092,3.9554,3.9554,3.9996,4.0573,4.0958,4.1873,4.3066,4.4239,4.494,4.5364,4.5556,4.5594,4.5586,4.5522,4.5513,4.5504,4.5429,4.54,4.5389,4.5328,4.5307,4.5307,4.5307,4.5307,4.5307,4.5307,4.5307,4.5307,4.5307,4.5307,4.5307,4.5307,4.5429,4.5457,4.535,4.554,4.5692,4.5739,4.5631,4.5706,4.5997,4.5045,4.4909,4.573,4.5659,4.5706,4.59,4.5791,4.5791,4.59,4.5899,4.5955,1.9644,0.0,0.0,0.0,0.0,0.0,0.0,0.0,0.0,0.0,0.0,0.0,0.0,0.0,0.0,0.0,0.0,0.0,0.0,0.0,0.0,0.0,0.0,0.0,0.0,0.0,0.0,0.0,0.0,0.0,0.0,2.989,2.9577,3.0365,3.0448,3.0852,3.1698,3.1698,3.2333,3.3583,3.3545,3.4007,3.4911,3.5776,3.5718,3.4891,3.4891,3.4641,3.4346,3.5615,3.6135,3.625,3.7507,3.8257,3.8681,3.913,3.9015,3.8738,3.9631,3.9381,3.8681,3.8681,3.9246,3.9996,4.0381,4.1131,4.22,4.3835,4.4355,4.4586,4.5348,4.5577,4.5577,4.5485,4.5485,4.5476,4.54,4.5409,4.5388,4.5317,4.5307,4.5307,4.5307,4.5307,4.5307,4.5307,4.5307,4.5307,4.5307,4.5307,4.5307,4.5307,4.5429,4.5495,4.5495,4.5566,4.5673,4.5822,4.5757,4.5771,4.5949,4.5486,4.546,4.5935,4.5854,4.5769,4.5715,4.5643,4.5651,4.5715,4.5833,4.5925,2.0188,0.0,2.3432,0.0,0.0,0.0,0.0,0.0,0.0,0.0,0.0,0.0,0.0,0.0,0.0,0.0,0.0,0.0,0.0,0.0,0.0,0.0,0.0,0.0,0.0,0.0,0.0,0.0,0.0,0.0,2.9769,2.8429,2.8236,2.9481,2.8967,2.9429,3.1025,3.1179,3.166,3.2487,3.3051,3.3321,3.3321,3.3186,3.3026,3.2891,3.2891,3.2987,3.3237,3.468,3.5365,3.5635,3.7026,3.8007,3.8642,3.8642,3.8553,3.8438,3.8584,3.8161,3.7584,3.7738,3.8469,3.9419,4.0092,4.0496,4.1162,4.325,4.3596,4.3598,4.4919,4.5426,4.5541,4.5438,4.5448,4.5467,4.5409,4.5398,4.5378,4.5307,4.5307,4.5307,4.5307,4.5307,4.5307,4.5307,4.5307,4.5307,4.5307,4.5307,4.5307,4.5307,4.5429,4.554,4.5616,4.5575,4.5637,4.5898,4.5669,4.5632,4.5893,4.5791,4.5776,4.5866,4.5739,4.5618,4.5504,4.5476,4.5476,4.5504,4.5754,4.588,0.0,0.0,0.0,0.0,0.0,0.0,0.0,0.0,0.0,0.0,0.0,0.0,0.0,0.0,0.0,0.0,0.0,0.0,0.0,0.0,0.0,0.0,0.0,0.0,0.0,0.0,0.0,0.0,0.0,0.0,2.7236,2.6909,2.6519,2.6,2.6596,2.7409,2.839,2.9107,2.9871,3.0731,3.0083,2.9781,2.9761,2.9069,3.0256,3.2891,3.2891,3.3333,3.4052,3.4282,3.4814,3.5519,3.575,3.5904,3.6,3.6,3.5526,3.4994,3.5757,3.5923,3.5942,3.6654,3.7969,3.9323,3.9438,4.0469,4.1692,4.1967,4.3064,4.4189,4.4326,4.4901,4.541,4.539,4.5399,4.5399,4.5408,4.5348,4.5307,4.5307,4.5307,4.5307,4.5307,4.5307,4.5307,4.5307,4.5307,4.5307,4.5307,4.5307,4.5307,4.5307,4.5429,4.5457,4.536,4.5558,4.5632,4.5573,4.5624,4.5746,4.5893,4.5886,4.5838,4.5731,4.5601,4.5522,4.5504,4.539,4.539,4.5504,4.566,4.5783,1.8583,0.0,0.0,0.0,0.0,0.0,0.0,0.0,0.0,0.0,0.0,0.0,0.0,0.0,0.0,0.0,0.0,0.0,0.0,0.0,0.0,0.0,0.0,0.0,0.0,0.0,0.0,0.0,0.0,2.8082,2.5981,2.5865,2.5692,2.5308,2.5673,2.6288,2.7159,2.7525,2.8352,2.966,2.8838,2.867,2.9129,2.8285,2.8698,3.0121,3.0583,3.0993,3.1416,3.2391,3.3026,3.3423,3.3872,3.4635,3.5442,3.4949,3.4834,3.4911,3.4814,3.4449,3.418,3.5026,3.6142,3.7257,3.7719,3.9004,4.0449,4.0894,4.1906,4.3041,4.3915,4.4442,4.4825,4.5244,4.5359,4.5398,4.5348,4.5317,4.5307,4.5307,4.5307,4.5307,4.5307,4.5307,4.5307,4.5307,4.5307,4.5307,4.5307,4.5307,4.5307,4.5307,4.535,4.54,4.5419,4.5448,4.5513,4.561,4.5531,4.554,4.5676,4.559,4.554,4.5476,4.5575,4.554,4.539,4.5338,4.5568,4.606,4.6264,4.6658,0.0,0.0,0.0,0.0,0.0,0.0,0.0,0.0,0.0,0.0,0.0,0.0,0.0,0.0,0.0,0.0,0.0,0.0,0.0,0.0,0.0,0.0,0.0,0.0,0.0,0.0,0.0,0.0,0.0,2.714,2.5385,2.5308,2.5308,2.5308,2.5308,2.5712,2.6601,2.6601,2.7236,2.8453,2.7621,2.7574,2.8186,2.7535,2.7236,2.7313,2.8794,2.9429,2.9563,3.1295,3.2006,3.2064,3.2679,3.3699,3.4731,3.3872,3.3987,3.4404,3.3545,3.2949,3.2776,3.3859,3.4795,3.5692,3.6704,3.7874,3.9053,3.9901,4.0712,4.1673,4.3073,4.3647,4.3982,4.4534,4.485,4.5081,4.525,4.5307,4.5307,4.5307,4.5307,4.5307,4.5307,4.5307,4.5307,4.5307,4.5307,4.5307,4.5307,4.5307,4.5307,4.5307,4.5307,4.5329,4.5429,4.539,4.541,4.5593,4.5438,4.54,4.5495,4.539,4.535,4.535,4.5549,4.554,4.5307,4.5507,4.5908,4.65,4.6999,4.7579,0.0,0.0,0.0,0.0,0.0,0.0,0.0,0.0,0.0,0.0,0.0,0.0,0.0,0.0,0.0,0.0,0.0,0.0,0.0,0.0,0.0,0.0,0.0,0.0,0.0,0.0,0.0,0.0,0.0,2.714,2.5385,2.5308,2.5308,2.5308,2.5308,2.5712,2.6601,2.6601,2.664,2.6717,2.5846,2.5462,2.55,2.5462,2.5442,2.5615,2.8904,3.0327,3.0462,3.2141,3.2833,3.2833,3.2872,3.2968,3.2949,3.2122,3.1852,3.1775,3.0904,3.1115,3.2025,3.3667,3.4795,3.5782,3.7367,3.7897,3.8143,3.8952,3.9742,4.0566,4.1418,4.225,4.288,4.2928,4.352,4.4303,4.5125,4.5307,4.5307,4.5307,4.5307,4.5307,4.5307,4.5307,4.5307,4.5307,4.5307,4.5307,4.5307,4.5307,4.5307,4.5307,4.5307,4.5307,4.5317,4.5429,4.5438,4.5338,4.5438,4.5495,4.5504,4.5495,4.5485,4.5485,4.5504,4.5438,4.5307,4.6061,4.6462,4.653,4.7624,4.8158,0.0,0.0,0.0,0.0,0.0,0.0,0.0,0.0,0.0,0.0,0.0,0.0,0.0,0.0,0.0,0.0,0.0,0.0,0.0,0.0,0.0,0.0,0.0,0.0,0.0,0.0,0.0,0.0,0.0,0.0,2.5365,2.5308,2.5308,2.5308,2.5308,2.5442,2.5769,2.5769,2.5769,2.5769,2.5442,2.5317,2.5361,2.5317,2.5317,2.5457,2.7203,2.8563,2.9602,3.0198,3.1121,3.2122,3.2122,3.2122,3.2083,3.1814,3.1698,3.1583,3.0692,3.0596,3.1058,3.2218,3.2814,3.3365,3.4966,3.582,3.6397,3.7212,3.8414,3.966,4.0501,4.1342,4.2106,4.2679,4.3414,4.4083,4.4399,4.4914,4.5307,4.5307,4.5307,4.5307,4.5307,4.5307,4.5307,4.5307,4.5307,4.5307,4.5307,4.5307,4.5307,4.5307,4.5307,4.5307,4.5307,4.5339,4.535,4.5307,4.5359,4.537,4.537,4.537,4.537,4.537,4.537,4.5339,4.5307,4.6118,4.6832,4.7481,4.8535,4.9377,1.4804,0.0,0.0,0.0,0.0,0.0,0.0,0.0,0.0,0.0,0.0,0.0,0.0,0.0,0.0,0.0,0.0,0.0,0.0,0.0,0.0,0.0,0.0,0.0,0.0,0.0,0.0,0.0,0.0,0.0,2.5346,2.5308,2.5308,2.5308,2.5308,2.5308,2.5308,2.5308,2.5308,2.5308,2.5308,2.5317,2.5361,2.5317,2.5317,2.5399,2.5933,2.7121,2.8723,2.8992,3.0121,3.1698,3.1698,3.1698,3.1698,3.1698,3.1506,3.1173,3.0596,3.0404,3.0596,3.1737,3.2096,3.2404,3.4004,3.4882,3.5477,3.628,3.7509,3.8763,3.9642,4.0482,4.1304,4.2163,4.3004,4.3663,4.393,4.4685,4.5307,4.5307,4.5307,4.5307,4.5307,4.5307,4.5307,4.5307,4.5307,4.5307,4.5307,4.5307,4.5307,4.5307,4.5307,4.5307,4.5307,4.5307,4.5307,4.5307,4.5307,4.5307,4.5307,4.5564,4.5698,4.5698,4.5698,4.5863,4.6212,4.6748,4.7346,4.803,4.9376,5.0391,0.0,0.0,0.0,0.0,0.0,0.0,0.0,0.0,0.0,0.0,0.0,0.0,0.0,0.0,0.0,0.0,0.0,0.0,0.0,0.0,0.0,0.0,0.0,0.0,0.0,0.0,0.0,0.0,0.0,2.6192,2.5346,2.5308,2.5308,2.5308,2.5308,2.5308,2.5308,2.5308,2.5308,2.5308,2.5308,2.5308,2.5308,2.5308,2.5308,2.5308,2.5308,2.6269,2.7915,2.8703,3.0063,3.166,3.166,3.166,3.166,3.1698,3.1154,3.0404,3.0404,3.0404,3.0654,3.2288,3.2801,3.3114,3.4702,3.5201,3.5392,3.6203,3.7043,3.7903,3.882,3.968,4.0492,4.1285,4.2144,4.3004,4.3796,4.4666,4.5307,4.5307,4.5307,4.5307,4.5307,4.5307,4.5307,4.5307,4.5307,4.5307,4.5307,4.5307,4.5307,4.5307,4.5307,4.5307,4.5307,4.5307,4.5307,4.5307,4.5326,4.5345,4.5345,4.6118,4.6538,4.6538,4.6538,4.7025,4.801,4.7972,4.7991,4.8106,5.0074,5.1088,1.4736,0.0,0.0,0.0,0.0,0.0,0.0,0.0,0.0,0.0,0.0,0.0,0.0,0.0,0.0,0.0,0.0,0.0,0.0,0.0,0.0,0.0,0.0,0.0,0.0,0.0,0.0,0.0,2.5654,2.5558,2.5308,2.5308,2.5308,2.5308,2.5308,2.5308,2.5308,2.5308,2.5308,2.5308,2.5308,2.5308,2.5308,2.5308,2.5308,2.5308,2.5308,2.5923,2.6986,2.7198,2.8659,3.075,3.075,3.075,3.0846,3.1468,3.1154,3.0404,3.0404,3.0373,3.0381,3.0699,3.0796,3.0989,3.2011,3.2776,3.3478,3.4429,3.6146,3.8056,3.9546,4.011,4.0358,4.0578,4.1743,4.287,4.308,4.4265,4.5307,4.5307,4.5307,4.5307,4.5307,4.5307,4.5307,4.5307,4.5307,4.5307,4.5307,4.5307,4.5307,4.5307,4.5307,4.5307,4.5307,4.5307,4.5307,4.5307,4.5851,4.6175,4.6175,4.6997,4.7444,4.7444,4.7444,4.7637,4.801,4.7367,4.7804,4.9266,5.0545,5.1159,0.0,0.0,0.0,0.0,0.0,0.0,2.0738,2.1704,0.0,0.0,0.0,0.0,0.0,0.0,0.0,0.0,0.0,0.0,0.0,0.0,0.0,0.0,0.0,0.0,0.0,0.0,0.0,2.5308,2.5308,2.5308,2.5308,2.5308,2.5308,2.5308,2.5308,2.5308,2.5308,2.5308,2.5308,2.5308,2.5308,2.5308,2.5308,2.5308,2.5308,2.5308,2.5308,2.5596,2.6058,2.6058,2.7558,2.989,3.025,3.0404,3.0519,3.1385,3.1154,3.0404,3.0373,3.0279,3.0221,3.0467,3.0514,3.073,3.1893,3.2667,3.3315,3.4238,3.605,3.7922,3.8954,3.9747,4.0205,3.9843,4.1036,4.2345,4.2657,4.3795,4.4876,4.522,4.5307,4.5307,4.5307,4.5307,4.5307,4.5307,4.5307,4.5307,4.5307,4.5307,4.5307,4.5307,4.5307,4.5307,4.5307,4.5307,4.543,4.5774,4.6233,4.6672,4.7035,4.7876,4.8334,4.8334,4.8411,4.8336,4.8172,4.7967,4.8723,5.0332,5.0926,5.1202,0.0,0.0,0.0,0.0,0.0,0.0,2.1694,2.1808,2.191,0.0,0.0,0.0,0.0,0.0,0.0,0.0,0.0,0.0,0.0,0.0,0.0,0.0,0.0,0.0,0.0,2.5308,2.5308,2.5308,2.5212,2.5173,2.5173,2.5173,2.5173,2.5178,2.5255,2.5313,2.5313,2.5313,2.5308,2.5308,2.5308,2.5308,2.5308,2.5308,2.5308,2.5308,2.5308,2.5308,2.5308,2.5308,2.6697,2.8896,2.9673,3.0096,3.0346,3.1141,3.0981,3.0398,3.0298,3.0157,3.0125,3.0868,3.1051,3.1286,3.2807,3.3519,3.4023,3.5163,3.653,3.7733,3.7941,3.9145,4.0091,3.9336,4.0348,4.1676,4.2316,4.3266,4.4236,4.5,4.5239,4.5307,4.5307,4.5307,4.5307,4.5307,4.5307,4.5307,4.5307,4.5307,4.5307,4.5307,4.5307,4.5307,4.5307,4.5373,4.5736,4.6462,4.6691,4.715,4.7914,4.8774,4.9243,4.9243,4.937,4.9197,4.8688,4.9366,5.017,5.1066,5.1144,5.1202,0.0,0.0,0.0,0.0,0.0,0.0,1.9027,1.9774,2.0706,0.0,0.0,0.0,0.0,0.0,0.0,0.0,0.0,0.0,0.0,0.0,0.0,0.0,0.0,0.0,0.0,2.5308,2.5308,2.5308,2.4697,2.4336,2.4336,2.4336,2.4326,2.4325,2.4999,2.5389,2.5389,2.5389,2.5356,2.5308,2.5308,2.5308,2.5308,2.5308,2.5308,2.5308,2.5308,2.5308,2.5308,2.5308,2.6,2.7101,2.7274,2.8179,2.9377,2.955,2.9948,3.0367,3.0143,3.0032,2.9996,3.0017,2.9851,2.9784,3.0444,3.1501,3.3138,3.6325,3.7327,3.7813,3.9395,4.0053,4.0263,4.0091,4.0788,4.1504,4.1556,4.2846,4.4024,4.4149,4.4785,4.5307,4.5307,4.5307,4.5307,4.5307,4.5307,4.5307,4.5307,4.5307,4.5307,4.5307,4.5307,4.5307,4.5307,4.5889,4.6328,4.65,4.7818,4.8659,4.8831,4.9633,5.0073,5.0073,5.0307,5.045,5.0482,5.0746,5.0622,5.0178,5.0872,5.1202,0.0,0.0,0.0,2.0519,0.0,0.0,0.0,1.9768,2.0214,0.0,0.0,0.0,0.0,0.0,0.0,0.0,0.0,0.0,0.0,0.0,0.0,0.0,0.0,0.0,0.0,2.5308,2.5135,2.4736,2.3932,2.3451,2.3451,2.3869,2.3901,2.3467,2.4713,2.5181,2.4756,2.5211,2.5432,2.54,2.5394,2.5386,2.5344,2.5344,2.5336,2.5308,2.5308,2.5308,2.5308,2.5308,2.5558,2.5981,2.6428,2.7371,2.8544,2.895,2.9636,3.0329,3.0162,3.0018,2.992,2.9828,2.9707,2.9719,3.0366,3.1722,3.3615,3.6332,3.7326,3.7775,3.8755,3.9661,4.0186,3.9747,4.0549,4.1471,4.1773,4.2933,4.3996,4.433,4.4903,4.5307,4.5307,4.5307,4.5307,4.5307,4.5307,4.5307,4.5307,4.5307,4.5307,4.5307,4.5307,4.5307,4.5307,4.6042,4.6691,4.7131,4.8372,4.9282,4.9671,5.0092,5.0317,5.0388,5.0192,5.0397,5.1005,5.0707,5.0542,5.0561,5.1008,5.1202,0.0,0.0,0.0,0.0,0.0,2.0068,0.0,0.0,0.0,2.2435,0.0,0.0,0.0,0.0,0.0,0.0,0.0,0.0,0.0,0.0,0.0,0.0,0.0,0.0,0.0,2.4947,2.4634,2.4149,2.3157,2.2641,2.2797,2.3473,2.3602,2.3067,2.4593,2.5073,2.4382,2.5135,2.5505,2.5501,2.5502,2.5467,2.5391,2.5391,2.5365,2.5317,2.5308,2.5308,2.5317,2.5308,2.5308,2.5365,2.6077,2.6981,2.7956,2.8601,2.9472,3.0286,3.0188,3.003,2.9896,2.9894,3.0035,3.0354,3.113,3.256,3.4285,3.6143,3.7117,3.768,3.8096,3.9204,4.0063,3.9375,4.0271,4.1431,4.2033,4.3035,4.3965,4.4595,4.5022,4.5307,4.5307,4.5307,4.5307,4.5307,4.5307,4.5307,4.5307,4.5307,4.5307,4.5307,4.5307,4.5307,4.5307,4.6194,4.7043,4.775,4.8754,4.9614,5.0264,5.0302,5.0363,5.0497,4.9971,5.0113,5.1005,5.0222,5.0233,5.095,5.095,5.0853,0.0,0.0,0.0,0.0,2.2063,0.0,0.0,0.0,1.8245,1.8615,0.0,0.0,0.0,0.0,0.0,0.0,0.0,0.0,0.0,0.0,0.0,0.0,0.0,0.0,0.0,0.0,2.3427,2.4057,2.2628,2.2057,2.2763,2.2896,2.3263,2.394,2.496,2.5447,2.5331,2.5515,2.5568,2.5493,2.5504,2.5467,2.5391,2.5391,2.5397,2.5389,2.5341,2.5322,2.5389,2.5317,2.5308,2.5308,2.5404,2.6427,2.7827,2.7917,2.8955,3.0254,3.0022,2.992,2.9896,2.9894,3.0532,3.1401,3.1855,3.2731,3.4093,3.6586,3.7242,3.7613,3.9519,3.9974,3.9946,3.9973,4.0547,4.1173,4.1306,4.2628,4.3847,4.3988,4.4696,4.5307,4.5307,4.5307,4.5307,4.5307,4.5307,4.5307,4.5307,4.5307,4.5307,4.5307,4.5307,4.5307,4.5307,4.6748,4.7693,4.7788,4.9289,5.0206,5.0302,5.0302,5.0363,5.0497,5.0421,5.0595,5.1005,5.0141,4.9834,5.0042,5.0042,4.9629,0.0,0.0,0.0,0.0,0.0,0.0,0.0,0.0,1.829,0.0,0.0,0.0,0.0,0.0,0.0,0.0,0.0,0.0,0.0,0.0,0.0,0.0,0.0,0.0,0.0,0.0,0.0,0.0,0.0,2.1694,2.2028,2.2083,2.2288,2.2685,2.4028,2.4769,2.481,2.5364,2.5646,2.5621,2.5627,2.5554,2.546,2.546,2.5418,2.5346,2.5233,2.5206,2.5222,2.5206,2.5182,2.5182,2.5268,2.6315,2.7796,2.7756,2.881,3.0207,2.9981,2.9902,2.9886,2.976,3.0459,3.1423,3.1891,3.2698,3.3954,3.637,3.7085,3.7525,3.9402,3.99,3.9933,4.0067,4.1011,4.1874,4.199,4.3357,4.4551,4.4589,4.4974,4.5307,4.5307,4.5307,4.5307,4.5307,4.5307,4.5307,4.5307,4.5307,4.5307,4.5307,4.5307,4.5307,4.5307,4.6366,4.7253,4.7769,4.9366,5.0302,5.0302,5.0302,5.0337,5.0377,5.0003,4.9875,5.0014,4.9716,4.9393,4.9033,4.9101,4.9221,2.3684,0.0,0.0,0.0,0.0,0.0,0.0,0.0,0.0,0.0,0.0,0.0,0.0,0.0,0.0,0.0,0.0,0.0,0.0,0.0,0.0,0.0,0.0,0.0,0.0,0.0,0.0,0.0,2.1798,2.137,2.1831,2.189,2.2061,2.2349,2.3814,2.4618,2.4662,2.5354,2.5698,2.5698,2.5704,2.5637,2.5501,2.5501,2.5414,2.5234,2.5149,2.5078,2.5049,2.5043,2.5074,2.5116,2.5193,2.6238,2.7675,2.7644,2.8687,3.009,2.9897,2.9822,2.9815,2.9852,3.0565,3.1515,3.2027,3.285,3.4056,3.6112,3.6789,3.7314,3.913,3.9647,3.9758,3.9994,4.1051,4.206,4.2205,4.3561,4.4752,4.4786,4.5072,4.5307,4.5307,4.5307,4.5307,4.5307,4.5307,4.5307,4.5307,4.5307,4.5307,4.5307,4.5307,4.5307,4.5307,4.6042,4.6978,4.8086,4.9308,5.0073,5.0283,5.0302,5.0302,5.0302,4.9814,4.9477,4.9307,4.9403,4.909,4.8405,4.8742,4.914,0.0,0.0,0.0,2.1243,0.0,0.0,0.0,0.0,1.849,0.0,0.0,0.0,0.0,0.0,0.0,0.0,0.0,0.0,0.0,0.0,0.0,0.0,0.0,0.0,0.0,0.0,0.0,2.2678,2.1261,2.1041,2.2667,2.2761,2.3139,2.3992,2.5017,2.5569,2.5552,2.5655,2.5693,2.5693,2.5709,2.5637,2.5501,2.5501,2.5356,2.5116,2.5101,2.5037,2.4917,2.4903,2.4987,2.5088,2.5038,2.5988,2.7409,2.7402,2.8469,2.988,2.9681,2.9617,2.972,3.0362,3.1213,3.2064,3.2519,3.3383,3.4482,3.598,3.6421,3.6917,3.9058,3.9401,3.9343,3.9811,4.0503,4.1104,4.1292,4.2648,4.3879,4.4005,4.4723,4.5307,4.5307,4.5307,4.5307,4.5307,4.5307,4.5307,4.5307,4.5307,4.5307,4.5307,4.5307,4.5307,4.5307,4.6042,4.7226,4.8957,4.911,4.948,5.0264,5.0302,5.0302,5.0302,5.0283,4.9953,4.9307,4.9297,4.8987,4.8417,4.9262,4.9298,0.0,0.0,2.4409,2.2363,0.0,0.0,0.0,0.0,0.0,0.0,0.0,0.0,0.0,0.0,0.0,0.0,0.0,0.0,0.0,0.0,0.0,0.0,0.0,0.0,0.0,0.0,0.0,2.1236,2.166,2.2195,0.0,2.1751,2.1579,2.2475,2.3392,2.4185,2.4801,2.5392,2.5694,2.5694,2.5709,2.5637,2.5501,2.5415,2.5271,2.5096,2.4903,2.4771,2.4712,2.4697,2.4697,2.4749,2.5355,2.6199,2.7104,2.7316,2.8457,2.9864,2.9626,2.98,3.0142,3.018,3.1288,3.2578,3.247,3.3111,3.4178,3.5597,3.6091,3.6613,3.8412,3.9041,3.929,3.9611,4.0424,4.1343,4.212,4.3153,4.4118,4.4732,4.5105,4.5307,4.5307,4.5307,4.5307,4.5307,4.5307,4.5307,4.5307,4.5307,4.5307,4.5307,4.5307,4.5307,4.5307,4.6577,4.7597,4.82,4.9289,5.0015,5.0283,5.0302,5.0302,5.0302,5.0302,4.9935,4.9179,4.9704,4.963,4.9015,4.9834,4.9938,2.4891,2.4805,0.0,2.2881,2.207,0.0,2.0166,0.0,0.0,0.0,0.0,0.0,0.0,0.0,0.0,0.0,0.0,0.0,0.0,1.3838,0.0,0.0,0.0,0.0,0.0,0.0,2.1497,2.1641,2.1259,2.1683,0.0,0.0,2.161,2.253,2.342,2.4189,2.4787,2.5407,2.5692,2.5691,2.5681,2.5605,2.5498,2.5341,2.5182,2.5025,2.4768,2.461,2.4528,2.4493,2.4501,2.4582,2.5471,2.6252,2.6926,2.7433,2.8452,2.957,2.9514,2.9853,3.0301,3.0367,3.143,3.27,3.2683,3.3306,3.4273,3.5452,3.6108,3.6766,3.8279,3.889,3.924,3.967,4.0306,4.1092,4.2124,4.2985,4.3815,4.4666,4.5086,4.5307,4.5307,4.5307,4.5307,4.5307,4.5307,4.5307,4.5307,4.5307,4.5307,4.5307,4.5307,4.5411,4.5698,4.6729,4.7608,4.822,4.927,4.9996,5.0283,5.0034,5.0015,5.0283,5.0015,4.9614,4.911,4.9901,4.9953,4.9326,5.0142,5.0382]}]]